[[{"header":{"parameterUnit":"m.s-1","parameterCategory":1,"la1":31.0,"la2":29.5877,"lo1":-88.7671,"lo2":-86.6584,"dy":0.0162,"dx":0.0185,"nx":115,"ny":88,"refTime":"2024-04-04T18:00:00:Z","depth":0,"parameterNumber":2,"parameterNumberName":"U-component_of_WINDS"},"data":[0.0,0.0,0.0,0.0,0.0,0.0,0.0,0.0,0.0,0.0,0.0,0.0,0.0,0.0,0.0,0.0,0.0,0.0,0.0,0.0,0.0,0.0,0.0,0.0,0.0,0.0,0.0,0.0,0.0,0.0,0.0,0.0,0.0,0.0,0.0,0.0,0.0,0.0,0.0,0.0,0.0,0.0,0.0,0.0,0.0,0.0,0.0,0.0,0.0,0.0,0.0,0.0,0.0,0.0,0.0,0.0,0.0,0.0,0.0,0.0,0.0,0.0,0.0,0.0,0.0,0.0,0.0,0.0,0.0,0.0,0.0,0.0,0.0,0.0,0.0,0.0,0.0,0.0,0.0,0.0,0.0,0.0,0.0,0.0,0.0,0.0,0.0,0.0,0.0,0.0,0.0,0.0,0.0,0.0,0.0,0.0,0.0,0.0,0.0,0.0,0.0,0.0,0.0,0.0,0.0,0.0,0.0,0.0,0.0,0.0,0.0,0.0,0.0,0.0,0.0,0.0,0.0,0.0,0.0,0.0,0.0,0.0,0.0,0.0,0.0,0.0,0.0,0.0,0.0,0.0,0.0,0.0,0.0,0.0,0.0,0.0,0.0,0.0,0.0,0.0,0.0,0.0,0.0,0.0,0.0,0.0,0.0,0.0,0.0,0.0,0.0,0.0,0.0,0.0,0.0,0.0,0.0,0.0,0.0,0.0,0.0,0.0,0.0,0.0,0.0,0.0,0.0,0.0,0.0,0.0,0.0,0.0,0.0,0.0,0.0,0.0,0.0,0.0,0.0,0.0,0.0,0.0,0.0,0.0,0.0,0.0,0.0,0.0,0.0,0.0,0.0,0.0,0.0,0.0,0.0,0.0,0.0,0.0,0.0,0.0,0.0,0.0,0.0,0.0,0.0,0.0,0.0,0.0,0.0,0.0,0.0,0.0,0.0,0.0,0.0,0.0,0.0,0.0,0.0,0.0,0.0,0.0,0.0,0.0,0.0,0.0,0.0,0.0,0.0,0.0,0.0,0.0,0.0,0.0,0.0,0.0,0.0,0.0,0.0,0.0,0.0,0.0,0.0,0.0,0.0,0.0,0.0,0.0,0.0,0.0,0.0,0.0,0.0,0.0,0.0,0.0,0.0,0.0,0.0,0.0,0.0,0.0,0.0,0.0,0.0,0.0,0.0,0.0,0.0,0.0,0.0,0.0,0.0,0.0,0.0,0.0,0.0,0.0,0.0,0.0,0.0,0.0,0.0,0.0,0.0,0.0,0.0,0.0,0.0,0.0,0.0,0.0,0.0,0.0,0.0,0.0,0.0,0.0,0.0,0.0,0.0,0.0,0.0,0.0,0.0,0.0,0.0,0.0,0.0,0.0,0.0,0.0,0.0,0.0,0.0,0.0,0.0,0.0,0.0,0.0,0.0,0.0,0.0,0.0,0.0,0.0,0.0,0.0,0.0,0.0,0.0,0.0,0.0,0.0,0.0,0.0,0.0,0.0,0.0,0.0,0.0,0.0,0.0,0.0,0.0,0.0,0.0,0.0,0.0,0.0,0.0,0.0,0.0,0.0,0.0,0.0,0.0,0.0,0.0,0.0,0.0,0.0,0.0,0.0,0.0,0.0,0.0,0.0,0.0,0.0,0.0,0.0,0.0,0.0,0.0,0.0,0.0,0.0,0.0,0.0,0.0,0.0,0.0,0.0,0.0,0.0,0.0,0.0,0.0,0.0,0.0,0.0,0.0,0.0,0.0,0.0,0.0,0.0,0.0,0.0,0.0,0.0,0.0,0.0,0.0,0.0,0.0,0.0,0.0,0.0,0.0,0.0,0.0,0.0,0.0,0.0,0.0,0.0,0.0,0.0,0.0,0.0,0.0,0.0,0.0,0.0,0.0,0.0,0.0,0.0,0.0,0.0,0.0,0.0,0.0,0.0,0.0,0.0,0.0,0.0,0.0,0.0,0.0,0.0,0.0,0.0,0.0,0.0,0.0,0.0,0.0,0.0,0.0,0.0,0.0,0.0,0.0,0.0,0.0,0.0,0.0,0.0,0.0,0.0,0.0,0.0,0.0,0.0,0.0,0.0,0.0,0.0,0.0,0.0,0.0,0.0,0.0,0.0,0.0,0.0,0.0,0.0,0.0,0.0,0.0,0.0,0.0,0.0,0.0,0.0,0.0,0.0,0.0,0.0,0.0,0.0,0.0,0.0,0.0,0.0,0.0,0.0,0.0,0.0,0.0,0.0,0.0,0.0,0.0,0.0,0.0,0.0,0.0,0.0,0.0,0.0,0.0,0.0,0.0,0.0,0.0,0.0,0.0,0.0,0.0,0.0,0.0,0.0,0.0,0.0,0.0,0.0,0.0,0.0,0.0,0.0,0.0,0.0,0.0,0.0,0.0,0.0,0.0,0.0,0.0,0.0,0.0,0.0,0.0,0.0,0.0,0.0,0.0,0.0,0.0,0.0,0.0,0.0,0.0,0.0,0.0,0.0,0.0,0.0,0.0,0.0,0.0,0.0,0.0,0.0,0.0,0.0,0.0,0.0,0.0,0.0,0.0,0.0,0.0,0.0,0.0,0.0,0.0,0.0,0.0,0.0,0.0,0.0,0.0,0.0,0.0,0.0,0.0,0.0,0.0,0.0,0.0,0.0,0.0,0.0,0.0,0.0,0.0,0.0,0.0,0.0,0.0,0.0,0.0,0.0,0.0,0.0,0.0,0.0,0.0,0.0,0.0,0.0,0.0,0.0,0.0,0.0,0.0,0.0,0.0,0.0,0.0,0.0,0.0,0.0,0.0,0.0,0.0,0.0,0.0,0.0,0.0,0.0,0.0,0.0,0.0,0.0,0.0,0.0,0.0,0.0,0.0,0.0,0.0,0.0,0.0,0.0,0.0,0.0,0.0,0.0,0.0,0.0,0.0,0.0,0.0,0.0,0.0,0.0,0.0,0.0,0.0,0.0,0.0,0.0,0.0,0.0,0.0,0.0,0.0,0.0,0.0,0.0,0.0,0.0,0.0,0.0,0.0,0.0,0.0,0.0,0.0,0.0,0.0,0.0,0.0,0.0,0.0,0.0,0.0,0.0,0.0,0.0,0.0,0.0,0.0,0.0,0.0,0.0,0.0,0.0,0.0,0.0,0.0,0.0,0.0,0.0,0.0,0.0,0.0,0.0,0.0,0.0,0.0,0.0,0.0,0.0,0.0,0.0,0.0,0.0,0.0,0.0,0.0,0.0,0.0,0.0,0.0,0.0,0.0,0.0,0.0,0.0,0.0,0.0,0.0,0.0,0.0,0.0,0.0,0.0,0.0,0.0,0.0,0.0,0.0,0.0,0.0,0.0,0.0,0.0,0.0,0.0,0.0,0.0,0.0,0.0,0.0,0.0,0.0,0.0,0.0,0.0,0.0,0.0,0.0,0.0,0.0,0.0,0.0,0.0,0.0,0.0,0.0,0.0,0.0,0.0,0.0,0.0,0.0,0.0,0.0,0.0,0.0,0.0,0.0,0.0,0.0,0.0,0.0,0.0,0.0,0.0,0.0,0.0,0.0,0.0,0.0,0.0,0.0,0.0,0.0,0.0,0.0,0.0,0.0,0.0,0.0,0.0,0.0,0.0,0.0,0.0,0.0,0.0,0.0,0.0,0.0,0.0,0.0,0.0,0.0,0.0,0.0,0.0,0.0,0.0,0.0,0.0,0.0,0.0,0.0,0.0,0.0,0.0,0.0,0.0,0.0,0.0,0.0,0.0,0.0,0.0,0.0,0.0,0.0,0.0,0.0,0.0,0.0,0.0,0.0,0.0,0.0,0.0,0.0,0.0,0.0,0.0,0.0,0.0,0.0,0.0,0.0,0.0,0.0,0.0,0.0,0.0,0.0,0.0,0.0,0.0,0.0,0.0,0.0,0.0,0.0,0.0,0.0,0.0,0.0,0.0,0.0,0.0,0.0,0.0,0.0,0.0,0.0,0.0,0.0,0.0,0.0,0.0,0.0,0.0,0.0,0.0,0.0,0.0,0.0,0.0,0.0,0.0,0.0,0.0,0.0,0.0,0.0,0.0,0.0,0.0,0.0,0.0,0.0,0.0,0.0,0.0,0.0,0.0,0.0,0.0,0.0,0.0,0.0,0.0,0.0,0.0,0.0,0.0,0.0,0.0,0.0,0.0,0.0,0.0,0.0,0.0,0.0,0.0,0.0,0.0,0.0,0.0,0.0,0.0,0.0,0.0,0.0,0.0,0.0,0.0,0.0,0.0,0.0,0.0,0.0,0.0,0.0,0.0,-5.9579,0.0,0.0,0.0,0.0,0.0,0.0,0.0,0.0,0.0,0.0,0.0,0.0,0.0,0.0,0.0,0.0,0.0,0.0,0.0,0.0,0.0,0.0,0.0,0.0,0.0,0.0,0.0,0.0,0.0,0.0,0.0,0.0,0.0,0.0,0.0,0.0,0.0,0.0,0.0,0.0,0.0,0.0,0.0,0.0,0.0,0.0,0.0,0.0,0.0,0.0,0.0,0.0,0.0,0.0,0.0,0.0,0.0,0.0,0.0,0.0,0.0,0.0,0.0,0.0,0.0,0.0,0.0,0.0,0.0,0.0,0.0,0.0,0.0,0.0,0.0,0.0,0.0,0.0,0.0,0.0,0.0,0.0,0.0,0.0,0.0,0.0,0.0,0.0,0.0,0.0,0.0,0.0,0.0,0.0,0.0,0.0,0.0,0.0,0.0,0.0,0.0,0.0,0.0,0.0,0.0,0.0,0.0,0.0,0.0,0.0,-5.9062,-5.912,-5.914,-5.9178,-5.9272,0.0,0.0,0.0,0.0,0.0,0.0,0.0,0.0,0.0,0.0,0.0,0.0,0.0,0.0,0.0,0.0,0.0,0.0,0.0,0.0,0.0,0.0,0.0,0.0,0.0,0.0,0.0,0.0,0.0,0.0,0.0,0.0,0.0,0.0,0.0,0.0,0.0,0.0,0.0,0.0,0.0,0.0,0.0,0.0,0.0,0.0,0.0,0.0,0.0,0.0,0.0,0.0,0.0,0.0,0.0,0.0,0.0,0.0,0.0,0.0,0.0,0.0,0.0,0.0,0.0,0.0,0.0,0.0,0.0,0.0,0.0,0.0,0.0,0.0,0.0,0.0,0.0,0.0,0.0,0.0,0.0,0.0,0.0,0.0,0.0,0.0,0.0,0.0,0.0,0.0,0.0,0.0,0.0,0.0,0.0,0.0,0.0,0.0,0.0,0.0,0.0,0.0,0.0,0.0,0.0,0.0,0.0,0.0,0.0,0.0,0.0,0.0,-5.8964,-5.8983,-5.8984,0.0,0.0,0.0,0.0,0.0,0.0,0.0,0.0,0.0,0.0,0.0,0.0,0.0,0.0,0.0,0.0,0.0,0.0,0.0,0.0,0.0,0.0,0.0,0.0,0.0,0.0,0.0,0.0,0.0,0.0,0.0,0.0,0.0,0.0,0.0,0.0,0.0,0.0,0.0,0.0,0.0,0.0,0.0,0.0,0.0,0.0,0.0,0.0,0.0,0.0,0.0,0.0,0.0,0.0,0.0,0.0,0.0,0.0,0.0,0.0,0.0,0.0,0.0,0.0,0.0,0.0,0.0,0.0,0.0,0.0,0.0,0.0,0.0,0.0,0.0,0.0,0.0,0.0,0.0,0.0,0.0,0.0,0.0,0.0,0.0,0.0,0.0,0.0,0.0,0.0,0.0,0.0,0.0,0.0,0.0,0.0,0.0,0.0,0.0,0.0,0.0,0.0,0.0,0.0,0.0,0.0,0.0,0.0,0.0,0.0,-5.8596,-5.8719,-5.8859,0.0,-5.9003,0.0,0.0,0.0,0.0,0.0,0.0,0.0,0.0,0.0,0.0,0.0,0.0,0.0,0.0,0.0,0.0,0.0,0.0,0.0,0.0,0.0,0.0,0.0,0.0,0.0,0.0,0.0,0.0,0.0,0.0,0.0,0.0,0.0,0.0,0.0,0.0,0.0,0.0,0.0,0.0,0.0,0.0,0.0,0.0,0.0,0.0,0.0,0.0,0.0,0.0,0.0,0.0,0.0,0.0,0.0,0.0,0.0,0.0,0.0,0.0,0.0,0.0,0.0,0.0,0.0,0.0,0.0,0.0,0.0,0.0,0.0,0.0,0.0,0.0,0.0,0.0,0.0,0.0,0.0,0.0,0.0,0.0,0.0,0.0,0.0,0.0,0.0,0.0,0.0,0.0,0.0,0.0,0.0,0.0,0.0,0.0,0.0,0.0,0.0,0.0,0.0,0.0,0.0,0.0,0.0,0.0,0.0,0.0,0.0,0.0,-5.8462,-5.8505,-5.8566,-5.863,0.0,0.0,0.0,0.0,0.0,0.0,0.0,0.0,0.0,0.0,0.0,0.0,0.0,0.0,0.0,0.0,0.0,0.0,0.0,0.0,0.0,0.0,0.0,0.0,0.0,0.0,0.0,0.0,0.0,0.0,0.0,0.0,0.0,0.0,0.0,0.0,0.0,0.0,0.0,0.0,0.0,0.0,0.0,0.0,0.0,0.0,0.0,0.0,0.0,0.0,0.0,0.0,0.0,0.0,0.0,0.0,0.0,0.0,0.0,0.0,0.0,0.0,0.0,0.0,0.0,0.0,0.0,0.0,0.0,0.0,0.0,0.0,0.0,0.0,0.0,0.0,0.0,0.0,0.0,0.0,0.0,0.0,0.0,0.0,0.0,0.0,0.0,0.0,0.0,0.0,0.0,0.0,0.0,0.0,0.0,0.0,0.0,0.0,0.0,0.0,0.0,0.0,0.0,0.0,0.0,0.0,0.0,0.0,0.0,0.0,-5.8327,-5.8371,-5.8393,-5.8411,-5.8411,-5.8411,0.0,0.0,0.0,0.0,0.0,0.0,0.0,0.0,0.0,0.0,0.0,0.0,0.0,0.0,0.0,0.0,0.0,0.0,0.0,0.0,0.0,0.0,0.0,0.0,0.0,0.0,0.0,0.0,0.0,0.0,0.0,0.0,0.0,0.0,0.0,0.0,0.0,0.0,0.0,0.0,0.0,0.0,0.0,0.0,0.0,0.0,0.0,0.0,0.0,0.0,0.0,0.0,0.0,0.0,0.0,0.0,0.0,0.0,0.0,0.0,0.0,0.0,0.0,0.0,0.0,0.0,0.0,0.0,0.0,0.0,0.0,0.0,0.0,0.0,0.0,0.0,0.0,0.0,0.0,0.0,0.0,0.0,0.0,0.0,0.0,0.0,0.0,0.0,0.0,0.0,0.0,0.0,0.0,0.0,0.0,0.0,0.0,0.0,0.0,0.0,0.0,0.0,0.0,0.0,0.0,0.0,0.0,0.0,-5.8038,-5.8133,-5.8282,-5.8411,-5.8411,-5.8411,0.0,0.0,0.0,0.0,0.0,0.0,0.0,0.0,0.0,0.0,0.0,0.0,0.0,0.0,0.0,0.0,0.0,0.0,0.0,0.0,0.0,0.0,0.0,0.0,0.0,0.0,0.0,0.0,0.0,0.0,0.0,0.0,0.0,0.0,0.0,0.0,0.0,0.0,0.0,0.0,0.0,0.0,0.0,0.0,0.0,0.0,0.0,0.0,0.0,0.0,0.0,0.0,0.0,0.0,0.0,0.0,0.0,0.0,0.0,0.0,0.0,0.0,0.0,0.0,0.0,0.0,0.0,0.0,0.0,0.0,0.0,0.0,0.0,0.0,0.0,0.0,0.0,0.0,0.0,0.0,0.0,0.0,0.0,0.0,0.0,0.0,0.0,0.0,0.0,0.0,0.0,0.0,0.0,0.0,0.0,0.0,0.0,0.0,0.0,0.0,0.0,0.0,0.0,0.0,0.0,0.0,0.0,0.0,0.0,-5.7997,-5.8061,-5.8088,-5.8152,-5.8152,-5.8152,0.0,0.0,0.0,0.0,0.0,0.0,0.0,0.0,0.0,0.0,0.0,0.0,0.0,0.0,0.0,0.0,0.0,0.0,0.0,0.0,0.0,0.0,0.0,0.0,0.0,0.0,0.0,0.0,0.0,0.0,0.0,0.0,0.0,0.0,0.0,0.0,0.0,0.0,0.0,0.0,0.0,0.0,0.0,0.0,0.0,0.0,0.0,0.0,0.0,0.0,0.0,0.0,0.0,0.0,0.0,0.0,0.0,0.0,0.0,0.0,0.0,0.0,0.0,0.0,0.0,0.0,0.0,0.0,0.0,0.0,0.0,0.0,0.0,0.0,0.0,0.0,0.0,0.0,0.0,0.0,0.0,0.0,0.0,0.0,0.0,0.0,0.0,0.0,0.0,0.0,0.0,0.0,0.0,0.0,0.0,0.0,0.0,0.0,0.0,0.0,0.0,0.0,0.0,0.0,0.0,0.0,0.0,0.0,0.0,-5.7978,0.0,-5.7978,-5.7978,-5.7978,-5.7978,0.0,0.0,0.0,0.0,0.0,0.0,0.0,0.0,0.0,0.0,0.0,0.0,0.0,0.0,0.0,0.0,0.0,0.0,0.0,0.0,0.0,0.0,0.0,0.0,0.0,0.0,0.0,0.0,0.0,0.0,0.0,0.0,0.0,0.0,0.0,0.0,0.0,0.0,0.0,0.0,0.0,0.0,0.0,0.0,0.0,0.0,0.0,0.0,0.0,0.0,0.0,0.0,0.0,0.0,0.0,0.0,0.0,0.0,0.0,0.0,0.0,0.0,0.0,0.0,0.0,0.0,0.0,0.0,0.0,0.0,0.0,0.0,0.0,0.0,0.0,0.0,0.0,0.0,0.0,0.0,0.0,0.0,0.0,0.0,0.0,0.0,0.0,0.0,0.0,0.0,0.0,0.0,0.0,0.0,0.0,0.0,0.0,0.0,0.0,0.0,0.0,0.0,0.0,0.0,0.0,0.0,0.0,0.0,-5.7997,-5.7978,-5.7978,-5.7978,-5.7978,-5.7978,-5.7978,0.0,0.0,0.0,0.0,0.0,0.0,0.0,0.0,0.0,0.0,0.0,0.0,0.0,0.0,0.0,0.0,0.0,0.0,0.0,0.0,0.0,0.0,0.0,0.0,0.0,0.0,0.0,0.0,0.0,0.0,0.0,0.0,0.0,0.0,0.0,0.0,0.0,0.0,0.0,0.0,0.0,0.0,0.0,0.0,0.0,0.0,0.0,0.0,0.0,0.0,0.0,0.0,0.0,0.0,0.0,0.0,0.0,0.0,0.0,0.0,0.0,0.0,0.0,0.0,0.0,0.0,0.0,0.0,0.0,0.0,0.0,0.0,0.0,0.0,0.0,0.0,0.0,0.0,0.0,0.0,0.0,0.0,0.0,0.0,0.0,0.0,0.0,0.0,0.0,0.0,0.0,0.0,0.0,0.0,0.0,0.0,0.0,0.0,0.0,0.0,0.0,0.0,0.0,0.0,0.0,0.0,0.0,0.0,0.0,-5.7978,-5.7978,-5.7978,-5.7978,-5.7978,-5.7973,0.0,0.0,0.0,0.0,0.0,0.0,0.0,0.0,0.0,0.0,0.0,0.0,0.0,0.0,0.0,0.0,0.0,0.0,0.0,0.0,0.0,0.0,0.0,0.0,0.0,0.0,0.0,0.0,0.0,0.0,0.0,0.0,0.0,0.0,0.0,0.0,0.0,0.0,0.0,0.0,0.0,0.0,0.0,0.0,0.0,0.0,0.0,0.0,0.0,0.0,0.0,0.0,0.0,0.0,0.0,0.0,0.0,0.0,0.0,0.0,0.0,0.0,0.0,0.0,0.0,0.0,0.0,0.0,0.0,0.0,0.0,0.0,0.0,0.0,0.0,0.0,0.0,0.0,0.0,0.0,0.0,0.0,0.0,0.0,0.0,0.0,0.0,0.0,0.0,0.0,0.0,0.0,0.0,0.0,0.0,0.0,0.0,0.0,0.0,0.0,0.0,0.0,0.0,0.0,0.0,0.0,0.0,0.0,0.0,-5.7927,-5.7973,-5.7978,-5.7978,-5.795,-5.7862,-5.7792,0.0,0.0,0.0,0.0,0.0,0.0,0.0,0.0,0.0,0.0,0.0,0.0,0.0,0.0,0.0,0.0,0.0,0.0,0.0,0.0,0.0,0.0,0.0,0.0,0.0,0.0,0.0,0.0,0.0,0.0,0.0,0.0,0.0,0.0,0.0,0.0,0.0,0.0,0.0,0.0,0.0,0.0,0.0,0.0,0.0,0.0,0.0,0.0,0.0,0.0,0.0,0.0,0.0,0.0,0.0,0.0,0.0,0.0,0.0,0.0,0.0,0.0,0.0,0.0,0.0,0.0,0.0,0.0,0.0,0.0,0.0,0.0,0.0,0.0,0.0,0.0,0.0,0.0,0.0,0.0,0.0,0.0,0.0,0.0,0.0,0.0,0.0,0.0,0.0,0.0,0.0,0.0,0.0,0.0,0.0,0.0,0.0,0.0,0.0,0.0,0.0,0.0,0.0,0.0,0.0,0.0,0.0,0.0,-5.7745,-5.7849,-5.79,-5.7997,-5.7839,-5.7786,0.0,0.0,0.0,0.0,0.0,0.0,0.0,0.0,0.0,0.0,0.0,0.0,0.0,0.0,0.0,0.0,0.0,0.0,0.0,0.0,0.0,0.0,0.0,0.0,0.0,0.0,0.0,0.0,0.0,0.0,0.0,0.0,0.0,0.0,0.0,0.0,0.0,0.0,0.0,0.0,0.0,0.0,0.0,0.0,0.0,0.0,0.0,0.0,0.0,0.0,0.0,0.0,0.0,0.0,0.0,0.0,0.0,0.0,0.0,0.0,0.0,0.0,0.0,0.0,0.0,0.0,0.0,0.0,0.0,0.0,0.0,0.0,0.0,0.0,0.0,0.0,0.0,0.0,0.0,0.0,0.0,0.0,0.0,0.0,0.0,0.0,0.0,0.0,0.0,0.0,0.0,0.0,0.0,0.0,0.0,0.0,0.0,0.0,0.0,0.0,0.0,0.0,0.0,0.0,0.0,0.0,0.0,0.0,0.0,-5.7213,-5.6757,-5.6933,-5.7821,-5.7625,-5.7455,0.0,0.0,0.0,0.0,0.0,0.0,0.0,0.0,0.0,0.0,0.0,0.0,0.0,0.0,0.0,0.0,0.0,0.0,0.0,0.0,0.0,0.0,0.0,0.0,0.0,0.0,0.0,0.0,0.0,0.0,0.0,0.0,0.0,0.0,0.0,0.0,0.0,0.0,0.0,0.0,0.0,0.0,0.0,0.0,0.0,0.0,0.0,0.0,0.0,0.0,0.0,0.0,0.0,0.0,0.0,0.0,0.0,0.0,0.0,0.0,0.0,0.0,0.0,0.0,0.0,0.0,0.0,0.0,0.0,0.0,0.0,0.0,0.0,0.0,0.0,0.0,0.0,0.0,0.0,0.0,0.0,0.0,0.0,0.0,0.0,0.0,0.0,0.0,0.0,0.0,0.0,0.0,0.0,0.0,0.0,0.0,0.0,0.0,0.0,0.0,0.0,0.0,0.0,0.0,0.0,0.0,0.0,0.0,-5.657,-5.6343,-5.5919,-5.5848,-5.6205,-5.6174,-5.6093,0.0,0.0,0.0,0.0,0.0,0.0,0.0,0.0,0.0,0.0,0.0,0.0,0.0,0.0,0.0,0.0,0.0,0.0,0.0,0.0,0.0,0.0,0.0,0.0,0.0,0.0,0.0,0.0,0.0,0.0,0.0,0.0,0.0,0.0,0.0,0.0,0.0,0.0,0.0,0.0,0.0,0.0,0.0,0.0,0.0,0.0,0.0,0.0,0.0,0.0,0.0,0.0,0.0,0.0,0.0,0.0,0.0,0.0,0.0,0.0,0.0,0.0,0.0,0.0,0.0,0.0,0.0,0.0,0.0,0.0,0.0,0.0,0.0,0.0,0.0,0.0,0.0,0.0,0.0,0.0,0.0,0.0,0.0,0.0,0.0,0.0,0.0,0.0,0.0,0.0,0.0,0.0,0.0,0.0,0.0,0.0,0.0,0.0,0.0,0.0,0.0,0.0,0.0,0.0,0.0,0.0,0.0,0.0,-5.5793,-5.525,-5.4946,-5.4438,-5.3788,-5.4164,-5.4294,0.0,0.0,0.0,0.0,0.0,0.0,0.0,0.0,0.0,0.0,0.0,0.0,0.0,0.0,0.0,0.0,0.0,0.0,0.0,0.0,0.0,0.0,0.0,0.0,0.0,0.0,0.0,0.0,0.0,0.0,0.0,0.0,0.0,0.0,0.0,0.0,0.0,0.0,0.0,0.0,0.0,0.0,0.0,0.0,0.0,0.0,0.0,0.0,0.0,0.0,0.0,0.0,0.0,0.0,0.0,0.0,0.0,0.0,0.0,0.0,0.0,0.0,0.0,0.0,0.0,0.0,0.0,0.0,0.0,0.0,0.0,0.0,0.0,0.0,0.0,0.0,0.0,0.0,0.0,0.0,0.0,0.0,0.0,0.0,0.0,0.0,0.0,0.0,0.0,0.0,0.0,0.0,0.0,0.0,0.0,0.0,0.0,0.0,0.0,0.0,0.0,0.0,0.0,0.0,0.0,0.0,0.0,0.0,-5.4437,-5.4122,-5.2919,-5.2179,-5.1891,-5.3019,-5.3601,0.0,0.0,0.0,0.0,0.0,0.0,0.0,0.0,0.0,0.0,0.0,0.0,0.0,0.0,0.0,0.0,0.0,0.0,0.0,0.0,0.0,0.0,0.0,0.0,0.0,0.0,0.0,0.0,0.0,0.0,0.0,0.0,0.0,0.0,0.0,0.0,0.0,0.0,0.0,0.0,0.0,0.0,0.0,0.0,0.0,0.0,0.0,0.0,-5.6237,0.0,0.0,0.0,0.0,0.0,0.0,0.0,0.0,0.0,0.0,0.0,0.0,0.0,0.0,0.0,0.0,0.0,0.0,0.0,0.0,0.0,0.0,0.0,0.0,0.0,0.0,0.0,0.0,0.0,0.0,0.0,0.0,0.0,0.0,0.0,0.0,0.0,0.0,0.0,0.0,0.0,0.0,0.0,0.0,0.0,0.0,0.0,0.0,0.0,0.0,0.0,0.0,0.0,0.0,0.0,0.0,0.0,0.0,0.0,-5.2989,-5.2535,-5.1684,-5.1008,-5.0604,-5.1228,-5.1667,0.0,0.0,0.0,0.0,0.0,0.0,0.0,0.0,0.0,0.0,0.0,0.0,0.0,0.0,0.0,0.0,0.0,0.0,0.0,0.0,0.0,0.0,0.0,0.0,0.0,0.0,0.0,0.0,0.0,0.0,0.0,0.0,0.0,0.0,0.0,0.0,0.0,0.0,0.0,0.0,0.0,0.0,0.0,0.0,0.0,0.0,0.0,0.0,0.0,0.0,0.0,0.0,0.0,0.0,0.0,0.0,0.0,0.0,0.0,0.0,0.0,0.0,0.0,0.0,0.0,0.0,0.0,0.0,0.0,0.0,0.0,0.0,0.0,0.0,0.0,0.0,0.0,0.0,0.0,0.0,0.0,0.0,0.0,0.0,0.0,0.0,0.0,0.0,0.0,0.0,0.0,0.0,0.0,0.0,0.0,0.0,0.0,0.0,0.0,0.0,0.0,0.0,0.0,0.0,0.0,0.0,0.0,-5.2316,-5.161,-5.0961,-5.0725,-5.0288,-4.9624,-4.9488,-4.959,-5.0046,0.0,0.0,0.0,0.0,0.0,0.0,0.0,0.0,0.0,0.0,0.0,0.0,0.0,0.0,0.0,0.0,0.0,0.0,0.0,0.0,0.0,0.0,0.0,0.0,0.0,0.0,0.0,0.0,0.0,0.0,0.0,0.0,0.0,0.0,0.0,0.0,0.0,0.0,-5.5366,-5.5354,0.0,0.0,0.0,0.0,0.0,0.0,0.0,0.0,-5.5229,0.0,0.0,0.0,0.0,0.0,0.0,0.0,0.0,0.0,0.0,0.0,0.0,0.0,0.0,0.0,0.0,0.0,0.0,0.0,0.0,0.0,0.0,0.0,0.0,0.0,0.0,0.0,0.0,0.0,0.0,0.0,0.0,0.0,0.0,0.0,0.0,0.0,0.0,0.0,0.0,0.0,0.0,0.0,0.0,0.0,0.0,0.0,0.0,0.0,0.0,0.0,0.0,0.0,0.0,0.0,0.0,-5.1836,-5.1055,-5.055,-5.0272,-4.9647,-4.9243,-4.9107,-4.9094,-4.9185,-4.9381,0.0,0.0,0.0,0.0,0.0,0.0,0.0,0.0,0.0,0.0,0.0,0.0,0.0,0.0,0.0,0.0,0.0,0.0,0.0,0.0,0.0,0.0,0.0,0.0,0.0,0.0,0.0,0.0,0.0,0.0,0.0,0.0,0.0,0.0,0.0,0.0,0.0,0.0,0.0,-5.4728,-5.4714,0.0,0.0,0.0,0.0,0.0,0.0,0.0,0.0,-5.4821,0.0,0.0,0.0,0.0,0.0,0.0,0.0,0.0,0.0,0.0,0.0,0.0,0.0,0.0,0.0,0.0,0.0,0.0,0.0,0.0,0.0,0.0,0.0,0.0,0.0,0.0,0.0,0.0,0.0,0.0,0.0,0.0,0.0,0.0,0.0,0.0,0.0,0.0,0.0,0.0,0.0,0.0,0.0,0.0,0.0,0.0,0.0,0.0,0.0,0.0,0.0,0.0,0.0,0.0,0.0,-5.0735,-5.0057,-4.9636,-4.9509,-4.9187,-4.9018,-4.9018,-4.9018,-4.9032,0.0,0.0,0.0,0.0,0.0,0.0,0.0,0.0,0.0,0.0,0.0,0.0,0.0,0.0,0.0,0.0,0.0,0.0,0.0,0.0,0.0,0.0,0.0,0.0,0.0,0.0,0.0,0.0,0.0,0.0,0.0,0.0,0.0,0.0,0.0,0.0,0.0,0.0,0.0,0.0,-5.4271,-5.4271,-5.4318,0.0,0.0,0.0,0.0,0.0,0.0,-5.4303,-5.435,0.0,0.0,0.0,0.0,0.0,0.0,0.0,0.0,0.0,0.0,0.0,0.0,0.0,0.0,0.0,0.0,0.0,0.0,0.0,0.0,0.0,0.0,0.0,0.0,0.0,0.0,0.0,0.0,0.0,0.0,0.0,0.0,0.0,0.0,0.0,0.0,0.0,0.0,0.0,0.0,0.0,0.0,0.0,0.0,0.0,0.0,0.0,0.0,0.0,0.0,0.0,0.0,0.0,0.0,0.0,-4.9816,-4.9289,-4.9018,-4.9018,-4.9018,-4.9018,-4.9018,-4.9018,-4.9018,0.0,0.0,0.0,0.0,0.0,0.0,0.0,0.0,0.0,0.0,0.0,0.0,0.0,0.0,0.0,0.0,0.0,0.0,0.0,0.0,0.0,0.0,0.0,0.0,0.0,0.0,0.0,0.0,0.0,0.0,0.0,0.0,0.0,0.0,0.0,0.0,0.0,0.0,0.0,0.0,0.0,-5.3866,-5.3882,-5.3882,0.0,0.0,0.0,0.0,-5.3882,-5.3915,0.0,0.0,0.0,0.0,0.0,0.0,0.0,0.0,0.0,0.0,0.0,0.0,0.0,0.0,0.0,0.0,0.0,0.0,0.0,0.0,0.0,0.0,0.0,0.0,0.0,0.0,0.0,0.0,0.0,0.0,0.0,0.0,0.0,0.0,0.0,0.0,0.0,0.0,0.0,0.0,0.0,0.0,0.0,0.0,0.0,0.0,0.0,0.0,0.0,0.0,0.0,0.0,0.0,0.0,0.0,0.0,-4.9001,-4.9007,-4.9018,-4.9018,-4.9001,-4.9018,-4.9018,-4.9018,-4.9018,0.0,0.0,0.0,0.0,0.0,0.0,0.0,0.0,0.0,0.0,0.0,0.0,0.0,0.0,0.0,0.0,0.0,0.0,0.0,0.0,0.0,0.0,0.0,0.0,0.0,0.0,0.0,0.0,0.0,0.0,0.0,0.0,0.0,0.0,0.0,0.0,0.0,0.0,0.0,0.0,0.0,-5.3349,-5.3433,-5.3467,-5.3534,0.0,0.0,-5.3467,-5.3467,-5.3634,0.0,0.0,0.0,0.0,0.0,0.0,0.0,0.0,0.0,0.0,0.0,0.0,0.0,0.0,0.0,0.0,0.0,0.0,0.0,0.0,0.0,0.0,0.0,0.0,0.0,0.0,0.0,0.0,0.0,0.0,0.0,0.0,0.0,0.0,0.0,0.0,0.0,0.0,0.0,0.0,0.0,0.0,0.0,0.0,0.0,0.0,0.0,0.0,0.0,0.0,0.0,0.0,0.0,0.0,0.0,-4.8642,-4.8357,-4.8421,-4.8436,-4.8436,-4.85,-4.8547,-4.8547,-4.8753,-4.8832,0.0,0.0,0.0,0.0,0.0,0.0,0.0,0.0,0.0,0.0,0.0,0.0,0.0,0.0,0.0,0.0,0.0,0.0,0.0,0.0,0.0,0.0,0.0,0.0,0.0,0.0,0.0,0.0,0.0,0.0,0.0,0.0,0.0,0.0,0.0,0.0,0.0,0.0,0.0,0.0,0.0,0.0,-5.163,-5.1563,0.0,0.0,0.0,-5.1749,-5.1749,0.0,0.0,0.0,0.0,0.0,0.0,0.0,0.0,0.0,0.0,0.0,0.0,0.0,0.0,0.0,0.0,0.0,0.0,0.0,0.0,0.0,0.0,0.0,0.0,0.0,0.0,0.0,0.0,0.0,0.0,0.0,0.0,0.0,0.0,0.0,0.0,0.0,0.0,0.0,0.0,0.0,0.0,0.0,0.0,0.0,0.0,0.0,0.0,0.0,0.0,0.0,0.0,0.0,0.0,0.0,0.0,0.0,-4.777,-4.782,-4.7853,-4.7869,-4.7951,-4.8033,-4.8065,-4.8373,0.0,0.0,0.0,0.0,0.0,0.0,0.0,0.0,0.0,0.0,0.0,0.0,0.0,0.0,0.0,0.0,0.0,0.0,0.0,0.0,0.0,0.0,0.0,0.0,0.0,0.0,0.0,-5.0725,0.0,0.0,0.0,0.0,0.0,0.0,0.0,0.0,0.0,0.0,0.0,0.0,0.0,0.0,-5.061,-5.0048,-5.0096,-5.0177,0.0,0.0,-5.0618,-5.047,-5.0793,-5.0978,0.0,0.0,0.0,0.0,0.0,0.0,0.0,0.0,0.0,0.0,0.0,0.0,0.0,0.0,0.0,0.0,0.0,0.0,0.0,0.0,0.0,0.0,0.0,0.0,0.0,0.0,0.0,0.0,0.0,0.0,0.0,0.0,0.0,0.0,0.0,0.0,0.0,0.0,0.0,0.0,0.0,0.0,0.0,0.0,0.0,0.0,0.0,0.0,0.0,0.0,0.0,0.0,0.0,0.0,-4.7152,-4.7152,-4.7337,-4.7404,-4.7438,-4.7438,-4.7555,-4.7737,-4.777,-4.7836,0.0,0.0,0.0,0.0,0.0,0.0,0.0,0.0,0.0,0.0,0.0,0.0,0.0,0.0,0.0,0.0,0.0,0.0,0.0,0.0,0.0,0.0,0.0,0.0,0.0,0.0,0.0,0.0,0.0,0.0,0.0,0.0,0.0,0.0,0.0,0.0,0.0,0.0,0.0,0.0,0.0,-4.9407,-4.9358,-4.9766,-5.0095,0.0,0.0,-5.0879,-5.0379,-5.0782,-5.1054,-5.0576,0.0,0.0,0.0,0.0,0.0,0.0,0.0,0.0,0.0,0.0,0.0,0.0,0.0,0.0,0.0,0.0,0.0,0.0,0.0,0.0,0.0,0.0,0.0,0.0,0.0,0.0,0.0,0.0,0.0,0.0,0.0,0.0,0.0,0.0,0.0,0.0,0.0,0.0,0.0,0.0,0.0,0.0,0.0,0.0,0.0,0.0,0.0,0.0,0.0,0.0,0.0,0.0,0.0,-4.6182,-4.604,-4.6005,-4.5969,-4.6005,-4.6234,-4.6375,-4.6445,-4.6896,-4.7134,0.0,0.0,0.0,0.0,0.0,0.0,0.0,0.0,0.0,0.0,0.0,0.0,0.0,0.0,0.0,0.0,0.0,0.0,0.0,0.0,0.0,0.0,0.0,0.0,0.0,0.0,0.0,0.0,-4.6762,-4.6269,-4.6076,0.0,0.0,0.0,0.0,0.0,0.0,0.0,0.0,0.0,0.0,-4.7419,-4.6989,-4.731,0.0,0.0,-4.8417,-4.8972,-4.8887,-4.939,-4.972,-4.9597,-4.9653,0.0,0.0,0.0,0.0,0.0,0.0,0.0,0.0,0.0,0.0,0.0,0.0,0.0,0.0,0.0,0.0,0.0,0.0,0.0,0.0,0.0,0.0,0.0,0.0,0.0,0.0,0.0,0.0,0.0,0.0,0.0,0.0,0.0,0.0,0.0,0.0,0.0,0.0,0.0,0.0,0.0,0.0,0.0,0.0,0.0,0.0,0.0,0.0,0.0,0.0,0.0,0.0,-4.5384,-4.5274,-4.5052,-4.494,-4.494,-4.5237,-4.5384,-4.5442,-4.5933,-4.6182,0.0,0.0,0.0,0.0,0.0,0.0,0.0,0.0,0.0,0.0,0.0,0.0,0.0,0.0,0.0,0.0,0.0,0.0,0.0,0.0,0.0,0.0,0.0,0.0,0.0,0.0,0.0,0.0,-4.5676,-4.5348,-4.5274,0.0,0.0,0.0,0.0,0.0,0.0,0.0,0.0,0.0,0.0,-4.5825,-4.5506,-4.5863,-4.6222,-4.6439,-4.7263,-4.7911,-4.7977,-4.8439,-4.8769,-4.8703,0.0,0.0,0.0,0.0,0.0,0.0,0.0,0.0,0.0,0.0,0.0,0.0,0.0,0.0,0.0,0.0,0.0,0.0,0.0,0.0,0.0,0.0,0.0,0.0,0.0,0.0,0.0,0.0,0.0,0.0,-4.9491,0.0,0.0,0.0,0.0,0.0,0.0,0.0,0.0,0.0,0.0,0.0,0.0,0.0,0.0,0.0,0.0,0.0,0.0,0.0,0.0,0.0,0.0,-4.4896,-4.4927,-4.4685,-4.4572,-4.461,-4.461,-4.4708,-4.4812,-4.4849,-4.4924,-4.5147,0.0,0.0,0.0,0.0,0.0,0.0,0.0,0.0,0.0,0.0,0.0,0.0,0.0,0.0,0.0,0.0,0.0,0.0,0.0,0.0,0.0,0.0,0.0,0.0,0.0,0.0,-4.5247,-4.4874,-4.4685,0.0,0.0,0.0,0.0,0.0,0.0,0.0,0.0,0.0,0.0,-4.5292,-4.4887,-4.5503,-4.5969,-4.6467,-4.7155,-4.7854,-4.8203,-4.7908,-4.8254,-4.8395,0.0,0.0,0.0,0.0,0.0,0.0,0.0,0.0,0.0,0.0,0.0,0.0,0.0,0.0,0.0,0.0,0.0,0.0,0.0,0.0,0.0,0.0,0.0,0.0,0.0,0.0,0.0,-4.7274,-4.7129,0.0,0.0,0.0,0.0,0.0,0.0,0.0,0.0,0.0,0.0,0.0,-4.4412,-4.4412,0.0,0.0,0.0,0.0,0.0,0.0,0.0,0.0,0.0,0.0,0.0,0.0,-4.4358,-4.4089,-4.384,-4.3723,-4.3762,-4.3895,-4.4011,-4.4073,-4.4343,-4.4556,-4.473,0.0,0.0,0.0,0.0,0.0,0.0,0.0,0.0,0.0,0.0,0.0,0.0,0.0,0.0,0.0,0.0,0.0,0.0,0.0,0.0,0.0,0.0,0.0,0.0,0.0,-4.461,0.0,0.0,0.0,0.0,0.0,0.0,0.0,0.0,0.0,0.0,0.0,-4.4687,-4.4918,-4.438,-4.4215,-4.4868,-4.5319,-4.586,0.0,0.0,0.0,0.0,0.0,0.0,0.0,0.0,0.0,0.0,0.0,0.0,0.0,0.0,-4.8851,-4.9189,-4.9457,-4.9576,-4.9308,0.0,0.0,0.0,0.0,0.0,0.0,0.0,0.0,0.0,0.0,0.0,0.0,0.0,0.0,-4.5109,0.0,-4.4889,0.0,0.0,0.0,0.0,0.0,0.0,0.0,0.0,-4.3972,-4.3895,-4.3738,-4.3738,-4.3856,0.0,-4.4035,-4.4266,0.0,0.0,0.0,0.0,0.0,0.0,0.0,0.0,-4.3934,-4.3675,-4.3438,-4.3305,-4.329,-4.3478,-4.3557,-4.3557,-4.3817,-4.405,-4.4266,-4.4281,-4.4396,0.0,0.0,0.0,0.0,0.0,0.0,0.0,0.0,0.0,0.0,0.0,0.0,0.0,0.0,0.0,0.0,0.0,0.0,0.0,0.0,0.0,0.0,0.0,-4.4089,0.0,0.0,0.0,0.0,0.0,0.0,0.0,0.0,0.0,-4.4549,-4.4266,-4.4104,-4.4104,-4.3989,-4.4128,-4.4759,0.0,0.0,0.0,0.0,0.0,0.0,0.0,-4.8133,-4.837,-4.8385,-4.837,-4.837,-4.8427,-4.837,-4.8412,0.0,0.0,-4.9072,-4.9153,-4.9072,-4.8836,-4.878,-4.8795,-4.878,-4.878,-4.8877,0.0,0.0,0.0,0.0,0.0,0.0,0.0,0.0,-4.3708,-4.3903,0.0,-4.4135,0.0,0.0,0.0,0.0,0.0,-4.3354,0.0,0.0,-4.325,-4.325,-4.321,-4.325,-4.3354,-4.3512,-4.3551,-4.3684,-4.3949,-4.4112,0.0,0.0,0.0,0.0,0.0,0.0,-4.369,-4.369,-4.3423,-4.3305,-4.3305,-4.3305,-4.3305,-4.3305,-4.3305,-4.3423,-4.3675,-4.369,-4.3793,-4.3988,-4.4166,0.0,0.0,0.0,0.0,0.0,0.0,0.0,0.0,0.0,0.0,0.0,0.0,0.0,0.0,0.0,0.0,0.0,0.0,0.0,0.0,-4.391,0.0,0.0,0.0,0.0,0.0,0.0,0.0,0.0,0.0,0.0,-4.3949,-4.3793,-4.3705,-4.372,0.0,0.0,0.0,0.0,-4.6503,-4.7204,-4.7309,-4.7396,-4.7553,-4.7581,-4.7666,-4.7922,0.0,0.0,-4.7964,-4.7964,-4.7964,-4.7964,-4.7964,-4.8049,-4.826,-4.8286,-4.8244,-4.8049,-4.8007,-4.798,-4.798,-4.8007,-4.8091,-4.3189,0.0,0.0,0.0,0.0,-4.3115,-4.314,-4.3115,-4.318,-4.3354,-4.3488,-4.3566,0.0,0.0,0.0,0.0,0.0,0.0,-4.2415,-4.2143,-4.2143,-4.2046,-4.1879,-4.2046,-4.2184,-4.2266,-4.2566,-4.2688,-4.2578,-4.2955,-4.3369,-4.3708,0.0,0.0,0.0,0.0,-4.3423,-4.3423,-4.3329,-4.3305,-4.3305,-4.3305,-4.3305,-4.3305,-4.3305,-4.3344,-4.3423,-4.3423,-4.3557,-4.3769,-4.3847,0.0,0.0,0.0,0.0,0.0,0.0,0.0,0.0,0.0,0.0,0.0,0.0,0.0,0.0,0.0,0.0,0.0,0.0,0.0,-4.3871,-4.3596,-4.3369,0.0,0.0,0.0,0.0,0.0,0.0,0.0,0.0,0.0,-4.3503,-4.3463,-4.3588,0.0,0.0,-4.4736,-4.5873,-4.6187,-4.6561,-4.7204,-4.7309,0.0,0.0,-4.7381,-4.7424,-4.7467,-4.751,-4.751,-4.751,-4.751,-4.751,-4.751,-4.751,-4.751,-4.7596,-4.7709,-4.7709,-4.7553,-4.751,-4.751,-4.751,-4.751,-4.7553,-4.2433,-4.2662,-4.2799,-4.2743,-4.2581,-4.2622,-4.2662,-4.2662,-4.2729,-4.2769,-4.2809,-4.2795,-4.2633,-4.2348,-4.2061,0.0,0.0,0.0,-4.1521,-4.1311,-4.1325,-4.1226,-4.1085,-4.1226,-4.1353,-4.1451,-4.1688,-4.1813,-4.1728,-4.2129,-4.2444,-4.2714,0.0,0.0,-4.305,-4.313,-4.3155,-4.317,-4.325,-4.3305,-4.3305,-4.3305,-4.3305,-4.3305,-4.3305,-4.3305,-4.3305,-4.3305,-4.3384,-4.3503,-4.3557,-4.3636,0.0,0.0,0.0,0.0,0.0,0.0,0.0,0.0,0.0,0.0,0.0,-4.4151,-4.4035,0.0,0.0,0.0,-4.3793,-4.366,-4.3557,-4.3369,0.0,0.0,0.0,0.0,0.0,0.0,0.0,-4.3305,-4.3305,-4.3305,-4.3305,-4.3305,-4.3529,-4.4227,-4.4526,-4.5095,-4.613,0.0,-4.6845,-4.7249,-4.7309,-4.7309,-4.7309,-4.7309,-4.7309,-4.7309,-4.7309,-4.7309,-4.7309,-4.7309,-4.7309,-4.7309,-4.7309,-4.7309,-4.7309,-4.7381,-4.7424,-4.7309,-4.7309,-4.7309,-4.7309,-4.7309,-4.7352,-4.1968,-4.1982,-4.2009,-4.2119,-4.2366,-4.2175,-4.2092,-4.2092,-4.2284,-4.2172,-4.1951,-4.1937,-4.1688,-4.1269,-4.0787,0.0,-4.0602,-4.0559,-4.0559,-4.053,-4.053,-4.0473,-4.0473,-4.0473,-4.0588,-4.0774,-4.0816,-4.093,-4.1127,-4.1423,-4.1493,-4.1311,-4.2131,-4.2566,-4.2648,-4.2795,-4.29,-4.2955,-4.313,-4.321,-4.325,-4.325,-4.3265,-4.3305,-4.329,-4.329,-4.329,-4.329,-4.325,-4.325,-4.325,-4.3384,-4.3596,0.0,0.0,0.0,0.0,0.0,0.0,0.0,0.0,0.0,0.0,0.0,0.0,0.0,0.0,0.0,-4.3423,0.0,-4.3305,-4.3305,0.0,0.0,0.0,-4.3305,-4.3305,-4.3305,-4.3305,-4.3305,0.0,0.0,-4.3305,-4.3305,-4.3544,-4.4261,-4.4915,-4.5559,-4.6249,-4.6877,-4.7251,-4.7266,-4.7266,-4.7266,-4.7222,-4.7222,-4.7222,-4.7266,-4.7266,-4.7266,-4.7309,-4.7309,-4.7309,-4.7309,-4.7309,-4.7309,-4.7309,-4.7294,-4.7309,-4.7309,-4.7309,-4.7309,-4.7309,-4.7309,-4.7309,-4.1043,-4.1057,-4.1043,-4.148,-4.216,-4.2133,-4.2092,-4.2092,-4.1924,-4.1758,-4.1549,-4.1353,-4.093,-4.03,-3.9834,-3.9601,-3.9615,-3.9411,-3.9234,-3.9083,-3.8877,-3.8684,-3.849,-3.8684,-3.8819,-3.8908,-3.9428,-3.9648,-3.9502,-4.0258,-4.0531,-4.0386,-4.0901,-4.1451,-4.1895,-4.1978,-4.2184,-4.2555,-4.2596,-4.2718,-4.2809,-4.285,-4.2915,-4.3061,-4.3076,-4.3076,-4.3076,-4.3076,-4.2996,-4.285,-4.285,-4.289,-4.2945,-4.2945,0.0,0.0,0.0,0.0,0.0,0.0,0.0,0.0,0.0,-4.2784,-4.289,0.0,-4.3105,0.0,-4.3329,-4.3305,-4.3305,-4.3305,0.0,0.0,-4.3305,-4.3305,-4.3305,-4.3305,-4.3305,-4.3305,-4.3305,-4.3305,-4.3305,-4.3305,-4.3683,-4.4709,-4.5102,-4.5708,-4.686,-4.7001,-4.6975,-4.6975,-4.6844,-4.6785,-4.6771,-4.6771,-4.6815,-4.6975,-4.696,-4.7077,-4.7266,-4.7309,-4.7309,-4.7309,-4.7309,-4.7309,-4.7309,-4.7309,-4.7309,-4.7309,-4.7309,-4.7309,-4.7309,-4.7309,-4.7309,-4.0702,-4.0702,-4.0702,-4.1001,-4.148,-4.148,-4.148,-4.148,-4.1325,-4.1114,-4.0845,-4.0315,-3.9749,-3.9189,-3.8832,-3.8639,-3.8594,-3.8504,-3.8323,-3.8258,-3.8109,-3.7959,-3.7808,-3.7959,-3.8004,-3.805,-3.8445,-3.8581,-3.8432,-3.9073,-3.9295,-3.9234,-3.9675,-4.0112,-4.0474,-4.1085,-4.1521,-4.1785,-4.2007,-4.2172,-4.224,-4.2348,-4.2511,-4.2729,-4.2618,-4.2618,-4.2714,-4.2618,-4.2496,-4.2389,-4.2389,-4.2374,-4.2374,-4.2389,-4.2281,0.0,0.0,0.0,0.0,0.0,0.0,0.0,0.0,0.0,0.0,0.0,-4.2389,-4.2714,-4.2714,-4.2699,-4.2699,-4.2699,-4.2754,-4.2905,-4.2905,-4.2945,-4.301,-4.2945,-4.2905,-4.2905,-4.2905,-4.285,-4.2754,-4.2915,-4.3301,-4.4032,-4.4541,-4.5361,-4.6649,-4.6756,-4.6565,-4.6432,-4.6299,-4.6254,-4.6254,-4.6254,-4.6314,-4.6373,-4.6417,-4.6506,-4.6756,-4.68,-4.6887,-4.7062,-4.7121,-4.7164,-4.7266,-4.7309,-4.7309,-4.7309,-4.7309,-4.7309,-4.7309,-4.7534,-4.7743,-4.0343,-4.0329,-4.0343,-4.0329,-4.0329,-4.0343,-4.0473,-4.0702,-4.0659,-4.0416,-4.0041,-3.9176,-3.8504,-3.8076,-3.7821,-3.7717,-3.773,-3.7684,-3.7671,-3.7671,-3.7625,-3.7625,-3.7625,-3.7625,-3.7638,-3.7638,-3.7625,-3.7671,-3.7684,-3.7972,-3.8122,-3.8122,-3.8549,-3.876,-3.8805,-3.9984,-4.0688,-4.0873,-4.1296,-4.1521,-4.1563,-4.1715,-4.1964,-4.2213,-4.1978,-4.1978,-4.2199,-4.202,-4.1867,-4.184,-4.1811,-4.1784,-4.1784,-4.1728,-4.159,0.0,-4.1156,0.0,0.0,0.0,0.0,0.0,0.0,0.0,0.0,-4.1451,-4.1673,-4.1867,-4.1908,-4.1908,-4.1908,-4.1908,-4.2005,-4.2254,-4.2254,-4.2336,-4.247,-4.2377,-4.2254,-4.231,-4.231,-4.2199,-4.2087,-4.2348,-4.2679,-4.2976,-4.3658,-4.4603,-4.5859,-4.6062,-4.5927,-4.5642,-4.5551,-4.5415,-4.5461,-4.5506,-4.5506,-4.5611,-4.5597,-4.5732,-4.6076,-4.6165,-4.6299,-4.6712,-4.6844,-4.6931,-4.7164,-4.7207,-4.7266,-4.7266,-4.7355,-4.7474,-4.7519,-4.7863,-4.8282,-3.8355,-3.8355,-3.8355,-3.8355,-3.8355,-3.8355,-3.9251,-4.0645,-4.03,-3.9689,-3.889,-3.8349,-3.7939,-3.7598,-3.7341,-3.7248,-3.7188,-3.7002,-3.6896,-3.6896,-3.6722,-3.6675,-3.6675,-3.6675,-3.6675,-3.6675,-3.6803,-3.6896,-3.6943,-3.7387,-3.7631,-3.7631,-3.788,-3.7991,-3.8037,0.0,0.0,0.0,-4.0445,-4.0659,-4.0859,-4.0944,-4.1057,-4.1269,-4.1198,0.0,-4.1254,-4.1212,-4.1128,-4.0944,-4.0745,0.0,0.0,0.0,0.0,0.0,0.0,0.0,0.0,0.0,0.0,0.0,-3.8296,-3.8912,-4.01,-4.076,-4.117,-4.1198,-4.1352,-4.1421,-4.1421,-4.1421,-4.1463,-4.1519,-4.1519,-4.1519,-4.1561,-4.1534,-4.1576,-4.1827,-4.1827,-4.1854,-4.1949,-4.2087,-4.2196,-4.2366,-4.2969,-4.3568,-4.4013,-4.4781,-4.5081,-4.4698,-4.428,-4.4106,-4.4308,-4.4167,-4.4308,-4.468,-4.4712,-4.4851,-4.5444,-4.5747,-4.5972,-4.6299,-4.6506,-4.6639,-4.6727,-4.6858,-4.6975,-4.696,-4.7582,-4.8102,-4.8102,-4.8192,-4.8431,-3.7808,0.0,-3.7808,-3.7808,0.0,-3.7808,-3.8355,-3.9251,-3.9042,-3.8575,-3.8057,-3.7677,-3.7341,-3.7108,-3.6828,-3.6781,-3.6734,-3.664,-3.6546,-3.6534,-3.6465,-3.6417,-3.6417,-3.6417,-3.6417,-3.6417,-3.6487,-3.6546,-3.6581,-3.6828,-3.6981,-3.6934,-3.7129,-3.7256,-3.7256,-3.7407,-3.79,-3.8908,-3.9278,-3.9543,-3.9645,-3.9865,-4.0112,-4.0301,0.0,0.0,0.0,0.0,0.0,0.0,0.0,0.0,0.0,0.0,0.0,-3.9087,-3.922,-3.8953,-3.8304,-3.8239,-3.8031,-3.7513,-3.7466,-3.7913,-3.8957,-3.9489,-3.9738,-3.9738,-3.9855,-3.9899,-3.9899,-3.9885,-4.0015,-4.0202,-4.0246,-4.0346,-4.0603,-4.0546,-4.0503,-4.0645,-4.0745,-4.0887,-4.0802,-4.117,-4.1284,-4.1253,-4.2054,-4.2669,-4.2596,-4.3547,-4.4153,-4.3695,-4.3328,-4.3149,-4.3389,-4.3328,-4.3328,-4.3709,-4.3804,-4.4087,-4.4648,-4.494,-4.5261,-4.573,-4.5956,-4.609,-4.6358,-4.658,-4.6903,-4.7347,-4.7866,-4.8551,-4.9045,-4.9239,-4.9344,-3.7533,-3.7546,-3.7546,-3.7533,-3.7546,-3.7533,-3.7533,-3.7592,0.0,0.0,0.0,-3.7108,-3.6862,-3.6628,-3.6452,-3.6417,-3.6417,-3.6417,-3.6417,-3.6417,-3.6417,-3.6417,-3.6417,-3.6417,-3.6417,-3.6417,-3.6417,-3.6417,-3.6417,-3.6417,-3.6417,-3.6417,-3.6581,-3.6628,-3.6675,-3.6862,-3.7188,-3.7533,-3.8135,-3.8421,-3.8498,-3.8845,-3.91,-3.9295,-3.9145,-3.91,-3.9295,-3.9131,-3.9024,-3.9024,-3.8787,-3.8652,-3.8639,-3.8594,-3.8504,-3.8362,-3.8472,-3.8323,-3.7756,-3.7664,-3.7479,-3.7015,-3.6968,-3.7294,-3.8031,-3.8219,-3.8342,-3.8373,-3.8373,-3.8373,-3.8373,-3.8373,-3.8541,-3.8899,-3.893,-3.9135,-3.953,-3.9486,-3.9384,-3.9428,-3.9719,-3.9807,-3.9662,-4.0156,-4.0343,-4.0104,-4.1028,-4.1865,-4.1682,-4.2596,-4.3184,-4.2763,-4.2435,-4.24,-4.2595,-4.2582,-4.2631,-4.2887,-4.3032,-4.3355,-4.3804,-4.4195,-4.463,-4.529,-4.5413,-4.564,-4.6001,-4.6446,-4.6933,-4.7718,-4.8313,-4.894,-4.9882,-5.0285,-5.033,-3.6628,-3.6581,-3.6593,-3.6593,-3.6593,-3.6593,-3.6593,-3.6628,-3.7261,-3.7261,-3.6815,-3.6769,-3.6628,-3.6465,-3.6405,-3.6417,-3.6417,-3.6417,-3.6417,-3.6417,-3.6417,-3.6417,-3.6417,-3.6417,-3.6417,-3.6417,-3.6417,-3.6417,-3.6417,-3.6417,-3.6417,-3.6417,-3.6392,-3.6452,-3.6452,-3.6452,-3.6546,-3.6581,-3.7307,-3.771,-3.7913,-3.7991,-3.8037,-3.8037,-3.8037,-3.7991,-3.8037,-3.8037,-3.8004,-3.7991,-3.7802,-3.7677,-3.7677,-3.7492,-3.7341,-3.7294,-3.7328,-3.7201,-3.6909,-3.6849,-3.6769,-3.6546,-3.6499,-3.6828,-3.7505,-3.7631,-3.771,-3.7867,-3.79,-3.7887,-3.7887,-3.79,-3.79,-3.7978,-3.7991,-3.8024,-3.8173,-3.8323,-3.8485,-3.8711,-3.9127,-3.938,-3.9292,-3.9543,-3.956,-3.9338,-4.0231,-4.1093,-4.1603,-4.2008,-4.2177,-4.1944,-4.1647,-4.1597,-4.1845,-4.171,-4.1895,-4.2449,-4.2595,-4.297,-4.3662,-4.4101,-4.4551,-4.489,-4.5092,-4.5276,-4.5638,-4.6452,-4.721,-4.7775,-4.8864,-4.9897,-5.0226,-5.0629,-5.1035,-3.6417,-3.6417,-3.6417,-3.6417,-3.6417,-3.6417,-3.6417,-3.6405,-3.6747,-3.6781,-3.6534,-3.6546,-3.6499,-3.6417,-3.6417,-3.6417,-3.6417,-3.6417,-3.6417,-3.6417,-3.6417,-3.6417,-3.6417,-3.6417,-3.6417,-3.6417,-3.6417,-3.6417,-3.6417,-3.6417,-3.6417,-3.6417,-3.6417,-3.6417,-3.6417,-3.6417,-3.6417,-3.6405,-3.6841,-3.7095,-3.7235,-3.7361,-3.742,-3.742,-3.742,-3.7407,-3.742,-3.7407,-3.742,-3.7407,-3.7201,-3.7062,-3.7062,-3.6968,-3.6862,-3.6862,-3.7002,-3.6968,-3.6709,-3.6593,-3.6487,-3.6405,-3.6417,-3.6559,-3.6875,-3.6888,-3.6922,-3.7049,-3.7036,-3.7036,-3.7049,-3.7049,-3.707,-3.7222,-3.7222,-3.7268,-3.742,-3.7526,-3.7664,-3.7802,-3.8089,-3.8304,-3.8317,-3.8504,-3.8626,-3.8597,-3.9634,-4.0808,-4.1732,-4.2029,-4.2029,-4.1746,-4.1597,-4.1597,-4.1696,-4.1597,-4.1782,-4.2373,-4.2714,-4.3184,-4.3851,-4.4303,-4.4551,-4.4876,-4.4954,-4.5281,-4.5984,-4.6729,-4.7546,-4.8768,-4.9459,-5.0255,-5.0644,-5.1035,-5.1199,-3.6417,-3.6417,-3.6417,-3.6417,-3.6417,-3.6417,-3.6417,-3.6417,-3.6417,-3.6417,-3.6417,-3.6417,-3.6417,-3.6417,-3.6417,-3.6417,-3.6417,-3.6417,-3.6417,-3.6417,-3.6417,-3.6417,-3.6417,-3.6417,-3.6417,-3.6417,-3.6417,-3.6417,-3.6417,-3.6417,-3.6417,-3.6417,-3.6417,-3.6417,-3.6417,-3.6417,-3.6417,-3.6417,-3.6534,-3.6615,-3.6628,-3.6828,-3.6922,-3.6922,-3.6922,-3.6968,-3.6922,-3.6968,-3.6922,-3.6922,-3.6734,-3.6628,-3.6615,-3.6628,-3.6628,-3.6675,-3.6828,-3.6862,-3.6615,-3.6499,-3.6417,-3.6417,-3.6417,-3.6417,-3.6417,-3.6417,-3.6417,-3.6417,-3.6452,-3.6417,-3.6465,-3.6465,-3.6452,-3.6628,-3.6628,-3.6722,-3.6922,-3.6968,-3.7015,-3.7062,-3.7307,-3.7505,-3.7446,-3.7618,-3.7906,-3.8437,-3.9354,-4.0473,-4.1603,-4.198,-4.2029,-4.1993,-4.1895,-4.1796,-4.1782,-4.1845,-4.2079,-4.2528,-4.3108,-4.3695,-4.4322,-4.4537,-4.4723,-4.5032,-4.5046,-4.5473,-4.6529,-4.7216,-4.811,-4.9408,-5.0162,-5.0599,-5.1065,-5.1184,-5.1229,-3.6417,-3.6417,-3.6417,-3.6417,-3.6417,-3.6417,-3.6417,-3.6417,-3.6417,-3.6417,-3.6417,-3.6417,-3.6417,-3.6417,-3.6417,-3.6417,-3.6417,-3.6417,-3.6417,-3.6417,-3.6417,-3.6417,-3.6417,-3.6417,-3.6417,-3.6417,-3.6417,-3.6417,-3.6417,-3.6417,-3.6417,-3.6417,-3.6417,-3.6417,-3.6417,-3.6417,-3.6417,-3.6417,-3.6405,-3.6417,-3.6465,-3.6452,-3.6452,-3.6452,-3.6452,-3.6452,-3.6499,-3.6452,-3.6452,-3.6452,-3.6452,-3.6465,-3.6452,-3.6417,-3.6405,-3.6417,-3.6452,-3.6452,-3.6452,-3.6417,-3.6417,-3.6417,-3.6417,-3.6417,-3.6417,-3.6417,-3.6417,-3.6417,-3.6417,-3.6417,-3.6417,-3.6417,-3.6417,-3.6452,-3.6452,-3.6465,-3.6499,-3.664,-3.6709,-3.6769,-3.7168,-3.74,-3.7168,-3.7353,-3.7847,-3.8578,-3.9151,-4.0039,-4.1347,-4.1931,-4.2373,-4.2582,-4.2435,-4.2177,-4.2164,-4.2289,-4.2666,-4.3108,-4.3776,-4.4415,-4.4815,-4.5184,-4.5398,-4.5353,-4.5439,-4.5912,-4.6797,-4.7631,-4.8735,-4.9783,-5.0534,-5.1124,-5.1214,-5.1229,-5.1229,-3.6417,-3.6417,-3.6417,-3.6417,-3.6417,-3.6417,-3.6417,-3.6417,-3.6417,-3.6417,-3.6417,-3.6417,-3.6417,-3.6417,-3.6417,-3.6417,-3.6417,-3.6417,-3.6417,-3.6417,-3.6417,-3.6417,-3.6417,-3.6417,-3.6417,-3.6417,-3.6417,-3.6417,-3.6417,-3.6417,-3.6417,-3.6417,-3.6417,-3.6417,-3.6417,-3.6417,-3.6417,-3.6417,-3.6417,-3.6417,-3.6417,-3.6417,-3.6417,-3.6417,-3.6417,-3.6417,-3.6417,-3.6417,-3.6417,-3.6417,-3.6417,-3.6417,-3.6417,-3.6417,-3.6417,-3.6417,-3.6417,-3.6417,-3.6417,-3.6417,-3.6417,-3.6417,-3.6417,-3.6417,-3.6417,-3.6417,-3.6417,-3.6417,-3.6417,-3.6417,-3.6417,-3.6417,-3.6417,-3.6417,-3.6417,-3.6417,-3.6417,-3.6439,-3.6546,-3.6534,-3.6687,-3.6841,-3.6734,-3.6875,-3.7548,-3.8553,-3.9175,-4.0066,-4.1669,-4.2351,-4.2763,-4.3184,-4.3245,-4.3149,-4.3039,-4.3039,-4.3457,-4.4139,-4.4727,-4.5184,-4.5685,-4.5821,-4.5896,-4.5941,-4.6232,-4.682,-4.7918,-4.8675,-4.9618,-5.0383,-5.076,-5.1229,-5.1229,-5.1229,-5.1229,-3.6417,-3.6417,-3.6417,-3.6417,-3.6417,-3.6417,-3.6417,-3.6417,-3.6417,-3.6417,-3.6417,-3.6417,-3.6417,-3.6417,-3.6417,-3.6417,-3.6417,-3.6417,-3.6417,-3.6417,-3.6417,-3.6417,-3.6417,-3.6417,-3.6417,-3.6417,-3.6417,-3.6417,-3.6417,-3.6417,-3.6417,-3.6417,-3.6417,-3.6417,-3.6417,-3.6417,-3.6417,-3.6417,-3.6417,-3.6417,-3.6417,-3.6417,-3.6417,-3.6417,-3.6417,-3.6417,-3.6417,-3.6417,-3.6417,-3.6417,-3.6417,-3.6417,-3.6417,-3.6417,-3.6417,-3.6417,-3.6417,-3.6417,-3.6417,-3.6417,-3.6417,-3.6417,-3.6417,-3.6417,-3.6417,-3.6417,-3.6417,-3.6417,-3.6417,-3.6417,-3.6417,-3.6417,-3.6417,-3.6417,-3.6417,-3.6417,-3.6417,-3.6417,-3.6417,-3.6417,-3.6452,-3.6417,-3.6452,-3.6606,-3.7222,-3.8531,-3.9332,-4.0364,-4.2065,-4.279,-4.3163,-4.3709,-4.3974,-4.4021,-4.3851,-4.3993,-4.4387,-4.4989,-4.552,-4.5956,-4.6506,-4.6403,-4.6358,-4.6372,-4.699,-4.7669,-4.8443,-4.9337,-5.0158,-5.0881,-5.1229,-5.1229,-5.1229,-5.1229,-5.1229,-3.6417,-3.6417,-3.6417,-3.6417,-3.6417,-3.6417,-3.6417,-3.6417,-3.6417,-3.6417,-3.6417,-3.6417,-3.6417,-3.6417,-3.6417,-3.6417,-3.6417,-3.6417,-3.6417,-3.6417,-3.6417,-3.6417,-3.6417,-3.6417,-3.6417,-3.6417,-3.6417,-3.6417,-3.6417,-3.6417,-3.6417,-3.6417,-3.6417,-3.6417,-3.6417,-3.6417,-3.6417,-3.6417,-3.6417,-3.6417,-3.6417,-3.6417,-3.6417,-3.6417,-3.6417,-3.6417,-3.6417,-3.6417,-3.6417,-3.6417,-3.6417,-3.6417,-3.6417,-3.6417,-3.6417,-3.6417,-3.6417,-3.6417,-3.6417,-3.6417,-3.6417,-3.6417,-3.6417,-3.6417,-3.6417,-3.6417,-3.6417,-3.6417,-3.6417,-3.6417,-3.6417,-3.6417,-3.6417,-3.6417,-3.6417,-3.6417,-3.6417,-3.6417,-3.6417,-3.6417,-3.6417,-3.6417,-3.6417,-3.6593,-3.7371,-3.8573,-3.9499,-4.0686,-4.228,-4.3067,-4.3642,-4.4162,-4.4397,-4.4397,-4.4415,-4.4648,-4.5155,-4.5687,-4.6151,-4.6506,-4.6639,-4.6727,-4.6727,-4.6904,-4.754,-4.8193,-4.8833,-4.9549,-5.0342,-5.0913,-5.1184,-5.1229,-5.1229,-5.1229,-5.1229,-3.6417,-3.6417,-3.6417,-3.6417,-3.6417,-3.6417,-3.6417,-3.6417,-3.6417,-3.6417,-3.6417,-3.6417,-3.6417,-3.6417,-3.6417,-3.6417,-3.6417,-3.6417,-3.6417,-3.6417,-3.6417,-3.6417,-3.6417,-3.6417,-3.6417,-3.6417,-3.6417,-3.6417,-3.6417,-3.6417,-3.6417,-3.6417,-3.6417,-3.6417,-3.6417,-3.6417,-3.6417,-3.6417,-3.6417,-3.6417,-3.6417,-3.6417,-3.6417,-3.6417,-3.6417,-3.6417,-3.6417,-3.6417,-3.6417,-3.6417,-3.6417,-3.6417,-3.6417,-3.6417,-3.6417,-3.6417,-3.6417,-3.6417,-3.6417,-3.6417,-3.6417,-3.6417,-3.6417,-3.6417,-3.6417,-3.6417,-3.6417,-3.6417,-3.6417,-3.6417,-3.6417,-3.6417,-3.6417,-3.6417,-3.6417,-3.6417,-3.6417,-3.6417,-3.6417,-3.6417,-3.6417,-3.6417,-3.6452,-3.6581,-3.739,-3.8999,-4.0023,-4.141,-4.316,-4.4068,-4.4443,-4.4922,-4.5092,-4.523,-4.552,-4.5549,-4.5776,-4.6299,-4.6697,-4.6844,-4.6975,-4.7108,-4.7123,-4.7629,-4.8209,-4.8924,-4.9641,-5.0178,-5.0868,-5.0973,-5.1229,-5.1229,-5.1229,-5.1229,-5.1229,-3.6417,-3.6417,-3.6417,-3.6417,-3.6417,-3.6417,-3.6417,-3.6417,-3.6417,-3.6417,-3.6417,-3.6417,-3.6417,-3.6417,-3.6417,-3.6417,-3.6417,-3.6417,-3.6417,-3.6417,-3.6417,-3.6417,-3.6417,-3.6417,-3.6417,-3.6417,-3.6417,-3.6417,-3.6417,-3.6417,-3.6417,-3.6417,-3.6417,-3.6417,-3.6417,-3.6417,-3.6417,-3.6417,-3.6417,-3.6417,-3.6417,-3.6417,-3.6417,-3.6417,-3.6417,-3.6417,-3.6417,-3.6417,-3.6417,-3.6417,-3.6417,-3.6417,-3.6417,-3.6417,-3.6417,-3.6417,-3.6417,-3.6417,-3.6417,-3.6417,-3.6417,-3.6417,-3.6417,-3.6417,-3.6417,-3.6417,-3.6417,-3.6417,-3.6417,-3.6417,-3.6417,-3.6417,-3.6417,-3.6417,-3.6417,-3.6417,-3.6417,-3.6417,-3.6417,-3.6417,-3.6417,-3.6417,-3.6499,-3.6769,-3.7916,-3.9736,-4.0683,-4.2182,-4.4092,-4.494,-4.523,-4.564,-4.573,-4.5896,-4.6165,-4.6269,-4.6328,-4.68,-4.6931,-4.7106,-4.7327,-4.743,-4.7773,-4.8297,-4.897,-4.9733,-5.0376,-5.0853,-5.1078,-5.1199,-5.1229,-5.1229,-5.1229,-5.1229,-5.1229,-3.6417,-3.6417,-3.6417,-3.6417,-3.6417,-3.6417,-3.6417,-3.6417,-3.6417,-3.6417,-3.6417,-3.6417,-3.6417,-3.6417,-3.6417,-3.6417,-3.6417,-3.6417,-3.6417,-3.6417,-3.6417,-3.6417,-3.6417,-3.6417,-3.6417,-3.6417,-3.6417,-3.6417,-3.6417,-3.6417,-3.6417,-3.6417,-3.6417,-3.6417,-3.6417,-3.6417,-3.6417,-3.6417,-3.6417,-3.6417,-3.6417,-3.6417,-3.6417,-3.6417,-3.6417,-3.6417,-3.6417,-3.6417,-3.6417,-3.6417,-3.6417,-3.6417,-3.6417,-3.6417,-3.6417,-3.6417,-3.6417,-3.6417,-3.6417,-3.6417,-3.6417,-3.6417,-3.6417,-3.6417,-3.6417,-3.6417,-3.6417,-3.6417,-3.6417,-3.6417,-3.6417,-3.6417,-3.6417,-3.6417,-3.6417,-3.6417,-3.6417,-3.6417,-3.6417,-3.6417,-3.6405,-3.6487,-3.6722,-3.7155,-3.8318,-4.024,-4.1562,-4.2845,-4.4718,-4.5535,-4.5882,-4.6106,-4.6165,-4.6299,-4.6609,-4.6931,-4.7033,-4.7207,-4.7207,-4.7281,-4.7565,-4.7758,-4.8252,-4.879,-4.9658,-5.0406,-5.0705,-5.1154,-5.1169,-5.1229,-5.1229,-5.1229,-5.1229,-5.1229,-5.1229,-3.6417,-3.6417,-3.6417,-3.6417,-3.6417,-3.6417,-3.6417,-3.6417,-3.6417,-3.6417,-3.6417,-3.6417,-3.6417,-3.6417,-3.6417,-3.6417,-3.6417,-3.6417,-3.6417,-3.6417,-3.6417,-3.6417,-3.6417,-3.6417,-3.6417,-3.6417,-3.6417,-3.6417,-3.6417,-3.6417,-3.6417,-3.6417,-3.6417,-3.6417,-3.6417,-3.6417,-3.6417,-3.6417,-3.6417,-3.6417,-3.6417,-3.6417,-3.6417,-3.6417,-3.6417,-3.6417,-3.6417,-3.6417,-3.6417,-3.6417,-3.6417,-3.6417,-3.6417,-3.6417,-3.6417,-3.6417,-3.6417,-3.6417,-3.6417,-3.6417,-3.6417,-3.6417,-3.6417,-3.6417,-3.6417,-3.6417,-3.6417,-3.6417,-3.6417,-3.6417,-3.6417,-3.6417,-3.6417,-3.6417,-3.6417,-3.6417,-3.6417,-3.6417,-3.6417,-3.6417,-3.6546,-3.6722,-3.7002,-3.7526,-3.8859,-4.0936,-4.214,-4.3458,-4.5295,-4.6121,-4.6447,-4.6624,-4.6624,-4.6565,-4.6829,-4.7048,-4.718,-4.7372,-4.746,-4.7578,-4.7833,-4.8327,-4.879,-4.9419,-5.0287,-5.0749,-5.1094,-5.1229,-5.1229,-5.1229,-5.1229,-5.1229,-5.1229,-5.1229,-5.1229,-3.6417,-3.6417,-3.6417,-3.6417,-3.6417,-3.6417,-3.6417,-3.6417,-3.6417,-3.6417,-3.6417,-3.6417,-3.6417,-3.6417,-3.6417,-3.6417,-3.6417,-3.6417,-3.6417,-3.6417,-3.6417,-3.6417,-3.6417,-3.6417,-3.6417,-3.6417,-3.6417,-3.6417,-3.6417,-3.6417,-3.6417,-3.6417,-3.6417,-3.6417,-3.6417,-3.6417,-3.6417,-3.6417,-3.6417,-3.6417,-3.6417,-3.6417,-3.6417,-3.6417,-3.6417,-3.6417,-3.6417,-3.6417,-3.6417,-3.6417,-3.6417,-3.6417,-3.6417,-3.6417,-3.6417,-3.6417,-3.6417,-3.6417,-3.6417,-3.6417,-3.6417,-3.6417,-3.6417,-3.6417,-3.6417,-3.6417,-3.6417,-3.6417,-3.6417,-3.6417,-3.6417,-3.6417,-3.6417,-3.6417,-3.6417,-3.6417,-3.6417,-3.6417,-3.6452,-3.6546,-3.6734,-3.7049,-3.7513,-3.8194,-3.9555,-4.155,-4.2782,-4.4021,-4.5815,-4.6653,-4.6887,-4.699,-4.6931,-4.6975,-4.7019,-4.7107,-4.724,-4.7506,-4.7788,-4.7923,-4.8117,-4.891,-4.9523,-5.0137,-5.0915,-5.0975,-5.1229,-5.1229,-5.1229,-5.1229,-5.1229,-5.1229,-5.1229,-5.1229,-5.1229,-3.6417,-3.6417,-3.6417,-3.6417,-3.6417,-3.6417,-3.6417,-3.6417,-3.6417,-3.6417,-3.6417,-3.6417,-3.6417,-3.6417,-3.6417,-3.6417,-3.6417,-3.6417,-3.6417,-3.6417,-3.6417,-3.6417,-3.6417,-3.6417,-3.6417,-3.6417,-3.6417,-3.6417,-3.6417,-3.6417,-3.6417,-3.6417,-3.6417,-3.6417,-3.6417,-3.6417,-3.6417,-3.6417,-3.6417,-3.6417,-3.6417,-3.6417,-3.6417,-3.6417,-3.6417,-3.6417,-3.6417,-3.6417,-3.6417,-3.6417,-3.6417,-3.6417,-3.6417,-3.6417,-3.6417,-3.6417,-3.6417,-3.6417,-3.6417,-3.6417,-3.6417,-3.6417,-3.6417,-3.6417,-3.6417,-3.6417,-3.6417,-3.6417,-3.6417,-3.6417,-3.6417,-3.6417,-3.6417,-3.6417,-3.6417,-3.6417,-3.6417,-3.6417,-3.6499,-3.6675,-3.6956,-3.7433,-3.8109,-3.8845,-4.0398,-4.2254,-4.3501,-4.4749,-4.6181,-4.6975,-4.7222,-4.7266,-4.7164,-4.7164,-4.7164,-4.7164,-4.7357,-4.7864,-4.8192,-4.8536,-4.8775,-4.9568,-5.0106,-5.078,-5.1139,-5.1199,-5.1229,-5.1229,-5.1229,-5.1229,-5.1229,-5.1229,-5.1229,-5.1229,-5.1229,-3.6417,-3.6417,-3.6417,-3.6417,-3.6417,-3.6417,-3.6417,-3.6417,-3.6417,-3.6417,-3.6417,-3.6417,-3.6417,-3.6417,-3.6417,-3.6417,-3.6417,-3.6417,-3.6417,-3.6417,-3.6417,-3.6417,-3.6417,-3.6417,-3.6417,-3.6417,-3.6417,-3.6417,-3.6417,-3.6417,-3.6417,-3.6417,-3.6417,-3.6417,-3.6417,-3.6417,-3.6417,-3.6417,-3.6417,-3.6417,-3.6417,-3.6417,-3.6417,-3.6417,-3.6417,-3.6417,-3.6417,-3.6417,-3.6417,-3.6417,-3.6417,-3.6417,-3.6417,-3.6417,-3.6417,-3.6417,-3.6417,-3.6417,-3.6417,-3.6417,-3.6417,-3.6417,-3.6417,-3.6417,-3.6417,-3.6417,-3.6417,-3.6417,-3.6417,-3.6417,-3.6417,-3.6417,-3.6417,-3.6417,-3.6417,-3.6417,-3.6417,-3.6546,-3.6615,-3.6756,-3.7281,-3.7972,-3.8652,-3.9564,-4.0801,-4.2823,-4.4052,-4.4876,-4.6429,-4.7121,-4.7309,-4.7309,-4.7266,-4.7266,-4.7309,-4.7309,-4.7563,-4.8162,-4.8701,-4.9329,-4.9733,-5.0376,-5.0734,-5.1137,-5.1184,-5.1214,-5.1229,-5.1229,-5.1229,-5.1229,-5.1229,-5.1229,-5.1229,-5.1229,-5.1229,-3.6417,-3.6417,-3.6417,-3.6417,-3.6417,-3.6417,-3.6417,-3.6417,-3.6417,-3.6417,-3.6417,-3.6417,-3.6417,-3.6417,-3.6417,-3.6417,-3.6417,-3.6417,-3.6417,-3.6417,-3.6417,-3.6417,-3.6417,-3.6417,-3.6417,-3.6417,-3.6417,-3.6417,-3.6417,-3.6417,-3.6417,-3.6417,-3.6417,-3.6417,-3.6417,-3.6417,-3.6417,-3.6417,-3.6417,-3.6417,-3.6417,-3.6417,-3.6417,-3.6417,-3.6417,-3.6417,-3.6417,-3.6417,-3.6417,-3.6417,-3.6417,-3.6417,-3.6417,-3.6417,-3.6417,-3.6417,-3.6417,-3.6417,-3.6417,-3.6417,-3.6417,-3.6417,-3.6417,-3.6417,-3.6417,-3.6417,-3.6417,-3.6417,-3.6417,-3.6417,-3.6417,-3.6417,-3.6417,-3.6405,-3.6499,-3.6499,-3.6417,-3.6687,-3.6922,-3.7188,-3.788,-3.8711,-3.9322,-4.035,-4.188,-4.3488,-4.4629,-4.5649,-4.678,-4.7103,-4.7309,-4.7309,-4.7309,-4.7309,-4.7474,-4.7549,-4.8057,-4.8626,-4.9449,-5.0062,-5.0391,-5.0883,-5.1018,-5.1214,-5.1214,-5.1229,-5.1229,-5.1229,-5.1229,-5.1229,-5.1229,-5.1229,-5.1229,-5.1229,-5.1229,-3.6417,-3.6417,-3.6417,-3.6417,-3.6417,-3.6417,-3.6417,-3.6417,-3.6417,-3.6417,-3.6417,-3.6417,-3.6417,-3.6417,-3.6417,-3.6417,-3.6417,-3.6417,-3.6417,-3.6417,-3.6417,-3.6417,-3.6417,-3.6417,-3.6417,-3.6417,-3.6417,-3.6417,-3.6417,-3.6417,-3.6417,-3.6417,-3.6417,-3.6417,-3.6417,-3.6417,-3.6417,-3.6417,-3.6417,-3.6417,-3.6417,-3.6417,-3.6417,-3.6417,-3.6417,-3.6417,-3.6417,-3.6417,-3.6417,-3.6417,-3.6417,-3.6417,-3.6417,-3.6417,-3.6417,-3.6417,-3.6417,-3.6417,-3.6417,-3.6417,-3.6417,-3.6417,-3.6417,-3.6417,-3.6417,-3.6417,-3.6417,-3.6417,-3.6417,-3.6417,-3.6417,-3.6417,-3.6405,-3.6439,-3.6628,-3.6628,-3.6675,-3.6922,-3.7294,-3.7585,-3.8621,-3.9424,-4.0308,-4.1553,-4.3068,-4.3947,-4.5047,-4.6042,-4.6822,-4.7206,-4.7309,-4.7309,-4.7309,-4.7309,-4.7563,-4.7818,-4.8536,-4.9239,-5.0197,-5.081,-5.0825,-5.1139,-5.1169,-5.1229,-5.1229,-5.1229,-5.1229,-5.1229,-5.1229,-5.1229,-5.1229,-5.1229,-5.1229,-5.1229,-5.1229,-3.6417,-3.6417,-3.6417,-3.6417,-3.6417,-3.6417,-3.6417,-3.6417,-3.6417,-3.6417,-3.6417,-3.6417,-3.6417,-3.6417,-3.6417,-3.6417,-3.6417,-3.6417,-3.6417,-3.6417,-3.6417,-3.6417,-3.6417,-3.6417,-3.6417,-3.6417,-3.6417,-3.6417,-3.6417,-3.6417,-3.6417,-3.6417,-3.6417,-3.6417,-3.6417,-3.6417,-3.6417,-3.6417,-3.6417,-3.6417,-3.6417,-3.6417,-3.6417,-3.6417,-3.6417,-3.6417,-3.6417,-3.6417,-3.6417,-3.6417,-3.6417,-3.6417,-3.6417,-3.6417,-3.6417,-3.6417,-3.6417,-3.6417,-3.6417,-3.6417,-3.6417,-3.6417,-3.6417,-3.6417,-3.6417,-3.6417,-3.6417,-3.6417,-3.6417,-3.6417,-3.6417,-3.6417,-3.6452,-3.6581,-3.6862,-3.7142,-3.7407,-3.7651,-3.7848,-3.82,-3.8953,-3.9793,-4.0501,-4.1882,-4.3268,-4.4391,-4.5409,-4.6362,-4.6821,-4.7279,-4.7309,-4.7309,-4.7309,-4.7324,-4.7534,-4.8027,-4.8985,-4.9718,-5.0661,-5.1199,-5.1214,-5.1229,-5.1229,-5.1229,-5.1229,-5.1229,-5.1229,-5.1229,-5.1229,-5.1229,-5.1229,-5.1229,-5.1229,-5.1229,-5.1229,-3.6417,-3.6417,-3.6417,-3.6417,-3.6417,-3.6417,-3.6417,-3.6417,-3.6417,-3.6417,-3.6417,-3.6417,-3.6417,-3.6417,-3.6417,-3.6417,-3.6417,-3.6417,-3.6417,-3.6417,-3.6417,-3.6417,-3.6417,-3.6417,-3.6417,-3.6417,-3.6417,-3.6417,-3.6417,-3.6417,-3.6417,-3.6417,-3.6417,-3.6417,-3.6417,-3.6417,-3.6417,-3.6417,-3.6417,-3.6417,-3.6417,-3.6417,-3.6417,-3.6417,-3.6417,-3.6417,-3.6417,-3.6417,-3.6417,-3.6417,-3.6417,-3.6417,-3.6417,-3.6417,-3.6417,-3.6417,-3.6417,-3.6417,-3.6417,-3.6417,-3.6417,-3.6417,-3.6417,-3.6417,-3.6417,-3.6417,-3.6417,-3.6417,-3.6417,-3.6417,-3.6417,-3.6417,-3.6499,-3.6709,-3.7142,-3.7638,-3.8069,-3.8368,-3.8666,-3.9042,-3.9954,-4.0617,-4.1482,-4.2578,-4.3609,-4.4832,-4.6055,-4.6939,-4.6954,-4.7309,-4.7309,-4.7309,-4.7309,-4.7369,-4.7549,-4.8222,-4.9389,-5.0152,-5.0915,-5.1199,-5.1229,-5.1229,-5.1229,-5.1229,-5.1229,-5.1229,-5.1229,-5.1229,-5.1229,-5.1229,-5.1229,-5.1229,-5.1229,-5.1229,-5.1229,-3.6417,-3.6417,-3.6417,-3.6417,-3.6417,-3.6417,-3.6417,-3.6417,-3.6417,-3.6417,-3.6417,-3.6417,-3.6417,-3.6417,-3.6417,-3.6417,-3.6417,-3.6417,-3.6417,-3.6417,-3.6417,-3.6417,-3.6417,-3.6417,-3.6417,-3.6417,-3.6417,-3.6417,-3.6417,-3.6417,-3.6417,-3.6417,-3.6417,-3.6417,-3.6417,-3.6417,-3.6417,-3.6417,-3.6417,-3.6417,-3.6417,-3.6417,-3.6417,-3.6417,-3.6417,-3.6417,-3.6417,-3.6417,-3.6417,-3.6417,-3.6417,-3.6417,-3.6417,-3.6417,-3.6417,-3.6417,-3.6417,-3.6417,-3.6417,-3.6417,-3.6417,-3.6417,-3.6417,-3.6417,-3.6417,-3.6417,-3.6417,-3.6417,-3.6417,-3.6417,-3.6417,-3.6417,-3.6546,-3.6862,-3.7453,-3.8082,-3.8747,-3.9264,-3.9675,-3.9911,-4.0674,-4.1423,-4.2301,-4.3314,-4.429,-4.5236,-4.6463,-4.7309,-4.7309,-4.7309,-4.7309,-4.7309,-4.7309,-4.7863,-4.8132,-4.8356,-4.9523,-5.0451,-5.1184,-5.1199,-5.1229,-5.1229,-5.1229,-5.1229,-5.1229,-5.1229,-5.1229,-5.1229,-5.1229,-5.1229,-5.1229,-5.1229,-5.1229,-5.1229,-5.1229,-3.6417,-3.6417,-3.6417,-3.6417,-3.6417,-3.6417,-3.6417,-3.6417,-3.6417,-3.6417,-3.6417,-3.6417,-3.6417,-3.6417,-3.6417,-3.6417,-3.6417,-3.6417,-3.6417,-3.6417,-3.6417,-3.6417,-3.6417,-3.6417,-3.6417,-3.6417,-3.6417,-3.6417,-3.6417,-3.6417,-3.6417,-3.6417,-3.6417,-3.6417,-3.6417,-3.6417,-3.6417,-3.6417,-3.6417,-3.6417,-3.6417,-3.6417,-3.6417,-3.6417,-3.6417,-3.6417,-3.6417,-3.6417,-3.6417,-3.6417,-3.6417,-3.6417,-3.6417,-3.6417,-3.6417,-3.6417,-3.6417,-3.6417,-3.6417,-3.6417,-3.6417,-3.6417,-3.6417,-3.6417,-3.6417,-3.6417,-3.6417,-3.6417,-3.6417,-3.6417,-3.6417,-3.6417,-3.6747,-3.7261,-3.7835,-3.8626,-3.9692,-4.0445,-4.0845,-4.0944,-4.1576,-4.2131,-4.2843,-4.3676,-4.4576,-4.5439,-4.6461,-4.716,-4.7309,-4.7309,-4.7309,-4.7309,-4.7309,-4.8087,-4.888,-4.906,-4.9659,-5.0601,-5.1214,-5.1214,-5.1229,-5.1229,-5.1229,-5.1229,-5.1229,-5.1229,-5.1229,-5.1229,-5.1229,-5.1229,-5.1229,-5.1229,-5.1229,-5.1229,-5.1229,-3.6417,-3.6417,-3.6417,-3.6417,-3.6417,-3.6417,-3.6417,-3.6417,-3.6417,-3.6417,-3.6417,-3.6417,-3.6417,-3.6417,-3.6417,-3.6417,-3.6417,-3.6417,-3.6417,-3.6417,-3.6417,-3.6417,-3.6417,-3.6417,-3.6417,-3.6417,-3.6417,-3.6417,-3.6417,-3.6417,-3.6417,-3.6417,-3.6417,-3.6417,-3.6417,-3.6417,-3.6417,-3.6417,-3.6417,-3.6417,-3.6417,-3.6417,-3.6417,-3.6417,-3.6417,-3.6417,-3.6417,-3.6417,-3.6417,-3.6417,-3.6417,-3.6417,-3.6417,-3.6417,-3.6417,-3.6417,-3.6417,-3.6417,-3.6417,-3.6417,-3.6417,-3.6417,-3.6417,-3.6417,-3.6417,-3.6417,-3.6417,-3.6417,-3.6417,-3.6417,-3.6417,-3.6417,-3.6794,-3.74,-3.8018,-3.897,-4.0201,-4.117,-4.159,-4.1867,-4.2278,-4.2692,-4.295,-4.3846,-4.4828,-4.5687,-4.6518,-4.6937,-4.7279,-4.7309,-4.7309,-4.7309,-4.7369,-4.8072,-4.891,-4.9269,-4.9748,-5.072,-5.1229,-5.1229,-5.1229,-5.1229,-5.1229,-5.1229,-5.1229,-5.1229,-5.1229,-5.1229,-5.1229,-5.1229,-5.1229,-5.1229,-5.1229,-5.1229,-5.1229,-3.6417,-3.6417,-3.6417,-3.6417,-3.6417,-3.6417,-3.6417,-3.6417,-3.6417,-3.6417,-3.6417,-3.6417,-3.6417,-3.6417,-3.6417,-3.6417,-3.6417,-3.6417,-3.6417,-3.6417,-3.6417,-3.6417,-3.6417,-3.6417,-3.6417,-3.6417,-3.6417,-3.6417,-3.6417,-3.6417,-3.6417,-3.6417,-3.6417,-3.6417,-3.6417,-3.6417,-3.6417,-3.6417,-3.6417,-3.6417,-3.6417,-3.6417,-3.6417,-3.6417,-3.6417,-3.6417,-3.6417,-3.6417,-3.6417,-3.6417,-3.6417,-3.6417,-3.6417,-3.6417,-3.6417,-3.6417,-3.6417,-3.6417,-3.6417,-3.6417,-3.6417,-3.6417,-3.6417,-3.6417,-3.6417,-3.6417,-3.6417,-3.6417,-3.6417,-3.6417,-3.6417,-3.6439,-3.6841,-3.7513,-3.8264,-3.9166,-4.0489,-4.1492,-4.2266,-4.2578,-4.2941,-4.3095,-4.3229,-4.4072,-4.5117,-4.5609,-4.6441,-4.6997,-4.7309,-4.7309,-4.7309,-4.7309,-4.7504,-4.8072,-4.873,-4.9224,-4.9898,-5.0915,-5.1199,-5.1229,-5.1229,-5.1229,-5.1229,-5.1229,-5.1229,-5.1229,-5.1229,-5.1229,-5.1229,-5.1229,-5.1229,-5.1229,-5.1229,-5.1229,-5.1229,-3.6417,-3.6417,-3.6417,-3.6417,-3.6417,-3.6417,-3.6417,-3.6417,-3.6417,-3.6417,-3.6417,-3.6417,-3.6417,-3.6417,-3.6417,-3.6417,-3.6417,-3.6417,-3.6417,-3.6417,-3.6417,-3.6417,-3.6417,-3.6417,-3.6417,-3.6417,-3.6417,-3.6417,-3.6417,-3.6417,-3.6417,-3.6417,-3.6417,-3.6417,-3.6417,-3.6417,-3.6417,-3.6417,-3.6417,-3.6417,-3.6417,-3.6417,-3.6417,-3.6417,-3.6417,-3.6417,-3.6417,-3.6417,-3.6417,-3.6417,-3.6417,-3.6417,-3.6417,-3.6417,-3.6417,-3.6417,-3.6417,-3.6417,-3.6417,-3.6417,-3.6417,-3.6417,-3.6417,-3.6417,-3.6417,-3.6417,-3.6417,-3.6417,-3.6417,-3.6405,-3.6452,-3.6581,-3.7049,-3.7763,-3.8567,-3.9694,-4.0958,-4.1715,-4.2485,-4.293,-4.317,-4.321,-4.3285,-4.4366,-4.5334,-4.5783,-4.6292,-4.692,-4.7309,-4.7309,-4.7309,-4.7309,-4.7444,-4.7982,-4.8745,-4.9209,-4.9957,-5.1005,-5.1184,-5.1229,-5.1229,-5.1229,-5.1229,-5.1229,-5.1229,-5.1229,-5.1229,-5.1229,-5.1229,-5.1229,-5.1229,-5.1229,-5.1229,-5.1229,-5.1229,-3.6417,-3.6417,-3.6417,-3.6417,-3.6417,-3.6417,-3.6417,-3.6417,-3.6417,-3.6417,-3.6417,-3.6417,-3.6417,-3.6417,-3.6417,-3.6417,-3.6417,-3.6417,-3.6417,-3.6417,-3.6417,-3.6417,-3.6417,-3.6417,-3.6417,-3.6417,-3.6417,-3.6417,-3.6417,-3.6417,-3.6417,-3.6417,-3.6417,-3.6417,-3.6417,-3.6417,-3.6417,-3.6417,-3.6417,-3.6417,-3.6417,-3.6417,-3.6417,-3.6417,-3.6417,-3.6417,-3.6417,-3.6417,-3.6417,-3.6417,-3.6417,-3.6417,-3.6417,-3.6417,-3.6417,-3.6417,-3.6417,-3.6417,-3.6417,-3.6417,-3.6417,-3.6417,-3.6417,-3.6417,-3.6417,-3.6417,-3.6417,-3.6417,-3.6417,-3.6452,-3.6581,-3.6781,-3.742,-3.8141,-3.9015,-4.01,-4.1184,-4.1895,-4.2555,-4.2985,-4.3305,-4.3305,-4.3499,-4.4496,-4.5259,-4.5603,-4.6262,-4.7055,-4.7309,-4.7309,-4.7309,-4.7309,-4.7504,-4.7803,-4.8611,-4.9329,-4.9972,-5.0825,-5.1199,-5.1229,-5.1229,-5.1229,-5.1229,-5.1229,-5.1229,-5.1229,-5.1229,-5.1229,-5.1229,-5.1229,-5.1229,-5.1229,-5.1229,-5.1229,-5.1229,-3.6417,-3.6417,-3.6417,-3.6417,-3.6417,-3.6417,-3.6417,-3.6417,-3.6417,-3.6417,-3.6417,-3.6417,-3.6417,-3.6417,-3.6417,-3.6417,-3.6417,-3.6417,-3.6417,-3.6417,-3.6417,-3.6417,-3.6417,-3.6417,-3.6417,-3.6417,-3.6417,-3.6417,-3.6417,-3.6417,-3.6417,-3.6417,-3.6417,-3.6417,-3.6417,-3.6417,-3.6417,-3.6417,-3.6417,-3.6417,-3.6417,-3.6417,-3.6417,-3.6417,-3.6417,-3.6417,-3.6417,-3.6417,-3.6417,-3.6417,-3.6417,-3.6417,-3.6417,-3.6417,-3.6417,-3.6417,-3.6417,-3.6417,-3.6417,-3.6417,-3.6417,-3.6417,-3.6417,-3.6417,-3.6417,-3.6417,-3.6417,-3.6417,-3.6499,-3.6593,-3.6815,-3.7155,-3.7848,-3.8652,-3.9516,-4.056,-4.1563,-4.2199,-4.2703,-4.3065,-4.3305,-4.3305,-4.3693,-4.4631,-4.52,-4.5454,-4.6172,-4.713,-4.7309,-4.7309,-4.7309,-4.7309,-4.7399,-4.7803,-4.8716,-4.9509,-5.0152,-5.069,-5.1065,-5.1229,-5.1229,-5.1229,-5.1229,-5.1229,-5.1229,-5.1229,-5.1229,-5.1229,-5.1229,-5.1229,-5.1229,-5.1229,-5.1229,-5.1229,-5.1229,-3.6417,-3.6417,-3.6417,-3.6417,-3.6417,-3.6417,-3.6417,-3.6417,-3.6417,-3.6417,-3.6417,-3.6417,-3.6417,-3.6417,-3.6417,-3.6417,-3.6417,-3.6417,-3.6417,-3.6417,-3.6417,-3.6417,-3.6417,-3.6417,-3.6417,-3.6417,-3.6417,-3.6417,-3.6417,-3.6417,-3.6417,-3.6417,-3.6417,-3.6417,-3.6417,-3.6417,-3.6417,-3.6417,-3.6417,-3.6417,-3.6417,-3.6417,-3.6417,-3.6417,-3.6417,-3.6417,-3.6417,-3.6417,-3.6417,-3.6417,-3.6417,-3.6417,-3.6417,-3.6417,-3.6417,-3.6417,-3.6417,-3.6417,-3.6417,-3.6417,-3.6417,-3.6417,-3.6417,-3.6417,-3.6417,-3.6417,-3.6417,-3.6465,-3.6593,-3.6862,-3.7188,-3.7697,-3.844,-3.9309,-4.0185,-4.1085,-4.1922,-4.2456,-4.297,-4.321,-4.3379,-4.3514,-4.3947,-4.49,-4.52,-4.5439,-4.6367,-4.7309,-4.7309,-4.7309,-4.7309,-4.7309,-4.7309,-4.7848,-4.897,-4.9629,-4.9987,-5.0616,-5.1139,-5.1229,-5.1229,-5.1229,-5.1229,-5.1229,-5.1229,-5.1229,-5.1229,-5.1229,-5.1229,-5.1229,-5.1229,-5.1229,-5.1229,-5.1229,-5.1229,-3.6417,-3.6417,-3.6417,-3.6417,-3.6417,-3.6417,-3.6417,-3.6417,-3.6417,-3.6417,-3.6417,-3.6417,-3.6417,-3.6417,-3.6417,-3.6417,-3.6417,-3.6417,-3.6417,-3.6417,-3.6417,-3.6417,-3.6417,-3.6417,-3.6417,-3.6417,-3.6417,-3.6417,-3.6417,-3.6417,-3.6417,-3.6417,-3.6417,-3.6417,-3.6417,-3.6417,-3.6417,-3.6417,-3.6417,-3.6417,-3.6417,-3.6417,-3.6417,-3.6417,-3.6417,-3.6417,-3.6417,-3.6417,-3.6417,-3.6417,-3.6417,-3.6417,-3.6417,-3.6417,-3.6417,-3.6417,-3.6417,-3.6417,-3.6417,-3.6417,-3.6417,-3.6417,-3.6417,-3.6417,-3.6417,-3.6417,-3.6499,-3.6593,-3.6828,-3.7142,-3.7789,-3.8427,-3.9203,-4.0069,-4.0887,-4.1688,-4.2354,-4.2928,-4.3343,-4.3638,-4.3828,-4.4003,-4.4541,-4.517,-4.5304,-4.5484,-4.6516,-4.7309,-4.7309,-4.7309,-4.7309,-4.7309,-4.7309,-4.7923,-4.903,-4.9464,-4.9748,-5.0496,-5.1229,-5.1229,-5.1229,-5.1229,-5.1229,-5.1229,-5.1229,-5.1229,-5.1229,-5.1229,-5.1229,-5.1229,-5.1229,-5.1229,-5.1229,-5.1229,-5.1229,-3.6417,-3.6417,-3.6417,-3.6417,-3.6417,-3.6417,-3.6417,-3.6417,-3.6417,-3.6417,-3.6417,-3.6417,-3.6417,-3.6417,-3.6417,-3.6417,-3.6417,-3.6417,-3.6417,-3.6417,-3.6417,-3.6417,-3.6417,-3.6417,-3.6417,-3.6417,-3.6417,-3.6417,-3.6417,-3.6417,-3.6417,-3.6417,-3.6417,-3.6417,-3.6417,-3.6417,-3.6417,-3.6417,-3.6417,-3.6417,-3.6417,-3.6417,-3.6417,-3.6417,-3.6417,-3.6417,-3.6417,-3.6417,-3.6417,-3.6417,-3.6417,-3.6417,-3.6417,-3.6417,-3.6417,-3.6417,-3.6417,-3.6417,-3.6417,-3.6417,-3.6417,-3.6417,-3.6417,-3.6417,-3.6417,-3.6417,-3.6499,-3.6722,-3.7049,-3.7605,-3.8381,-3.9189,-4.0025,-4.0887,-4.1563,-4.231,-4.2931,-4.3486,-4.3826,-4.4097,-4.4347,-4.4616,-4.496,-4.5544,-4.5978,-4.6112,-4.6711,-4.7309,-4.7309,-4.7309,-4.7309,-4.7309,-4.7309,-4.8117,-4.9045,-4.9344,-4.9733,-5.0661,-5.1229,-5.1229,-5.1229,-5.1229,-5.1229,-5.1229,-5.1229,-5.1229,-5.1229,-5.1229,-5.1229,-5.1229,-5.1229,-5.1229,-5.1229,-5.1229,-5.1229,-3.6417,-3.6417,-3.6417,-3.6417,-3.6417,-3.6417,-3.6417,-3.6417,-3.6417,-3.6417,-3.6417,-3.6417,-3.6417,-3.6417,-3.6417,-3.6417,-3.6417,-3.6417,-3.6417,-3.6417,-3.6417,-3.6417,-3.6417,-3.6417,-3.6417,-3.6417,-3.6417,-3.6417,-3.6417,-3.6417,-3.6417,-3.6417,-3.6417,-3.6417,-3.6417,-3.6417,-3.6417,-3.6417,-3.6417,-3.6417,-3.6417,-3.6417,-3.6417,-3.6417,-3.6417,-3.6417,-3.6417,-3.6417,-3.6417,-3.6417,-3.6417,-3.6417,-3.6417,-3.6417,-3.6417,-3.6417,-3.6417,-3.6417,-3.6417,-3.6417,-3.6417,-3.6417,-3.6417,-3.6417,-3.6417,-3.6405,-3.6593,-3.6875,-3.7453,-3.8141,-3.8997,-3.9938,-4.0802,-4.1706,-4.2456,-4.3031,-4.3642,-4.4098,-4.44,-4.4635,-4.5005,-4.5319,-4.5544,-4.5918,-4.6546,-4.6905,-4.7174,-4.7309,-4.7309,-4.7309,-4.7309,-4.7309,-4.7339,-4.7923,-4.8715,-4.912,-4.9704,-5.0661,-5.1229,-5.1229,-5.1229,-5.1229,-5.1229,-5.1229,-5.1229,-5.1229,-5.1229,-5.1229,-5.1229,-5.1229,-5.1229,-5.1229,-5.1229,-5.1229,-5.1229,-3.6417,-3.6417,-3.6417,-3.6417,-3.6417,-3.6417,-3.6417,-3.6417,-3.6417,-3.6417,-3.6417,-3.6417,-3.6417,-3.6417,-3.6417,-3.6417,-3.6417,-3.6417,-3.6417,-3.6417,-3.6417,-3.6417,-3.6417,-3.6417,-3.6417,-3.6417,-3.6417,-3.6417,-3.6417,-3.6417,-3.6417,-3.6417,-3.6417,-3.6417,-3.6417,-3.6417,-3.6417,-3.6417,-3.6417,-3.6417,-3.6417,-3.6417,-3.6417,-3.6417,-3.6417,-3.6417,-3.6417,-3.6417,-3.6417,-3.6417,-3.6417,-3.6417,-3.6417,-3.6417,-3.6417,-3.6417,-3.6417,-3.6417,-3.6417,-3.6417,-3.6417,-3.6417,-3.6417,-3.6417,-3.6417,-3.6546,-3.6781,-3.7294,-3.7991,-3.8805,-3.9823,-4.0745,-4.1719,-4.2823,-4.3525,-4.4053,-4.4542,-4.4803,-4.5065,-4.5244,-4.5529,-4.6112,-4.6471,-4.6426,-4.689,-4.71,-4.7279,-4.7309,-4.7309,-4.7309,-4.7309,-4.7309,-4.7399,-4.7833,-4.8327,-4.8895,-4.9494,-5.0376,-5.096,-5.1229,-5.1229,-5.1229,-5.1229,-5.1229,-5.1229,-5.1229,-5.1229,-5.1229,-5.1229,-5.1229,-5.1229,-5.1229,-5.1229,-5.1229,-5.1229,-3.6417,-3.6417,-3.6417,-3.6417,-3.6417,-3.6417,-3.6417,-3.6417,-3.6417,-3.6417,-3.6417,-3.6417,-3.6417,-3.6417,-3.6417,-3.6417,-3.6417,-3.6417,-3.6417,-3.6417,-3.6417,-3.6417,-3.6417,-3.6417,-3.6417,-3.6417,-3.6417,-3.6417,-3.6417,-3.6417,-3.6417,-3.6417,-3.6417,-3.6417,-3.6417,-3.6417,-3.6417,-3.6417,-3.6417,-3.6417,-3.6417,-3.6417,-3.6417,-3.6417,-3.6417,-3.6417,-3.6417,-3.6417,-3.6417,-3.6417,-3.6417,-3.6417,-3.6417,-3.6417,-3.6417,-3.6417,-3.6417,-3.6452,-3.6499,-3.6534,-3.6593,-3.6828,-3.664,-3.6499,-3.6593,-3.6828,-3.7248,-3.7848,-3.8652,-3.9543,-4.0473,-4.1452,-4.264,-4.3761,-4.4362,-4.4851,-4.5356,-4.5618,-4.5813,-4.5978,-4.6202,-4.68,-4.716,-4.7174,-4.7219,-4.7279,-4.7309,-4.7309,-4.7309,-4.7309,-4.7309,-4.7309,-4.7384,-4.7728,-4.8252,-4.888,-4.9494,-5.0091,-5.0629,-5.1199,-5.1229,-5.1229,-5.1229,-5.1229,-5.1229,-5.1229,-5.1229,-5.1229,-5.1229,-5.1229,-5.1229,-5.1229,-5.1229,-5.1229,-5.1229,-3.6417,-3.6417,-3.6417,-3.6417,-3.6417,-3.6417,-3.6417,-3.6417,-3.6417,-3.6417,-3.6417,-3.6417,-3.6417,-3.6417,-3.6417,-3.6417,-3.6417,-3.6417,-3.6417,-3.6417,-3.6417,-3.6417,-3.6417,-3.6417,-3.6417,-3.6417,-3.6417,-3.6417,-3.6417,-3.6417,-3.6417,-3.6417,-3.6417,-3.6417,-3.6417,-3.6417,-3.6417,-3.6417,-3.6417,-3.6417,-3.6417,-3.6417,-3.6417,-3.6417,-3.6417,-3.6417,-3.6417,-3.6417,-3.6417,-3.6417,-3.6417,-3.6417,-3.6417,-3.6417,-3.6417,-3.6417,-3.6465,-3.6534,-3.6769,-3.6815,-3.7002,-3.7248,-3.7095,-3.6862,-3.6956,-3.7294,-3.7756,-3.8434,-3.9239,-4.0152,-4.1085,-4.2348,-4.3598,-4.4341,-4.4959,-4.5547,-4.6115,-4.6456,-4.6651,-4.683,-4.698,-4.7264,-4.7264,-4.7309,-4.7309,-4.7309,-4.7309,-4.7309,-4.7309,-4.7309,-4.7309,-4.7309,-4.7414,-4.7593,-4.8117,-4.873,-4.9284,-4.9853,-5.0705,-5.1229,-5.1229,-5.1229,-5.1229,-5.1229,-5.1229,-5.1229,-5.1229,-5.1229,-5.1229,-5.1229,-5.1229,-5.1229,-5.1229,-5.1229,-5.1229,-3.6417,-3.6417,-3.6417,-3.6417,-3.6417,-3.6417,-3.6417,-3.6417,-3.6417,-3.6417,-3.6417,-3.6417,-3.6417,-3.6417,-3.6417,-3.6417,-3.6417,-3.6417,-3.6417,-3.6417,-3.6417,-3.6417,-3.6417,-3.6417,-3.6417,-3.6417,-3.6417,-3.6417,-3.6417,-3.6417,-3.6417,-3.6417,-3.6417,-3.6417,-3.6417,-3.6417,-3.6417,-3.6417,-3.6417,-3.6417,-3.6417,-3.6417,-3.6417,-3.6417,-3.6417,-3.6417,-3.6417,-3.6417,-3.6417,-3.6417,-3.6417,-3.6417,-3.6417,-3.6405,-3.6452,-3.6628,-3.6675,-3.6769,-3.7155,-3.7261,-3.7433,-3.7835,-3.788,-3.7835,-3.7789,-3.8018,-3.8498,-3.9159,-4.0151,-4.1166,-4.2195,-4.3366,-4.444,-4.5176,-4.5756,-4.6175,-4.6711,-4.6905,-4.71,-4.713,-4.7309,-4.7309,-4.7309,-4.7309,-4.7309,-4.7309,-4.7309,-4.7309,-4.7309,-4.7309,-4.7309,-4.7309,-4.7339,-4.7489,-4.7908,-4.8476,-4.9015,-4.9613,-5.0511,-5.1184,-5.1229,-5.1229,-5.1229,-5.1229,-5.1229,-5.1229,-5.1229,-5.1229,-5.1229,-5.1229,-5.1229,-5.1229,-5.1229,-5.1229,-5.1229,-3.6417,-3.6417,-3.6417,-3.6417,-3.6417,-3.6417,-3.6417,-3.6417,-3.6417,-3.6417,-3.6417,-3.6417,-3.6417,-3.6417,-3.6417,-3.6417,-3.6417,-3.6417,-3.6417,-3.6417,-3.6417,-3.6417,-3.6417,-3.6417,-3.6417,-3.6417,-3.6417,-3.6417,-3.6417,-3.6417,-3.6417,-3.6417,-3.6417,-3.6417,-3.6417,-3.6417,-3.6417,-3.6417,-3.6417,-3.6417,-3.6417,-3.6417,-3.6417,-3.6417,-3.6417,-3.6417,-3.6417,-3.6417,-3.6417,-3.6417,-3.6417,-3.6417,-3.6417,-3.6452,-3.6534,-3.6722,-3.6828,-3.7155,-3.7492,-3.7631,-3.7972,-3.8413,-3.88,-3.8966,-3.9042,-3.9189,-3.9557,-4.0103,-4.1275,-4.2367,-4.3385,-4.4392,-4.5289,-4.6147,-4.6503,-4.6802,-4.707,-4.7249,-4.7294,-4.7294,-4.7309,-4.7309,-4.7309,-4.7309,-4.7309,-4.7309,-4.7309,-4.7309,-4.7309,-4.7309,-4.7309,-4.7309,-4.7309,-4.7369,-4.7848,-4.8371,-4.8985,-4.9673,-5.0511,-5.105,-5.1154,-5.1229,-5.1229,-5.1229,-5.1229,-5.1229,-5.1229,-5.1229,-5.1229,-5.1229,-5.1229,-5.1229,-5.1229,-5.1229,-5.1229,-3.6417,-3.6417,-3.6417,-3.6417,-3.6417,-3.6417,-3.6417,-3.6417,-3.6417,-3.6417,-3.6417,-3.6417,-3.6417,-3.6417,-3.6417,-3.6417,-3.6417,-3.6417,-3.6417,-3.6417,-3.6417,-3.6417,-3.6417,-3.6417,-3.6417,-3.6417,-3.6417,-3.6417,-3.6417,-3.6417,-3.6417,-3.6417,-3.6417,-3.6417,-3.6417,-3.6417,-3.6417,-3.6417,-3.6417,-3.6417,-3.6417,-3.6417,-3.6417,-3.6417,-3.6417,-3.6417,-3.6417,-3.6417,-3.6417,-3.6417,-3.6417,-3.6417,-3.6499,-3.6581,-3.6662,-3.6943,-3.7155,-3.7618,-3.7985,-3.8167,-3.8729,-3.922,-3.9733,-4.0104,-4.0274,-4.0332,-4.0641,-4.1183,-4.2294,-4.3344,-4.4354,-4.524,-4.6114,-4.661,-4.6847,-4.7085,-4.7204,-4.7309,-4.7309,-4.7309,-4.7309,-4.7309,-4.7309,-4.7309,-4.7309,-4.7309,-4.7309,-4.7309,-4.7309,-4.7309,-4.7339,-4.7339,-4.7324,-4.7429,-4.7893,-4.8446,-4.9075,-4.9793,-5.0601,-5.1005,-5.1184,-5.1229,-5.1229,-5.1229,-5.1229,-5.1229,-5.1229,-5.1229,-5.1229,-5.1229,-5.1229,-5.1229,-5.1229,-5.1229,-5.1229,-3.6417,-3.6417,-3.6417,-3.6417,-3.6417,-3.6417,-3.6417,-3.6417,-3.6417,-3.6417,-3.6417,-3.6417,-3.6417,-3.6417,-3.6417,-3.6417,-3.6417,-3.6417,-3.6417,-3.6417,-3.6417,-3.6417,-3.6417,-3.6417,-3.6417,-3.6417,-3.6417,-3.6417,-3.6417,-3.6417,-3.6417,-3.6417,-3.6417,-3.6417,-3.6417,-3.6417,-3.6417,-3.6417,-3.6417,-3.6417,-3.6417,-3.6417,-3.6417,-3.6417,-3.6417,-3.6417,-3.6417,-3.6417,-3.6417,-3.6417,-3.6417,-3.6499,-3.6615,-3.6662,-3.7036,-3.7466,-3.7618,-3.8031,-3.853,-3.8845,-3.9349,-4.0087,-4.0664,-4.1234,-4.1491,-4.1535,-4.1835,-4.2509,-4.3272,-4.4327,-4.5242,-4.609,-4.6736,-4.6955,-4.7174,-4.7234,-4.7309,-4.7309,-4.7309,-4.7309,-4.7309,-4.7309,-4.7309,-4.7309,-4.7309,-4.7309,-4.7309,-4.7309,-4.7309,-4.7324,-4.7414,-4.7414,-4.7369,-4.7534,-4.7997,-4.8671,-4.9374,-4.9957,-5.069,-5.1005,-5.1214,-5.1229,-5.1229,-5.1229,-5.1229,-5.1229,-5.1229,-5.1229,-5.1229,-5.1229,-5.1229,-5.1229,-5.1229,-5.1229,-5.1229,-3.6631,-3.643,-3.6417,-3.6417,-3.6417,-3.6417,-3.6417,-3.6417,-3.6417,-3.6417,-3.6417,-3.6417,-3.6417,-3.6417,-3.6417,-3.6417,-3.6417,-3.6417,-3.6417,-3.6417,-3.6417,-3.6417,-3.6417,-3.6417,-3.6417,-3.6417,-3.6417,-3.6417,-3.6417,-3.6417,-3.6417,-3.6417,-3.6417,-3.6417,-3.6417,-3.6417,-3.6417,-3.6417,-3.6417,-3.6417,-3.6417,-3.6417,-3.6417,-3.6417,-3.6417,-3.6417,-3.6417,-3.6417,-3.6452,-3.6546,-3.664,-3.6781,-3.6909,-3.7015,-3.7294,-3.7585,-3.7861,-3.8258,-3.889,-3.9421,-3.9944,-4.0878,-4.1652,-4.221,-4.3286,-4.3401,-4.356,-4.4124,-4.4587,-4.5531,-4.6032,-4.6782,-4.6986,-4.7191,-4.7249,-4.7279,-4.7309,-4.7309,-4.7309,-4.7309,-4.7309,-4.7309,-4.7309,-4.7309,-4.7309,-4.7309,-4.7309,-4.7309,-4.7309,-4.7459,-4.7519,-4.7683,-4.7758,-4.7803,-4.8162,-4.8925,-4.9793,-5.0361,-5.084,-5.1035,-5.1229,-5.1229,-5.1229,-5.1229,-5.1229,-5.1229,-5.1229,-5.1229,-5.1229,-5.1229,-5.1229,-5.1229,-5.1229,-5.1229,-5.1229,-3.6895,-3.6443,-3.6417,-3.6417,-3.6417,-3.6417,-3.6417,-3.6417,-3.6417,-3.6417,-3.6417,-3.6417,-3.6417,-3.6417,-3.6417,-3.6417,-3.6417,-3.6417,-3.6417,-3.6417,-3.6417,-3.6417,-3.6417,-3.6417,-3.6417,-3.6417,-3.6417,-3.6417,-3.6417,-3.6417,-3.6417,-3.6417,-3.6417,-3.6417,-3.6417,-3.6417,-3.6417,-3.6417,-3.6417,-3.6417,-3.6417,-3.6417,-3.6417,-3.6417,-3.6417,-3.6417,-3.6417,-3.6452,-3.6534,-3.6675,-3.6875,-3.7015,-3.7155,-3.7307,-3.7492,-3.7736,-3.8024,-3.8453,-3.8993,-3.9663,-4.0761,-4.1809,-4.2539,-4.3514,-4.4611,-4.5093,-4.5244,-4.5477,-4.5898,-4.6248,-4.678,-4.7091,-4.7207,-4.7309,-4.7309,-4.7309,-4.7309,-4.7309,-4.7309,-4.7309,-4.7309,-4.7309,-4.7309,-4.7309,-4.7309,-4.7309,-4.7309,-4.7309,-4.7384,-4.7653,-4.7818,-4.8207,-4.8521,-4.8566,-4.8686,-4.9224,-5.0121,-5.0556,-5.0975,-5.1124,-5.1229,-5.1229,-5.1229,-5.1229,-5.1229,-5.1229,-5.1229,-5.1229,-5.1229,-5.1229,-5.1229,-5.1229,-5.1229,-5.1229,-5.1229,-3.686,-3.6417,-3.6417,-3.6417,-3.6417,-3.6417,-3.6417,-3.6417,-3.6417,-3.6417,-3.6417,-3.6417,-3.6417,-3.6417,-3.6417,-3.6417,-3.6417,-3.6417,-3.6417,-3.6417,-3.6417,-3.6417,-3.6417,-3.6417,-3.6417,-3.6417,-3.6417,-3.6417,-3.6417,-3.6417,-3.6417,-3.6417,-3.6417,-3.6417,-3.6417,-3.6417,-3.6417,-3.6417,-3.6417,-3.6417,-3.6417,-3.6417,-3.6417,-3.6417,-3.6417,-3.6417,-3.6465,-3.6593,-3.6628,-3.6769,-3.7015,-3.7261,-3.7446,-3.7585,-3.7815,-3.8076,-3.833,-3.8926,-3.9516,-4.0396,-4.1678,-4.2783,-4.3631,-4.4732,-4.5591,-4.6119,-4.6268,-4.6357,-4.6678,-4.6764,-4.7106,-4.7207,-4.7309,-4.7309,-4.7309,-4.7309,-4.7309,-4.7309,-4.7309,-4.7309,-4.7309,-4.7309,-4.7309,-4.7309,-4.7309,-4.7309,-4.7309,-4.7339,-4.7519,-4.7803,-4.8132,-4.8686,-4.9209,-4.9643,-4.9852,-4.9823,-5.0405,-5.081,-5.1079,-5.1169,-5.1229,-5.1229,-5.1229,-5.1229,-5.1229,-5.1229,-5.1229,-5.1229,-5.1229,-5.1229,-5.1229,-5.1229,-5.1229,-5.1229,-5.1229]},{"header":{"parameterUnit":"m.s-1","parameterCategory":1,"la1":31.0,"la2":29.5877,"lo1":-88.7671,"lo2":-86.6584,"dy":0.0162,"dx":0.0185,"nx":115,"ny":88,"refTime":"2024-04-04T18:00:00:Z","depth":0,"parameterNumber":3,"parameterNumberName":"V-component_of_WINDS"},"data":[0.0,0.0,0.0,0.0,0.0,0.0,0.0,0.0,0.0,0.0,0.0,0.0,0.0,0.0,0.0,0.0,0.0,0.0,0.0,0.0,0.0,0.0,0.0,0.0,0.0,0.0,0.0,0.0,0.0,0.0,0.0,0.0,0.0,0.0,0.0,0.0,0.0,0.0,0.0,0.0,0.0,0.0,0.0,0.0,0.0,0.0,0.0,0.0,0.0,0.0,0.0,0.0,0.0,0.0,0.0,0.0,0.0,0.0,0.0,0.0,0.0,0.0,0.0,0.0,0.0,0.0,0.0,0.0,0.0,0.0,0.0,0.0,0.0,0.0,0.0,0.0,0.0,0.0,0.0,0.0,0.0,0.0,0.0,0.0,0.0,0.0,0.0,0.0,0.0,0.0,0.0,0.0,0.0,0.0,0.0,0.0,0.0,0.0,0.0,0.0,0.0,0.0,0.0,0.0,0.0,0.0,0.0,0.0,0.0,0.0,0.0,0.0,0.0,0.0,0.0,0.0,0.0,0.0,0.0,0.0,0.0,0.0,0.0,0.0,0.0,0.0,0.0,0.0,0.0,0.0,0.0,0.0,0.0,0.0,0.0,0.0,0.0,0.0,0.0,0.0,0.0,0.0,0.0,0.0,0.0,0.0,0.0,0.0,0.0,0.0,0.0,0.0,0.0,0.0,0.0,0.0,0.0,0.0,0.0,0.0,0.0,0.0,0.0,0.0,0.0,0.0,0.0,0.0,0.0,0.0,0.0,0.0,0.0,0.0,0.0,0.0,0.0,0.0,0.0,0.0,0.0,0.0,0.0,0.0,0.0,0.0,0.0,0.0,0.0,0.0,0.0,0.0,0.0,0.0,0.0,0.0,0.0,0.0,0.0,0.0,0.0,0.0,0.0,0.0,0.0,0.0,0.0,0.0,0.0,0.0,0.0,0.0,0.0,0.0,0.0,0.0,0.0,0.0,0.0,0.0,0.0,0.0,0.0,0.0,0.0,0.0,0.0,0.0,0.0,0.0,0.0,0.0,0.0,0.0,0.0,0.0,0.0,0.0,0.0,0.0,0.0,0.0,0.0,0.0,0.0,0.0,0.0,0.0,0.0,0.0,0.0,0.0,0.0,0.0,0.0,0.0,0.0,0.0,0.0,0.0,0.0,0.0,0.0,0.0,0.0,0.0,0.0,0.0,0.0,0.0,0.0,0.0,0.0,0.0,0.0,0.0,0.0,0.0,0.0,0.0,0.0,0.0,0.0,0.0,0.0,0.0,0.0,0.0,0.0,0.0,0.0,0.0,0.0,0.0,0.0,0.0,0.0,0.0,0.0,0.0,0.0,0.0,0.0,0.0,0.0,0.0,0.0,0.0,0.0,0.0,0.0,0.0,0.0,0.0,0.0,0.0,0.0,0.0,0.0,0.0,0.0,0.0,0.0,0.0,0.0,0.0,0.0,0.0,0.0,0.0,0.0,0.0,0.0,0.0,0.0,0.0,0.0,0.0,0.0,0.0,0.0,0.0,0.0,0.0,0.0,0.0,0.0,0.0,0.0,0.0,0.0,0.0,0.0,0.0,0.0,0.0,0.0,0.0,0.0,0.0,0.0,0.0,0.0,0.0,0.0,0.0,0.0,0.0,0.0,0.0,0.0,0.0,0.0,0.0,0.0,0.0,0.0,0.0,0.0,0.0,0.0,0.0,0.0,0.0,0.0,0.0,0.0,0.0,0.0,0.0,0.0,0.0,0.0,0.0,0.0,0.0,0.0,0.0,0.0,0.0,0.0,0.0,0.0,0.0,0.0,0.0,0.0,0.0,0.0,0.0,0.0,0.0,0.0,0.0,0.0,0.0,0.0,0.0,0.0,0.0,0.0,0.0,0.0,0.0,0.0,0.0,0.0,0.0,0.0,0.0,0.0,0.0,0.0,0.0,0.0,0.0,0.0,0.0,0.0,0.0,0.0,0.0,0.0,0.0,0.0,0.0,0.0,0.0,0.0,0.0,0.0,0.0,0.0,0.0,0.0,0.0,0.0,0.0,0.0,0.0,0.0,0.0,0.0,0.0,0.0,0.0,0.0,0.0,0.0,0.0,0.0,0.0,0.0,0.0,0.0,0.0,0.0,0.0,0.0,0.0,0.0,0.0,0.0,0.0,0.0,0.0,0.0,0.0,0.0,0.0,0.0,0.0,0.0,0.0,0.0,0.0,0.0,0.0,0.0,0.0,0.0,0.0,0.0,0.0,0.0,0.0,0.0,0.0,0.0,0.0,0.0,0.0,0.0,0.0,0.0,0.0,0.0,0.0,0.0,0.0,0.0,0.0,0.0,0.0,0.0,0.0,0.0,0.0,0.0,0.0,0.0,0.0,0.0,0.0,0.0,0.0,0.0,0.0,0.0,0.0,0.0,0.0,0.0,0.0,0.0,0.0,0.0,0.0,0.0,0.0,0.0,0.0,0.0,0.0,0.0,0.0,0.0,0.0,0.0,0.0,0.0,0.0,0.0,0.0,0.0,0.0,0.0,0.0,0.0,0.0,0.0,0.0,0.0,0.0,0.0,0.0,0.0,0.0,0.0,0.0,0.0,0.0,0.0,0.0,0.0,0.0,0.0,0.0,0.0,0.0,0.0,0.0,0.0,0.0,0.0,0.0,0.0,0.0,0.0,0.0,0.0,0.0,0.0,0.0,0.0,0.0,0.0,0.0,0.0,0.0,0.0,0.0,0.0,0.0,0.0,0.0,0.0,0.0,0.0,0.0,0.0,0.0,0.0,0.0,0.0,0.0,0.0,0.0,0.0,0.0,0.0,0.0,0.0,0.0,0.0,0.0,0.0,0.0,0.0,0.0,0.0,0.0,0.0,0.0,0.0,0.0,0.0,0.0,0.0,0.0,0.0,0.0,0.0,0.0,0.0,0.0,0.0,0.0,0.0,0.0,0.0,0.0,0.0,0.0,0.0,0.0,0.0,0.0,0.0,0.0,0.0,0.0,0.0,0.0,0.0,0.0,0.0,0.0,0.0,0.0,0.0,0.0,0.0,0.0,0.0,0.0,0.0,0.0,0.0,0.0,0.0,0.0,0.0,0.0,0.0,0.0,0.0,0.0,0.0,0.0,0.0,0.0,0.0,0.0,0.0,0.0,0.0,0.0,0.0,0.0,0.0,0.0,0.0,0.0,0.0,0.0,0.0,0.0,0.0,0.0,0.0,0.0,0.0,0.0,0.0,0.0,0.0,0.0,0.0,0.0,0.0,0.0,0.0,0.0,0.0,0.0,0.0,0.0,0.0,0.0,0.0,0.0,0.0,0.0,0.0,0.0,0.0,0.0,0.0,0.0,0.0,0.0,0.0,0.0,0.0,0.0,0.0,0.0,0.0,0.0,0.0,0.0,0.0,0.0,0.0,0.0,0.0,0.0,0.0,0.0,0.0,0.0,0.0,0.0,0.0,0.0,0.0,0.0,0.0,0.0,0.0,0.0,0.0,0.0,0.0,0.0,0.0,0.0,0.0,0.0,0.0,0.0,0.0,0.0,0.0,0.0,0.0,0.0,0.0,0.0,0.0,0.0,0.0,0.0,0.0,0.0,0.0,0.0,0.0,0.0,0.0,0.0,0.0,0.0,0.0,0.0,0.0,0.0,0.0,0.0,0.0,0.0,0.0,0.0,0.0,0.0,0.0,0.0,0.0,0.0,0.0,0.0,0.0,0.0,0.0,0.0,0.0,0.0,0.0,0.0,0.0,0.0,0.0,0.0,0.0,0.0,0.0,0.0,0.0,0.0,0.0,0.0,0.0,0.0,0.0,0.0,0.0,0.0,0.0,0.0,0.0,0.0,0.0,0.0,0.0,0.0,0.0,0.0,0.0,0.0,0.0,0.0,0.0,0.0,0.0,0.0,0.0,0.0,0.0,0.0,0.0,0.0,0.0,0.0,0.0,0.0,0.0,0.0,0.0,0.0,0.0,0.0,0.0,0.0,0.0,0.0,0.0,0.0,0.0,0.0,0.0,0.0,0.0,0.0,0.0,0.0,0.0,0.0,0.0,0.0,0.0,0.0,0.0,0.0,0.0,0.0,0.0,0.0,0.0,0.0,0.0,0.0,0.0,0.0,0.0,0.0,0.0,0.0,0.0,0.0,0.0,0.0,0.0,0.0,0.0,0.0,0.0,0.0,0.0,0.0,0.0,0.0,0.0,0.0,0.0,0.0,0.0,0.0,0.0,0.0,0.0,0.0,0.0,0.0,0.0,0.0,0.0,0.0,0.0,0.0,0.0,0.0,0.0,0.0,0.0,0.0,1.6034,0.0,0.0,0.0,0.0,0.0,0.0,0.0,0.0,0.0,0.0,0.0,0.0,0.0,0.0,0.0,0.0,0.0,0.0,0.0,0.0,0.0,0.0,0.0,0.0,0.0,0.0,0.0,0.0,0.0,0.0,0.0,0.0,0.0,0.0,0.0,0.0,0.0,0.0,0.0,0.0,0.0,0.0,0.0,0.0,0.0,0.0,0.0,0.0,0.0,0.0,0.0,0.0,0.0,0.0,0.0,0.0,0.0,0.0,0.0,0.0,0.0,0.0,0.0,0.0,0.0,0.0,0.0,0.0,0.0,0.0,0.0,0.0,0.0,0.0,0.0,0.0,0.0,0.0,0.0,0.0,0.0,0.0,0.0,0.0,0.0,0.0,0.0,0.0,0.0,0.0,0.0,0.0,0.0,0.0,0.0,0.0,0.0,0.0,0.0,0.0,0.0,0.0,0.0,0.0,0.0,0.0,0.0,0.0,0.0,0.0,1.7846,1.7582,1.7518,1.7389,1.7066,0.0,0.0,0.0,0.0,0.0,0.0,0.0,0.0,0.0,0.0,0.0,0.0,0.0,0.0,0.0,0.0,0.0,0.0,0.0,0.0,0.0,0.0,0.0,0.0,0.0,0.0,0.0,0.0,0.0,0.0,0.0,0.0,0.0,0.0,0.0,0.0,0.0,0.0,0.0,0.0,0.0,0.0,0.0,0.0,0.0,0.0,0.0,0.0,0.0,0.0,0.0,0.0,0.0,0.0,0.0,0.0,0.0,0.0,0.0,0.0,0.0,0.0,0.0,0.0,0.0,0.0,0.0,0.0,0.0,0.0,0.0,0.0,0.0,0.0,0.0,0.0,0.0,0.0,0.0,0.0,0.0,0.0,0.0,0.0,0.0,0.0,0.0,0.0,0.0,0.0,0.0,0.0,0.0,0.0,0.0,0.0,0.0,0.0,0.0,0.0,0.0,0.0,0.0,0.0,0.0,0.0,0.0,0.0,0.0,0.0,0.0,0.0,1.8168,1.8103,1.8033,0.0,0.0,0.0,0.0,0.0,0.0,0.0,0.0,0.0,0.0,0.0,0.0,0.0,0.0,0.0,0.0,0.0,0.0,0.0,0.0,0.0,0.0,0.0,0.0,0.0,0.0,0.0,0.0,0.0,0.0,0.0,0.0,0.0,0.0,0.0,0.0,0.0,0.0,0.0,0.0,0.0,0.0,0.0,0.0,0.0,0.0,0.0,0.0,0.0,0.0,0.0,0.0,0.0,0.0,0.0,0.0,0.0,0.0,0.0,0.0,0.0,0.0,0.0,0.0,0.0,0.0,0.0,0.0,0.0,0.0,0.0,0.0,0.0,0.0,0.0,0.0,0.0,0.0,0.0,0.0,0.0,0.0,0.0,0.0,0.0,0.0,0.0,0.0,0.0,0.0,0.0,0.0,0.0,0.0,0.0,0.0,0.0,0.0,0.0,0.0,0.0,0.0,0.0,0.0,0.0,0.0,0.0,0.0,0.0,0.0,1.9322,1.9008,1.8699,0.0,1.8039,0.0,0.0,0.0,0.0,0.0,0.0,0.0,0.0,0.0,0.0,0.0,0.0,0.0,0.0,0.0,0.0,0.0,0.0,0.0,0.0,0.0,0.0,0.0,0.0,0.0,0.0,0.0,0.0,0.0,0.0,0.0,0.0,0.0,0.0,0.0,0.0,0.0,0.0,0.0,0.0,0.0,0.0,0.0,0.0,0.0,0.0,0.0,0.0,0.0,0.0,0.0,0.0,0.0,0.0,0.0,0.0,0.0,0.0,0.0,0.0,0.0,0.0,0.0,0.0,0.0,0.0,0.0,0.0,0.0,0.0,0.0,0.0,0.0,0.0,0.0,0.0,0.0,0.0,0.0,0.0,0.0,0.0,0.0,0.0,0.0,0.0,0.0,0.0,0.0,0.0,0.0,0.0,0.0,0.0,0.0,0.0,0.0,0.0,0.0,0.0,0.0,0.0,0.0,0.0,0.0,0.0,0.0,0.0,0.0,0.0,1.9845,1.9717,1.9596,1.9404,0.0,0.0,0.0,0.0,0.0,0.0,0.0,0.0,0.0,0.0,0.0,0.0,0.0,0.0,0.0,0.0,0.0,0.0,0.0,0.0,0.0,0.0,0.0,0.0,0.0,0.0,0.0,0.0,0.0,0.0,0.0,0.0,0.0,0.0,0.0,0.0,0.0,0.0,0.0,0.0,0.0,0.0,0.0,0.0,0.0,0.0,0.0,0.0,0.0,0.0,0.0,0.0,0.0,0.0,0.0,0.0,0.0,0.0,0.0,0.0,0.0,0.0,0.0,0.0,0.0,0.0,0.0,0.0,0.0,0.0,0.0,0.0,0.0,0.0,0.0,0.0,0.0,0.0,0.0,0.0,0.0,0.0,0.0,0.0,0.0,0.0,0.0,0.0,0.0,0.0,0.0,0.0,0.0,0.0,0.0,0.0,0.0,0.0,0.0,0.0,0.0,0.0,0.0,0.0,0.0,0.0,0.0,0.0,0.0,0.0,2.0297,2.017,2.0106,2.0113,2.0113,2.0113,0.0,0.0,0.0,0.0,0.0,0.0,0.0,0.0,0.0,0.0,0.0,0.0,0.0,0.0,0.0,0.0,0.0,0.0,0.0,0.0,0.0,0.0,0.0,0.0,0.0,0.0,0.0,0.0,0.0,0.0,0.0,0.0,0.0,0.0,0.0,0.0,0.0,0.0,0.0,0.0,0.0,0.0,0.0,0.0,0.0,0.0,0.0,0.0,0.0,0.0,0.0,0.0,0.0,0.0,0.0,0.0,0.0,0.0,0.0,0.0,0.0,0.0,0.0,0.0,0.0,0.0,0.0,0.0,0.0,0.0,0.0,0.0,0.0,0.0,0.0,0.0,0.0,0.0,0.0,0.0,0.0,0.0,0.0,0.0,0.0,0.0,0.0,0.0,0.0,0.0,0.0,0.0,0.0,0.0,0.0,0.0,0.0,0.0,0.0,0.0,0.0,0.0,0.0,0.0,0.0,0.0,0.0,0.0,2.1052,2.0729,2.0425,2.0113,2.0113,2.0113,0.0,0.0,0.0,0.0,0.0,0.0,0.0,0.0,0.0,0.0,0.0,0.0,0.0,0.0,0.0,0.0,0.0,0.0,0.0,0.0,0.0,0.0,0.0,0.0,0.0,0.0,0.0,0.0,0.0,0.0,0.0,0.0,0.0,0.0,0.0,0.0,0.0,0.0,0.0,0.0,0.0,0.0,0.0,0.0,0.0,0.0,0.0,0.0,0.0,0.0,0.0,0.0,0.0,0.0,0.0,0.0,0.0,0.0,0.0,0.0,0.0,0.0,0.0,0.0,0.0,0.0,0.0,0.0,0.0,0.0,0.0,0.0,0.0,0.0,0.0,0.0,0.0,0.0,0.0,0.0,0.0,0.0,0.0,0.0,0.0,0.0,0.0,0.0,0.0,0.0,0.0,0.0,0.0,0.0,0.0,0.0,0.0,0.0,0.0,0.0,0.0,0.0,0.0,0.0,0.0,0.0,0.0,0.0,0.0,2.1109,2.0989,2.0856,2.0736,2.0736,2.0736,0.0,0.0,0.0,0.0,0.0,0.0,0.0,0.0,0.0,0.0,0.0,0.0,0.0,0.0,0.0,0.0,0.0,0.0,0.0,0.0,0.0,0.0,0.0,0.0,0.0,0.0,0.0,0.0,0.0,0.0,0.0,0.0,0.0,0.0,0.0,0.0,0.0,0.0,0.0,0.0,0.0,0.0,0.0,0.0,0.0,0.0,0.0,0.0,0.0,0.0,0.0,0.0,0.0,0.0,0.0,0.0,0.0,0.0,0.0,0.0,0.0,0.0,0.0,0.0,0.0,0.0,0.0,0.0,0.0,0.0,0.0,0.0,0.0,0.0,0.0,0.0,0.0,0.0,0.0,0.0,0.0,0.0,0.0,0.0,0.0,0.0,0.0,0.0,0.0,0.0,0.0,0.0,0.0,0.0,0.0,0.0,0.0,0.0,0.0,0.0,0.0,0.0,0.0,0.0,0.0,0.0,0.0,0.0,0.0,2.1102,0.0,2.1102,2.1102,2.1102,2.1102,0.0,0.0,0.0,0.0,0.0,0.0,0.0,0.0,0.0,0.0,0.0,0.0,0.0,0.0,0.0,0.0,0.0,0.0,0.0,0.0,0.0,0.0,0.0,0.0,0.0,0.0,0.0,0.0,0.0,0.0,0.0,0.0,0.0,0.0,0.0,0.0,0.0,0.0,0.0,0.0,0.0,0.0,0.0,0.0,0.0,0.0,0.0,0.0,0.0,0.0,0.0,0.0,0.0,0.0,0.0,0.0,0.0,0.0,0.0,0.0,0.0,0.0,0.0,0.0,0.0,0.0,0.0,0.0,0.0,0.0,0.0,0.0,0.0,0.0,0.0,0.0,0.0,0.0,0.0,0.0,0.0,0.0,0.0,0.0,0.0,0.0,0.0,0.0,0.0,0.0,0.0,0.0,0.0,0.0,0.0,0.0,0.0,0.0,0.0,0.0,0.0,0.0,0.0,0.0,0.0,0.0,0.0,0.0,2.1109,2.1102,2.1102,2.1102,2.1102,2.1102,2.1102,0.0,0.0,0.0,0.0,0.0,0.0,0.0,0.0,0.0,0.0,0.0,0.0,0.0,0.0,0.0,0.0,0.0,0.0,0.0,0.0,0.0,0.0,0.0,0.0,0.0,0.0,0.0,0.0,0.0,0.0,0.0,0.0,0.0,0.0,0.0,0.0,0.0,0.0,0.0,0.0,0.0,0.0,0.0,0.0,0.0,0.0,0.0,0.0,0.0,0.0,0.0,0.0,0.0,0.0,0.0,0.0,0.0,0.0,0.0,0.0,0.0,0.0,0.0,0.0,0.0,0.0,0.0,0.0,0.0,0.0,0.0,0.0,0.0,0.0,0.0,0.0,0.0,0.0,0.0,0.0,0.0,0.0,0.0,0.0,0.0,0.0,0.0,0.0,0.0,0.0,0.0,0.0,0.0,0.0,0.0,0.0,0.0,0.0,0.0,0.0,0.0,0.0,0.0,0.0,0.0,0.0,0.0,0.0,0.0,2.1102,2.1102,2.1102,2.1102,2.1102,2.1172,0.0,0.0,0.0,0.0,0.0,0.0,0.0,0.0,0.0,0.0,0.0,0.0,0.0,0.0,0.0,0.0,0.0,0.0,0.0,0.0,0.0,0.0,0.0,0.0,0.0,0.0,0.0,0.0,0.0,0.0,0.0,0.0,0.0,0.0,0.0,0.0,0.0,0.0,0.0,0.0,0.0,0.0,0.0,0.0,0.0,0.0,0.0,0.0,0.0,0.0,0.0,0.0,0.0,0.0,0.0,0.0,0.0,0.0,0.0,0.0,0.0,0.0,0.0,0.0,0.0,0.0,0.0,0.0,0.0,0.0,0.0,0.0,0.0,0.0,0.0,0.0,0.0,0.0,0.0,0.0,0.0,0.0,0.0,0.0,0.0,0.0,0.0,0.0,0.0,0.0,0.0,0.0,0.0,0.0,0.0,0.0,0.0,0.0,0.0,0.0,0.0,0.0,0.0,0.0,0.0,0.0,0.0,0.0,0.0,2.1299,2.1172,2.1102,2.1102,2.1235,2.1418,2.1607,0.0,0.0,0.0,0.0,0.0,0.0,0.0,0.0,0.0,0.0,0.0,0.0,0.0,0.0,0.0,0.0,0.0,0.0,0.0,0.0,0.0,0.0,0.0,0.0,0.0,0.0,0.0,0.0,0.0,0.0,0.0,0.0,0.0,0.0,0.0,0.0,0.0,0.0,0.0,0.0,0.0,0.0,0.0,0.0,0.0,0.0,0.0,0.0,0.0,0.0,0.0,0.0,0.0,0.0,0.0,0.0,0.0,0.0,0.0,0.0,0.0,0.0,0.0,0.0,0.0,0.0,0.0,0.0,0.0,0.0,0.0,0.0,0.0,0.0,0.0,0.0,0.0,0.0,0.0,0.0,0.0,0.0,0.0,0.0,0.0,0.0,0.0,0.0,0.0,0.0,0.0,0.0,0.0,0.0,0.0,0.0,0.0,0.0,0.0,0.0,0.0,0.0,0.0,0.0,0.0,0.0,0.0,0.0,2.1734,2.1342,2.1145,2.1109,2.1481,2.1677,0.0,0.0,0.0,0.0,0.0,0.0,0.0,0.0,0.0,0.0,0.0,0.0,0.0,0.0,0.0,0.0,0.0,0.0,0.0,0.0,0.0,0.0,0.0,0.0,0.0,0.0,0.0,0.0,0.0,0.0,0.0,0.0,0.0,0.0,0.0,0.0,0.0,0.0,0.0,0.0,0.0,0.0,0.0,0.0,0.0,0.0,0.0,0.0,0.0,0.0,0.0,0.0,0.0,0.0,0.0,0.0,0.0,0.0,0.0,0.0,0.0,0.0,0.0,0.0,0.0,0.0,0.0,0.0,0.0,0.0,0.0,0.0,0.0,0.0,0.0,0.0,0.0,0.0,0.0,0.0,0.0,0.0,0.0,0.0,0.0,0.0,0.0,0.0,0.0,0.0,0.0,0.0,0.0,0.0,0.0,0.0,0.0,0.0,0.0,0.0,0.0,0.0,0.0,0.0,0.0,0.0,0.0,0.0,0.0,2.3043,2.25,2.1997,2.1475,2.2048,2.2487,0.0,0.0,0.0,0.0,0.0,0.0,0.0,0.0,0.0,0.0,0.0,0.0,0.0,0.0,0.0,0.0,0.0,0.0,0.0,0.0,0.0,0.0,0.0,0.0,0.0,0.0,0.0,0.0,0.0,0.0,0.0,0.0,0.0,0.0,0.0,0.0,0.0,0.0,0.0,0.0,0.0,0.0,0.0,0.0,0.0,0.0,0.0,0.0,0.0,0.0,0.0,0.0,0.0,0.0,0.0,0.0,0.0,0.0,0.0,0.0,0.0,0.0,0.0,0.0,0.0,0.0,0.0,0.0,0.0,0.0,0.0,0.0,0.0,0.0,0.0,0.0,0.0,0.0,0.0,0.0,0.0,0.0,0.0,0.0,0.0,0.0,0.0,0.0,0.0,0.0,0.0,0.0,0.0,0.0,0.0,0.0,0.0,0.0,0.0,0.0,0.0,0.0,0.0,0.0,0.0,0.0,0.0,0.0,2.4086,2.3771,2.352,2.3133,2.2566,2.2696,2.2948,0.0,0.0,0.0,0.0,0.0,0.0,0.0,0.0,0.0,0.0,0.0,0.0,0.0,0.0,0.0,0.0,0.0,0.0,0.0,0.0,0.0,0.0,0.0,0.0,0.0,0.0,0.0,0.0,0.0,0.0,0.0,0.0,0.0,0.0,0.0,0.0,0.0,0.0,0.0,0.0,0.0,0.0,0.0,0.0,0.0,0.0,0.0,0.0,0.0,0.0,0.0,0.0,0.0,0.0,0.0,0.0,0.0,0.0,0.0,0.0,0.0,0.0,0.0,0.0,0.0,0.0,0.0,0.0,0.0,0.0,0.0,0.0,0.0,0.0,0.0,0.0,0.0,0.0,0.0,0.0,0.0,0.0,0.0,0.0,0.0,0.0,0.0,0.0,0.0,0.0,0.0,0.0,0.0,0.0,0.0,0.0,0.0,0.0,0.0,0.0,0.0,0.0,0.0,0.0,0.0,0.0,0.0,0.0,2.4987,2.4382,2.4536,2.4523,2.4159,2.3551,2.3397,0.0,0.0,0.0,0.0,0.0,0.0,0.0,0.0,0.0,0.0,0.0,0.0,0.0,0.0,0.0,0.0,0.0,0.0,0.0,0.0,0.0,0.0,0.0,0.0,0.0,0.0,0.0,0.0,0.0,0.0,0.0,0.0,0.0,0.0,0.0,0.0,0.0,0.0,0.0,0.0,0.0,0.0,0.0,0.0,0.0,0.0,0.0,0.0,0.0,0.0,0.0,0.0,0.0,0.0,0.0,0.0,0.0,0.0,0.0,0.0,0.0,0.0,0.0,0.0,0.0,0.0,0.0,0.0,0.0,0.0,0.0,0.0,0.0,0.0,0.0,0.0,0.0,0.0,0.0,0.0,0.0,0.0,0.0,0.0,0.0,0.0,0.0,0.0,0.0,0.0,0.0,0.0,0.0,0.0,0.0,0.0,0.0,0.0,0.0,0.0,0.0,0.0,0.0,0.0,0.0,0.0,0.0,0.0,2.6551,2.6616,2.6097,2.5874,2.6014,2.5218,2.4852,0.0,0.0,0.0,0.0,0.0,0.0,0.0,0.0,0.0,0.0,0.0,0.0,0.0,0.0,0.0,0.0,0.0,0.0,0.0,0.0,0.0,0.0,0.0,0.0,0.0,0.0,0.0,0.0,0.0,0.0,0.0,0.0,0.0,0.0,0.0,0.0,0.0,0.0,0.0,0.0,0.0,0.0,0.0,0.0,0.0,0.0,0.0,0.0,2.5333,0.0,0.0,0.0,0.0,0.0,0.0,0.0,0.0,0.0,0.0,0.0,0.0,0.0,0.0,0.0,0.0,0.0,0.0,0.0,0.0,0.0,0.0,0.0,0.0,0.0,0.0,0.0,0.0,0.0,0.0,0.0,0.0,0.0,0.0,0.0,0.0,0.0,0.0,0.0,0.0,0.0,0.0,0.0,0.0,0.0,0.0,0.0,0.0,0.0,0.0,0.0,0.0,0.0,0.0,0.0,0.0,0.0,0.0,0.0,2.7218,2.7203,2.6977,2.6836,2.6765,2.6455,2.6113,0.0,0.0,0.0,0.0,0.0,0.0,0.0,0.0,0.0,0.0,0.0,0.0,0.0,0.0,0.0,0.0,0.0,0.0,0.0,0.0,0.0,0.0,0.0,0.0,0.0,0.0,0.0,0.0,0.0,0.0,0.0,0.0,0.0,0.0,0.0,0.0,0.0,0.0,0.0,0.0,0.0,0.0,0.0,0.0,0.0,0.0,0.0,0.0,0.0,0.0,0.0,0.0,0.0,0.0,0.0,0.0,0.0,0.0,0.0,0.0,0.0,0.0,0.0,0.0,0.0,0.0,0.0,0.0,0.0,0.0,0.0,0.0,0.0,0.0,0.0,0.0,0.0,0.0,0.0,0.0,0.0,0.0,0.0,0.0,0.0,0.0,0.0,0.0,0.0,0.0,0.0,0.0,0.0,0.0,0.0,0.0,0.0,0.0,0.0,0.0,0.0,0.0,0.0,0.0,0.0,0.0,0.0,2.8037,2.7659,2.7382,2.7613,2.7517,2.7225,2.7431,2.7206,2.64,0.0,0.0,0.0,0.0,0.0,0.0,0.0,0.0,0.0,0.0,0.0,0.0,0.0,0.0,0.0,0.0,0.0,0.0,0.0,0.0,0.0,0.0,0.0,0.0,0.0,0.0,0.0,0.0,0.0,0.0,0.0,0.0,0.0,0.0,0.0,0.0,0.0,0.0,2.7228,2.7297,0.0,0.0,0.0,0.0,0.0,0.0,0.0,0.0,2.7461,0.0,0.0,0.0,0.0,0.0,0.0,0.0,0.0,0.0,0.0,0.0,0.0,0.0,0.0,0.0,0.0,0.0,0.0,0.0,0.0,0.0,0.0,0.0,0.0,0.0,0.0,0.0,0.0,0.0,0.0,0.0,0.0,0.0,0.0,0.0,0.0,0.0,0.0,0.0,0.0,0.0,0.0,0.0,0.0,0.0,0.0,0.0,0.0,0.0,0.0,0.0,0.0,0.0,0.0,0.0,0.0,2.8955,2.8592,2.8454,2.8588,2.8304,2.8145,2.8067,2.813,2.797,2.7584,0.0,0.0,0.0,0.0,0.0,0.0,0.0,0.0,0.0,0.0,0.0,0.0,0.0,0.0,0.0,0.0,0.0,0.0,0.0,0.0,0.0,0.0,0.0,0.0,0.0,0.0,0.0,0.0,0.0,0.0,0.0,0.0,0.0,0.0,0.0,0.0,0.0,0.0,0.0,2.8489,2.8558,0.0,0.0,0.0,0.0,0.0,0.0,0.0,0.0,2.831,0.0,0.0,0.0,0.0,0.0,0.0,0.0,0.0,0.0,0.0,0.0,0.0,0.0,0.0,0.0,0.0,0.0,0.0,0.0,0.0,0.0,0.0,0.0,0.0,0.0,0.0,0.0,0.0,0.0,0.0,0.0,0.0,0.0,0.0,0.0,0.0,0.0,0.0,0.0,0.0,0.0,0.0,0.0,0.0,0.0,0.0,0.0,0.0,0.0,0.0,0.0,0.0,0.0,0.0,0.0,2.8998,2.861,2.8441,2.8584,2.8398,2.8301,2.8301,2.8301,2.8237,0.0,0.0,0.0,0.0,0.0,0.0,0.0,0.0,0.0,0.0,0.0,0.0,0.0,0.0,0.0,0.0,0.0,0.0,0.0,0.0,0.0,0.0,0.0,0.0,0.0,0.0,0.0,0.0,0.0,0.0,0.0,0.0,0.0,0.0,0.0,0.0,0.0,0.0,0.0,0.0,2.939,2.939,2.9263,0.0,0.0,0.0,0.0,0.0,0.0,2.9331,2.9203,0.0,0.0,0.0,0.0,0.0,0.0,0.0,0.0,0.0,0.0,0.0,0.0,0.0,0.0,0.0,0.0,0.0,0.0,0.0,0.0,0.0,0.0,0.0,0.0,0.0,0.0,0.0,0.0,0.0,0.0,0.0,0.0,0.0,0.0,0.0,0.0,0.0,0.0,0.0,0.0,0.0,0.0,0.0,0.0,0.0,0.0,0.0,0.0,0.0,0.0,0.0,0.0,0.0,0.0,0.0,2.8834,2.8457,2.8301,2.8301,2.8301,2.8301,2.8301,2.8301,2.8301,0.0,0.0,0.0,0.0,0.0,0.0,0.0,0.0,0.0,0.0,0.0,0.0,0.0,0.0,0.0,0.0,0.0,0.0,0.0,0.0,0.0,0.0,0.0,0.0,0.0,0.0,0.0,0.0,0.0,0.0,0.0,0.0,0.0,0.0,0.0,0.0,0.0,0.0,0.0,0.0,0.0,3.0167,3.0098,3.0098,0.0,0.0,0.0,0.0,3.0098,3.0039,0.0,0.0,0.0,0.0,0.0,0.0,0.0,0.0,0.0,0.0,0.0,0.0,0.0,0.0,0.0,0.0,0.0,0.0,0.0,0.0,0.0,0.0,0.0,0.0,0.0,0.0,0.0,0.0,0.0,0.0,0.0,0.0,0.0,0.0,0.0,0.0,0.0,0.0,0.0,0.0,0.0,0.0,0.0,0.0,0.0,0.0,0.0,0.0,0.0,0.0,0.0,0.0,0.0,0.0,0.0,0.0,2.872,2.8437,2.8301,2.8301,2.8291,2.8301,2.8301,2.8301,2.8301,0.0,0.0,0.0,0.0,0.0,0.0,0.0,0.0,0.0,0.0,0.0,0.0,0.0,0.0,0.0,0.0,0.0,0.0,0.0,0.0,0.0,0.0,0.0,0.0,0.0,0.0,0.0,0.0,0.0,0.0,0.0,0.0,0.0,0.0,0.0,0.0,0.0,0.0,0.0,0.0,0.0,3.1034,3.085,3.0791,3.0675,0.0,0.0,3.0791,3.0791,3.0499,0.0,0.0,0.0,0.0,0.0,0.0,0.0,0.0,0.0,0.0,0.0,0.0,0.0,0.0,0.0,0.0,0.0,0.0,0.0,0.0,0.0,0.0,0.0,0.0,0.0,0.0,0.0,0.0,0.0,0.0,0.0,0.0,0.0,0.0,0.0,0.0,0.0,0.0,0.0,0.0,0.0,0.0,0.0,0.0,0.0,0.0,0.0,0.0,0.0,0.0,0.0,0.0,0.0,0.0,0.0,2.9662,2.9416,2.9311,2.9248,2.9248,2.9142,2.9026,2.9026,2.8717,2.8621,0.0,0.0,0.0,0.0,0.0,0.0,0.0,0.0,0.0,0.0,0.0,0.0,0.0,0.0,0.0,0.0,0.0,0.0,0.0,0.0,0.0,0.0,0.0,0.0,0.0,0.0,0.0,0.0,0.0,0.0,0.0,0.0,0.0,0.0,0.0,0.0,0.0,0.0,0.0,0.0,0.0,0.0,3.1176,3.1135,0.0,0.0,0.0,3.0864,3.0864,0.0,0.0,0.0,0.0,0.0,0.0,0.0,0.0,0.0,0.0,0.0,0.0,0.0,0.0,0.0,0.0,0.0,0.0,0.0,0.0,0.0,0.0,0.0,0.0,0.0,0.0,0.0,0.0,0.0,0.0,0.0,0.0,0.0,0.0,0.0,0.0,0.0,0.0,0.0,0.0,0.0,0.0,0.0,0.0,0.0,0.0,0.0,0.0,0.0,0.0,0.0,0.0,0.0,0.0,0.0,0.0,0.0,3.0287,3.0245,3.0193,3.0203,3.0036,2.9869,2.9816,2.9353,0.0,0.0,0.0,0.0,0.0,0.0,0.0,0.0,0.0,0.0,0.0,0.0,0.0,0.0,0.0,0.0,0.0,0.0,0.0,0.0,0.0,0.0,0.0,0.0,0.0,0.0,0.0,3.1085,0.0,0.0,0.0,0.0,0.0,0.0,0.0,0.0,0.0,0.0,0.0,0.0,0.0,0.0,3.2009,3.1655,3.1761,3.1889,0.0,0.0,3.1629,3.1461,3.0898,3.0479,0.0,0.0,0.0,0.0,0.0,0.0,0.0,0.0,0.0,0.0,0.0,0.0,0.0,0.0,0.0,0.0,0.0,0.0,0.0,0.0,0.0,0.0,0.0,0.0,0.0,0.0,0.0,0.0,0.0,0.0,0.0,0.0,0.0,0.0,0.0,0.0,0.0,0.0,0.0,0.0,0.0,0.0,0.0,0.0,0.0,0.0,0.0,0.0,0.0,0.0,0.0,0.0,0.0,0.0,3.1135,3.1135,3.0888,3.0785,3.0733,3.0733,3.0588,3.0339,3.0287,3.0183,0.0,0.0,0.0,0.0,0.0,0.0,0.0,0.0,0.0,0.0,0.0,0.0,0.0,0.0,0.0,0.0,0.0,0.0,0.0,0.0,0.0,0.0,0.0,0.0,0.0,0.0,0.0,0.0,0.0,0.0,0.0,0.0,0.0,0.0,0.0,0.0,0.0,0.0,0.0,0.0,0.0,3.247,3.2437,3.3095,3.3552,0.0,0.0,3.3996,3.3266,3.243,3.1593,3.0917,0.0,0.0,0.0,0.0,0.0,0.0,0.0,0.0,0.0,0.0,0.0,0.0,0.0,0.0,0.0,0.0,0.0,0.0,0.0,0.0,0.0,0.0,0.0,0.0,0.0,0.0,0.0,0.0,0.0,0.0,0.0,0.0,0.0,0.0,0.0,0.0,0.0,0.0,0.0,0.0,0.0,0.0,0.0,0.0,0.0,0.0,0.0,0.0,0.0,0.0,0.0,0.0,0.0,3.2488,3.2689,3.2739,3.2789,3.2739,3.2448,3.2246,3.2145,3.1483,3.1197,0.0,0.0,0.0,0.0,0.0,0.0,0.0,0.0,0.0,0.0,0.0,0.0,0.0,0.0,0.0,0.0,0.0,0.0,0.0,0.0,0.0,0.0,0.0,0.0,0.0,0.0,0.0,0.0,3.2064,3.2398,3.2639,0.0,0.0,0.0,0.0,0.0,0.0,0.0,0.0,0.0,0.0,3.3513,3.3208,3.3902,0.0,0.0,3.4536,3.453,3.4073,3.3236,3.2598,3.2286,3.2091,0.0,0.0,0.0,0.0,0.0,0.0,0.0,0.0,0.0,0.0,0.0,0.0,0.0,0.0,0.0,0.0,0.0,0.0,0.0,0.0,0.0,0.0,0.0,0.0,0.0,0.0,0.0,0.0,0.0,0.0,0.0,0.0,0.0,0.0,0.0,0.0,0.0,0.0,0.0,0.0,0.0,0.0,0.0,0.0,0.0,0.0,0.0,0.0,0.0,0.0,0.0,0.0,3.3659,3.3808,3.4103,3.425,3.425,3.3857,3.3659,3.3549,3.2839,3.2488,0.0,0.0,0.0,0.0,0.0,0.0,0.0,0.0,0.0,0.0,0.0,0.0,0.0,0.0,0.0,0.0,0.0,0.0,0.0,0.0,0.0,0.0,0.0,0.0,0.0,0.0,0.0,0.0,3.3262,3.3709,3.3808,0.0,0.0,0.0,0.0,0.0,0.0,0.0,0.0,0.0,0.0,3.4375,3.4214,3.4875,3.5467,3.5634,3.5777,3.5695,3.5178,3.4472,3.3832,3.3551,0.0,0.0,0.0,0.0,0.0,0.0,0.0,0.0,0.0,0.0,0.0,0.0,0.0,0.0,0.0,0.0,0.0,0.0,0.0,0.0,0.0,0.0,0.0,0.0,0.0,0.0,0.0,0.0,0.0,0.0,3.4573,0.0,0.0,0.0,0.0,0.0,0.0,0.0,0.0,0.0,0.0,0.0,0.0,0.0,0.0,0.0,0.0,0.0,0.0,0.0,0.0,0.0,0.0,3.4372,3.4396,3.4677,3.4823,3.4775,3.4775,3.4617,3.4385,3.4337,3.4239,3.3944,0.0,0.0,0.0,0.0,0.0,0.0,0.0,0.0,0.0,0.0,0.0,0.0,0.0,0.0,0.0,0.0,0.0,0.0,0.0,0.0,0.0,0.0,0.0,0.0,0.0,0.0,3.3941,3.4433,3.4677,0.0,0.0,0.0,0.0,0.0,0.0,0.0,0.0,0.0,0.0,3.4754,3.4991,3.5471,3.6239,3.6962,3.7509,3.7979,3.7915,3.6927,3.628,3.5566,0.0,0.0,0.0,0.0,0.0,0.0,0.0,0.0,0.0,0.0,0.0,0.0,0.0,0.0,0.0,0.0,0.0,0.0,0.0,0.0,0.0,0.0,0.0,0.0,0.0,0.0,0.0,3.4981,3.432,0.0,0.0,0.0,0.0,0.0,0.0,0.0,0.0,0.0,0.0,0.0,3.509,3.509,0.0,0.0,0.0,0.0,0.0,0.0,0.0,0.0,0.0,0.0,0.0,0.0,3.5126,3.5464,3.574,3.5883,3.5835,3.5704,3.556,3.5452,3.5114,3.4811,3.4556,0.0,0.0,0.0,0.0,0.0,0.0,0.0,0.0,0.0,0.0,0.0,0.0,0.0,0.0,0.0,0.0,0.0,0.0,0.0,0.0,0.0,0.0,0.0,0.0,0.0,3.4775,0.0,0.0,0.0,0.0,0.0,0.0,0.0,0.0,0.0,0.0,0.0,3.4835,3.5015,3.5381,3.5805,3.6333,3.711,3.7804,0.0,0.0,0.0,0.0,0.0,0.0,0.0,0.0,0.0,0.0,0.0,0.0,0.0,0.0,3.6231,3.5738,3.5768,3.5936,3.6237,0.0,0.0,0.0,0.0,0.0,0.0,0.0,0.0,0.0,0.0,0.0,0.0,0.0,0.0,3.4927,0.0,3.4445,0.0,0.0,0.0,0.0,0.0,0.0,0.0,0.0,3.5608,3.5704,3.5895,3.5895,3.5752,0.0,3.55,3.5211,0.0,0.0,0.0,0.0,0.0,0.0,0.0,0.0,3.5656,3.6003,3.6288,3.6417,3.6405,3.6241,3.6146,3.6146,3.58,3.5512,3.5211,3.5223,3.5078,0.0,0.0,0.0,0.0,0.0,0.0,0.0,0.0,0.0,0.0,0.0,0.0,0.0,0.0,0.0,0.0,0.0,0.0,0.0,0.0,0.0,0.0,0.0,3.5464,0.0,0.0,0.0,0.0,0.0,0.0,0.0,0.0,0.0,3.4884,3.5211,3.5476,3.5476,3.6021,3.662,3.7143,0.0,0.0,0.0,0.0,0.0,0.0,0.0,3.8631,3.8303,3.8315,3.8303,3.8303,3.8262,3.8303,3.825,0.0,0.0,3.74,3.7292,3.74,3.7643,3.7684,3.7696,3.7684,3.7684,3.759,0.0,0.0,0.0,0.0,0.0,0.0,0.0,0.0,3.587,3.5631,0.0,3.5343,0.0,0.0,0.0,0.0,0.0,3.6298,0.0,0.0,3.6452,3.6452,3.6499,3.6452,3.6298,3.6108,3.6061,3.593,3.5668,3.5404,0.0,0.0,0.0,0.0,0.0,0.0,3.6015,3.6015,3.6275,3.6417,3.6417,3.6417,3.6417,3.6417,3.6417,3.6275,3.6003,3.6015,3.586,3.562,3.5368,0.0,0.0,0.0,0.0,0.0,0.0,0.0,0.0,0.0,0.0,0.0,0.0,0.0,0.0,0.0,0.0,0.0,0.0,0.0,0.0,3.5716,0.0,0.0,0.0,0.0,0.0,0.0,0.0,0.0,0.0,0.0,3.5668,3.586,3.6028,3.604,0.0,0.0,0.0,0.0,3.9108,3.9609,3.9697,3.9594,3.9374,3.931,3.9206,3.8893,0.0,0.0,3.8841,3.8841,3.8841,3.8841,3.8841,3.8736,3.8473,3.8409,3.8461,3.8736,3.8788,3.8853,3.8853,3.8788,3.8684,3.6887,0.0,0.0,0.0,0.0,3.6581,3.6521,3.6581,3.6474,3.6298,3.6168,3.6073,0.0,0.0,0.0,0.0,0.0,0.0,3.7361,3.7697,3.7697,3.7776,3.7874,3.7776,3.7651,3.7559,3.7248,3.7108,3.7176,3.6769,3.631,3.587,0.0,0.0,0.0,0.0,3.6275,3.6275,3.6358,3.6417,3.6417,3.6417,3.6417,3.6417,3.6417,3.637,3.6275,3.6275,3.6146,3.592,3.5824,0.0,0.0,0.0,0.0,0.0,0.0,0.0,0.0,0.0,0.0,0.0,0.0,0.0,0.0,0.0,0.0,0.0,0.0,0.0,3.5764,3.6098,3.631,0.0,0.0,0.0,0.0,0.0,0.0,0.0,0.0,0.0,3.6181,3.6228,3.6413,0.0,0.0,3.7538,3.8492,3.8755,3.9069,3.9609,3.9697,0.0,0.0,3.9581,3.953,3.9478,3.9426,3.9426,3.9426,3.9426,3.9426,3.9426,3.9426,3.9426,3.9322,3.9154,3.9154,3.9374,3.9426,3.9426,3.9426,3.9426,3.9374,3.7459,3.7168,3.7041,3.7074,3.7261,3.7214,3.7168,3.7168,3.7062,3.7015,3.6968,3.6956,3.7142,3.7466,3.7789,0.0,0.0,0.0,3.8381,3.8607,3.8621,3.8697,3.8819,3.8697,3.8562,3.8485,3.82,3.8063,3.8069,3.7684,3.7387,3.7049,0.0,0.0,3.6687,3.6593,3.6534,3.6546,3.6452,3.6417,3.6417,3.6417,3.6417,3.6417,3.6417,3.6417,3.6417,3.6417,3.6323,3.6181,3.6146,3.6051,0.0,0.0,0.0,0.0,0.0,0.0,0.0,0.0,0.0,0.0,0.0,3.5356,3.55,0.0,0.0,0.0,3.586,3.5991,3.6146,3.631,0.0,0.0,0.0,0.0,0.0,0.0,0.0,3.6417,3.6417,3.6417,3.6417,3.6417,3.6606,3.7111,3.7362,3.7839,3.8793,0.0,3.9308,3.9647,3.9697,3.9697,3.9697,3.9697,3.9697,3.9697,3.9697,3.9697,3.9697,3.9697,3.9697,3.9697,3.9697,3.9697,3.9697,3.9581,3.953,3.9697,3.9697,3.9697,3.9697,3.9697,3.9645,3.8037,3.8051,3.7992,3.7841,3.7564,3.7808,3.79,3.79,3.7657,3.7723,3.7939,3.7926,3.82,3.8737,3.9216,0.0,3.938,3.9424,3.9424,3.9482,3.9482,3.9513,3.9513,3.9513,3.9367,3.9118,3.9073,3.8926,3.8689,3.8459,3.844,3.8692,3.7769,3.7248,3.7155,3.6956,3.6803,3.6769,3.6593,3.6499,3.6452,3.6452,3.6465,3.6417,3.6405,3.6405,3.6405,3.6405,3.6452,3.6452,3.6452,3.6323,3.6098,0.0,0.0,0.0,0.0,0.0,0.0,0.0,0.0,0.0,0.0,0.0,0.0,0.0,0.0,0.0,3.6275,0.0,3.6417,3.6417,0.0,0.0,0.0,3.6417,3.6417,3.6417,3.6417,3.6417,0.0,0.0,3.6417,3.6417,3.6619,3.7222,3.7688,3.8228,3.8894,3.9422,3.9736,3.9749,3.9749,3.9749,3.98,3.98,3.98,3.9749,3.9749,3.9749,3.9697,3.9697,3.9697,3.9697,3.9697,3.9697,3.9697,3.9685,3.9697,3.9697,3.9697,3.9697,3.9697,3.9697,3.9697,3.8948,3.8962,3.8948,3.8512,3.7795,3.7854,3.79,3.79,3.7998,3.8181,3.8408,3.8562,3.9011,3.9689,4.0184,4.0386,4.04,4.0545,4.0716,4.0915,4.1057,4.1212,4.1366,4.1212,4.1085,4.1001,4.0474,4.0258,4.0374,3.9648,3.9397,3.9601,3.9069,3.8485,3.7972,3.788,3.7651,3.732,3.7273,3.7134,3.6968,3.6922,3.6815,3.6615,3.6628,3.6628,3.6628,3.6628,3.6722,3.6922,3.6922,3.6875,3.6841,3.6841,0.0,0.0,0.0,0.0,0.0,0.0,0.0,0.0,0.0,3.7028,3.6875,0.0,3.6653,0.0,3.6358,3.6417,3.6417,3.6417,0.0,0.0,3.6417,3.6417,3.6417,3.6417,3.6417,3.6417,3.6417,3.6417,3.6417,3.6417,3.6817,3.7933,3.8013,3.8354,3.932,3.979,4.0032,4.0032,4.0185,4.0313,4.03,4.03,4.0249,4.0032,4.0019,3.9942,3.9749,3.9697,3.9697,3.9697,3.9697,3.9697,3.9697,3.9697,3.9697,3.9697,3.9697,3.9697,3.9697,3.9697,3.9697,3.9305,3.9305,3.9305,3.8993,3.8512,3.8512,3.8512,3.8512,3.8621,3.8845,3.91,3.9618,4.0185,4.0759,4.11,4.1254,4.1296,4.1381,4.1548,4.166,4.1771,4.1881,4.199,4.1881,4.184,4.1798,4.1408,4.1282,4.1394,4.0816,4.0603,4.0716,4.0286,3.9851,3.9428,3.8819,3.8381,3.8122,3.7907,3.7723,3.7618,3.7466,3.7281,3.7062,3.7129,3.7129,3.7049,3.7129,3.7268,3.742,3.742,3.7407,3.7407,3.742,3.7572,0.0,0.0,0.0,0.0,0.0,0.0,0.0,0.0,0.0,0.0,0.0,3.742,3.7049,3.7049,3.7036,3.7036,3.7036,3.7002,3.6888,3.6888,3.6841,3.6734,3.6841,3.6888,3.6888,3.6888,3.6922,3.7002,3.6815,3.7146,3.8361,3.8549,3.8914,3.9842,4.0287,4.0478,4.063,4.0782,4.0833,4.0833,4.0833,4.0795,4.0668,4.0618,4.0516,4.0287,4.0236,4.0134,3.9929,3.989,3.9839,3.9749,3.9697,3.9697,3.9697,3.9697,3.9697,3.9697,3.9885,4.0061,3.9645,3.9631,3.9645,3.9631,3.9631,3.9645,3.9513,3.9305,3.9349,3.9543,3.9867,4.0745,4.1381,4.1827,4.2005,4.2073,4.2087,4.2129,4.2114,4.2114,4.2155,4.2155,4.2155,4.2155,4.217,4.217,4.2155,4.2114,4.2129,4.1895,4.1785,4.1785,4.1339,4.1113,4.1071,3.9897,3.9206,3.9042,3.8594,3.8381,3.8336,3.8141,3.7867,3.7677,3.788,3.788,3.7664,3.7835,3.7946,3.8004,3.7978,3.8037,3.8037,3.8069,3.8277,0.0,3.88,0.0,0.0,0.0,0.0,0.0,0.0,0.0,0.0,3.8485,3.8187,3.7946,3.79,3.79,3.79,3.79,3.7821,3.7631,3.7631,3.7539,3.7328,3.7492,3.7631,3.7598,3.7598,3.7664,3.773,3.7466,3.7593,3.8611,3.9138,3.9722,4.0484,4.0932,4.1172,4.1458,4.1558,4.1706,4.1657,4.1607,4.1607,4.1521,4.1508,4.1358,4.1034,4.0933,4.0782,4.0338,4.0185,4.0083,3.9839,3.9788,3.9749,3.9749,3.9824,3.9835,3.9873,4.0162,4.0513,4.1492,4.1492,4.1492,4.1492,4.1492,4.1492,4.0645,3.9336,3.9689,4.03,4.1071,4.1577,4.1951,4.231,4.2485,4.2566,4.2592,4.2754,4.282,4.282,4.2996,4.3036,4.3036,4.3036,4.3036,4.3036,4.29,4.282,4.278,4.2444,4.2254,4.2254,4.1978,4.1825,4.1784,0.0,0.0,0.0,3.9486,3.9264,3.9114,3.9024,3.8877,3.8652,3.8671,0.0,3.8639,3.8684,3.8774,3.9024,3.9176,0.0,0.0,0.0,0.0,0.0,0.0,0.0,0.0,0.0,0.0,0.0,4.1519,4.0916,3.9752,3.9104,3.8729,3.8671,3.8477,3.8373,3.8373,3.8373,3.8328,3.8296,3.8296,3.8296,3.8251,3.831,3.8264,3.8076,3.8076,3.8018,3.7854,3.773,3.8077,3.9078,3.9807,4.0539,4.1493,4.1759,4.2039,4.2417,4.2854,4.306,4.2881,4.3026,4.2881,4.2493,4.2431,4.2284,4.1733,4.1372,4.1121,4.0782,4.0605,4.0453,4.0351,4.0198,4.0032,4.0019,4.0192,4.0362,4.0362,4.0438,4.0639,4.199,0.0,4.199,4.199,0.0,4.199,4.1492,4.0645,4.0873,4.1367,4.1897,4.2213,4.2485,4.2688,4.293,4.297,4.301,4.309,4.317,4.3155,4.3265,4.3305,4.3305,4.3305,4.3305,4.3305,4.3195,4.317,4.3115,4.293,4.2824,4.2864,4.2618,4.2482,4.2482,4.2374,4.1908,4.1001,4.0674,4.0416,4.0343,4.0126,3.9851,3.9604,0.0,0.0,0.0,0.0,0.0,0.0,0.0,0.0,0.0,0.0,0.0,4.083,4.0702,4.0958,4.1619,4.1731,4.1868,4.2307,4.2348,4.1922,4.0873,4.036,4.0087,4.0087,3.9942,3.9899,3.9899,3.9885,3.9754,3.9593,3.9549,3.9475,3.9295,3.9326,3.937,3.9251,3.9176,3.9056,3.906,3.8729,3.8836,3.9577,4.0435,4.1205,4.195,4.2515,4.3012,4.3505,4.3899,4.4101,4.3865,4.3899,4.3899,4.3519,4.3423,4.3136,4.2555,4.2275,4.1931,4.1448,4.1198,4.1047,4.0744,4.0491,4.0326,4.0438,4.0521,4.0739,4.1153,4.1317,4.1404,4.2237,4.2252,4.2252,4.2237,4.2252,4.2237,4.2237,4.2211,0.0,0.0,0.0,4.2688,4.2875,4.3076,4.325,4.3305,4.3305,4.3305,4.3305,4.3305,4.3305,4.3305,4.3305,4.3305,4.3305,4.3305,4.3305,4.3305,4.3305,4.3305,4.3305,4.3305,4.3115,4.3076,4.3036,4.2875,4.2592,4.2237,4.18,4.1564,4.1465,4.1114,4.0845,4.0603,4.0802,4.0845,4.0603,4.0788,4.0944,4.0944,4.1142,4.1269,4.1254,4.1296,4.1381,4.1591,4.1437,4.1548,4.2117,4.2199,4.2363,4.2769,4.2809,4.2526,4.1868,4.1617,4.1478,4.1421,4.1421,4.1421,4.1421,4.1421,4.1239,4.0901,4.0845,4.0703,4.0402,4.0445,4.0517,4.0474,4.0243,4.0156,4.0272,3.9807,3.9645,4.0191,4.1118,4.2048,4.2695,4.344,4.404,4.4476,4.4815,4.4876,4.469,4.4676,4.463,4.4411,4.427,4.3926,4.3423,4.3053,4.2631,4.1957,4.1796,4.1547,4.1147,4.0911,4.0799,4.0936,4.09,4.1065,4.1949,4.2288,4.2326,4.3076,4.3115,4.313,4.313,4.313,4.313,4.313,4.3076,4.2581,4.2581,4.2915,4.2955,4.3076,4.3265,4.329,4.3305,4.3305,4.3305,4.3305,4.3305,4.3305,4.3305,4.3305,4.3305,4.3305,4.3305,4.3305,4.3305,4.3305,4.3305,4.3305,4.3305,4.3275,4.325,4.325,4.325,4.317,4.3115,4.2541,4.2158,4.1922,4.1825,4.1784,4.1784,4.1784,4.1825,4.1784,4.1784,4.184,4.1825,4.2075,4.2213,4.2213,4.2377,4.2485,4.2526,4.247,4.2607,4.2835,4.286,4.2955,4.317,4.321,4.293,4.2392,4.2254,4.2158,4.1964,4.1908,4.1893,4.1893,4.1908,4.1908,4.1811,4.1825,4.1769,4.1659,4.1548,4.1451,4.1241,4.0873,4.0602,4.0688,4.0416,4.0345,4.0914,4.1843,4.3208,4.4419,4.4949,4.5032,4.5276,4.5549,4.5595,4.5367,4.5518,4.5321,4.483,4.469,4.4303,4.3566,4.3149,4.2741,4.2413,4.2141,4.1944,4.1637,4.1551,4.1402,4.1348,4.1549,4.1961,4.2238,4.2577,4.2823,4.3305,4.3305,4.3305,4.3305,4.3305,4.3305,4.3305,4.329,4.3025,4.297,4.3155,4.317,4.321,4.3305,4.3305,4.3305,4.3305,4.3305,4.3305,4.3305,4.3305,4.3305,4.3305,4.3305,4.3305,4.3305,4.3305,4.3305,4.3305,4.3305,4.3305,4.3305,4.3305,4.3305,4.3305,4.3305,4.3305,4.329,4.2945,4.2673,4.2552,4.2415,4.2389,4.2389,4.2389,4.2374,4.2389,4.2374,4.2389,4.2374,4.2607,4.2729,4.2729,4.2809,4.2875,4.2875,4.2754,4.2809,4.2981,4.313,4.3195,4.329,4.3305,4.3185,4.289,4.2905,4.285,4.2714,4.2699,4.2699,4.2714,4.2714,4.2644,4.2537,4.2537,4.2496,4.2389,4.2322,4.2199,4.2075,4.1841,4.1619,4.1633,4.1381,4.124,4.1481,4.2409,4.3665,4.5046,4.517,4.517,4.5458,4.5595,4.5595,4.5504,4.5595,4.5398,4.4847,4.4523,4.404,4.3375,4.297,4.2741,4.24,4.2289,4.2225,4.1953,4.1799,4.1789,4.2021,4.2055,4.2263,4.259,4.2823,4.2961,4.3305,4.3305,4.3305,4.3305,4.3305,4.3305,4.3305,4.3305,4.3305,4.3305,4.3305,4.3305,4.3305,4.3305,4.3305,4.3305,4.3305,4.3305,4.3305,4.3305,4.3305,4.3305,4.3305,4.3305,4.3305,4.3305,4.3305,4.3305,4.3305,4.3305,4.3305,4.3305,4.3305,4.3305,4.3305,4.3305,4.3305,4.3305,4.3155,4.3061,4.3076,4.293,4.285,4.285,4.285,4.2809,4.285,4.2809,4.285,4.285,4.301,4.3076,4.3061,4.3076,4.3076,4.3036,4.293,4.2875,4.3061,4.321,4.3305,4.3305,4.3305,4.3305,4.3305,4.3305,4.3305,4.3305,4.325,4.3305,4.3265,4.3265,4.325,4.3076,4.3076,4.2996,4.285,4.2809,4.2769,4.2729,4.2541,4.2392,4.2418,4.224,4.2192,4.2502,4.3041,4.3976,4.5006,4.5216,4.517,4.523,4.5321,4.5413,4.5398,4.5367,4.5124,4.462,4.4059,4.3505,4.2895,4.2728,4.2533,4.2177,4.219,4.2219,4.2079,4.1957,4.2006,4.2385,4.2465,4.2552,4.2848,4.2949,4.2986,4.3305,4.3305,4.3305,4.3305,4.3305,4.3305,4.3305,4.3305,4.3305,4.3305,4.3305,4.3305,4.3305,4.3305,4.3305,4.3305,4.3305,4.3305,4.3305,4.3305,4.3305,4.3305,4.3305,4.3305,4.3305,4.3305,4.3305,4.3305,4.3305,4.3305,4.3305,4.3305,4.3305,4.3305,4.3305,4.3305,4.3305,4.3305,4.329,4.3305,4.3265,4.325,4.325,4.325,4.325,4.325,4.321,4.325,4.325,4.325,4.325,4.3265,4.325,4.3305,4.329,4.3305,4.325,4.325,4.325,4.3305,4.3305,4.3305,4.3305,4.3305,4.3305,4.3305,4.3305,4.3305,4.3305,4.3305,4.3305,4.3305,4.3305,4.325,4.325,4.3265,4.321,4.309,4.2981,4.2955,4.2662,4.2459,4.2662,4.25,4.2872,4.3893,4.3961,4.4371,4.532,4.5261,4.4847,4.4676,4.4815,4.5032,4.5018,4.4954,4.4569,4.4059,4.3396,4.2798,4.2435,4.2043,4.1782,4.1832,4.1911,4.1887,4.2044,4.2048,4.2179,4.2518,4.278,4.2898,4.2974,4.2986,4.2986,4.3305,4.3305,4.3305,4.3305,4.3305,4.3305,4.3305,4.3305,4.3305,4.3305,4.3305,4.3305,4.3305,4.3305,4.3305,4.3305,4.3305,4.3305,4.3305,4.3305,4.3305,4.3305,4.3305,4.3305,4.3305,4.3305,4.3305,4.3305,4.3305,4.3305,4.3305,4.3305,4.3305,4.3305,4.3305,4.3305,4.3305,4.3305,4.3305,4.3305,4.3305,4.3305,4.3305,4.3305,4.3305,4.3305,4.3305,4.3305,4.3305,4.3305,4.3305,4.3305,4.3305,4.3305,4.3305,4.3305,4.3305,4.3305,4.3305,4.3305,4.3305,4.3305,4.3305,4.3305,4.3305,4.3305,4.3305,4.3305,4.3305,4.3305,4.3305,4.3305,4.3305,4.3305,4.3305,4.3305,4.3305,4.3235,4.317,4.3155,4.305,4.2945,4.301,4.289,4.3289,4.4253,4.4279,4.44,4.5078,4.4922,4.4476,4.404,4.4007,4.4101,4.4181,4.4181,4.3743,4.2999,4.2444,4.2043,4.1498,4.1348,4.1235,4.1185,4.1445,4.1697,4.1839,4.2219,4.2471,4.2747,4.2876,4.2986,4.2986,4.2986,4.2986,4.3305,4.3305,4.3305,4.3305,4.3305,4.3305,4.3305,4.3305,4.3305,4.3305,4.3305,4.3305,4.3305,4.3305,4.3305,4.3305,4.3305,4.3305,4.3305,4.3305,4.3305,4.3305,4.3305,4.3305,4.3305,4.3305,4.3305,4.3305,4.3305,4.3305,4.3305,4.3305,4.3305,4.3305,4.3305,4.3305,4.3305,4.3305,4.3305,4.3305,4.3305,4.3305,4.3305,4.3305,4.3305,4.3305,4.3305,4.3305,4.3305,4.3305,4.3305,4.3305,4.3305,4.3305,4.3305,4.3305,4.3305,4.3305,4.3305,4.3305,4.3305,4.3305,4.3305,4.3305,4.3305,4.3305,4.3305,4.3305,4.3305,4.3305,4.3305,4.3305,4.3305,4.3305,4.3305,4.3305,4.3305,4.3305,4.3305,4.3305,4.325,4.3305,4.325,4.3145,4.339,4.4324,4.4165,4.4049,4.4521,4.4504,4.4115,4.3519,4.3307,4.3259,4.3375,4.3232,4.2771,4.2137,4.162,4.1198,4.0605,4.0694,4.0744,4.0847,4.1209,4.153,4.1741,4.2138,4.265,4.2884,4.2986,4.2986,4.2986,4.2986,4.2986,4.3305,4.3305,4.3305,4.3305,4.3305,4.3305,4.3305,4.3305,4.3305,4.3305,4.3305,4.3305,4.3305,4.3305,4.3305,4.3305,4.3305,4.3305,4.3305,4.3305,4.3305,4.3305,4.3305,4.3305,4.3305,4.3305,4.3305,4.3305,4.3305,4.3305,4.3305,4.3305,4.3305,4.3305,4.3305,4.3305,4.3305,4.3305,4.3305,4.3305,4.3305,4.3305,4.3305,4.3305,4.3305,4.3305,4.3305,4.3305,4.3305,4.3305,4.3305,4.3305,4.3305,4.3305,4.3305,4.3305,4.3305,4.3305,4.3305,4.3305,4.3305,4.3305,4.3305,4.3305,4.3305,4.3305,4.3305,4.3305,4.3305,4.3305,4.3305,4.3305,4.3305,4.3305,4.3305,4.3305,4.3305,4.3305,4.3305,4.3305,4.3305,4.3305,4.3305,4.313,4.3468,4.408,4.3964,4.3726,4.4263,4.4209,4.3642,4.3115,4.2873,4.2873,4.2798,4.2555,4.2016,4.1408,4.092,4.0605,4.0453,4.0351,4.0351,4.0504,4.0873,4.1252,4.1615,4.2039,4.2524,4.2816,4.2949,4.2986,4.2986,4.2986,4.2986,4.3305,4.3305,4.3305,4.3305,4.3305,4.3305,4.3305,4.3305,4.3305,4.3305,4.3305,4.3305,4.3305,4.3305,4.3305,4.3305,4.3305,4.3305,4.3305,4.3305,4.3305,4.3305,4.3305,4.3305,4.3305,4.3305,4.3305,4.3305,4.3305,4.3305,4.3305,4.3305,4.3305,4.3305,4.3305,4.3305,4.3305,4.3305,4.3305,4.3305,4.3305,4.3305,4.3305,4.3305,4.3305,4.3305,4.3305,4.3305,4.3305,4.3305,4.3305,4.3305,4.3305,4.3305,4.3305,4.3305,4.3305,4.3305,4.3305,4.3305,4.3305,4.3305,4.3305,4.3305,4.3305,4.3305,4.3305,4.3305,4.3305,4.3305,4.3305,4.3305,4.3305,4.3305,4.3305,4.3305,4.3305,4.3305,4.3305,4.3305,4.3305,4.3305,4.325,4.3115,4.3297,4.3887,4.3487,4.3257,4.3349,4.3211,4.2825,4.2351,4.2141,4.1993,4.162,4.1647,4.1398,4.0782,4.0326,4.0185,4.0032,4.0056,4.0069,4.0499,4.0812,4.1417,4.1931,4.2385,4.2778,4.2866,4.2986,4.2986,4.2986,4.2986,4.2986,4.3305,4.3305,4.3305,4.3305,4.3305,4.3305,4.3305,4.3305,4.3305,4.3305,4.3305,4.3305,4.3305,4.3305,4.3305,4.3305,4.3305,4.3305,4.3305,4.3305,4.3305,4.3305,4.3305,4.3305,4.3305,4.3305,4.3305,4.3305,4.3305,4.3305,4.3305,4.3305,4.3305,4.3305,4.3305,4.3305,4.3305,4.3305,4.3305,4.3305,4.3305,4.3305,4.3305,4.3305,4.3305,4.3305,4.3305,4.3305,4.3305,4.3305,4.3305,4.3305,4.3305,4.3305,4.3305,4.3305,4.3305,4.3305,4.3305,4.3305,4.3305,4.3305,4.3305,4.3305,4.3305,4.3305,4.3305,4.3305,4.3305,4.3305,4.3305,4.3305,4.3305,4.3305,4.3305,4.3305,4.3305,4.3305,4.3305,4.3305,4.3305,4.3305,4.321,4.2955,4.3045,4.3459,4.2871,4.2367,4.2486,4.2275,4.1993,4.1547,4.1448,4.1235,4.0933,4.0846,4.0808,4.0236,4.0083,3.9878,3.9888,3.9887,4.0086,4.0526,4.1091,4.1731,4.2271,4.2766,4.2954,4.2961,4.2986,4.2986,4.2986,4.2986,4.2986,4.3305,4.3305,4.3305,4.3305,4.3305,4.3305,4.3305,4.3305,4.3305,4.3305,4.3305,4.3305,4.3305,4.3305,4.3305,4.3305,4.3305,4.3305,4.3305,4.3305,4.3305,4.3305,4.3305,4.3305,4.3305,4.3305,4.3305,4.3305,4.3305,4.3305,4.3305,4.3305,4.3305,4.3305,4.3305,4.3305,4.3305,4.3305,4.3305,4.3305,4.3305,4.3305,4.3305,4.3305,4.3305,4.3305,4.3305,4.3305,4.3305,4.3305,4.3305,4.3305,4.3305,4.3305,4.3305,4.3305,4.3305,4.3305,4.3305,4.3305,4.3305,4.3305,4.3305,4.3305,4.3305,4.3305,4.3305,4.3305,4.3305,4.3305,4.3305,4.3305,4.3305,4.3305,4.3305,4.3305,4.3305,4.3305,4.3305,4.3305,4.329,4.3195,4.2996,4.2648,4.2557,4.259,4.2018,4.1556,4.1883,4.1634,4.1222,4.0971,4.0933,4.0782,4.0427,4.0083,3.9993,3.9788,3.9788,3.9761,4.0,4.0074,4.0488,4.094,4.1668,4.2296,4.2547,4.2924,4.2936,4.2986,4.2986,4.2986,4.2986,4.2986,4.2986,4.3305,4.3305,4.3305,4.3305,4.3305,4.3305,4.3305,4.3305,4.3305,4.3305,4.3305,4.3305,4.3305,4.3305,4.3305,4.3305,4.3305,4.3305,4.3305,4.3305,4.3305,4.3305,4.3305,4.3305,4.3305,4.3305,4.3305,4.3305,4.3305,4.3305,4.3305,4.3305,4.3305,4.3305,4.3305,4.3305,4.3305,4.3305,4.3305,4.3305,4.3305,4.3305,4.3305,4.3305,4.3305,4.3305,4.3305,4.3305,4.3305,4.3305,4.3305,4.3305,4.3305,4.3305,4.3305,4.3305,4.3305,4.3305,4.3305,4.3305,4.3305,4.3305,4.3305,4.3305,4.3305,4.3305,4.3305,4.3305,4.3305,4.3305,4.3305,4.3305,4.3305,4.3305,4.3305,4.3305,4.3305,4.3305,4.3305,4.3305,4.317,4.2996,4.2754,4.2322,4.2037,4.2113,4.1411,4.0971,4.1143,4.0984,4.0643,4.044,4.044,4.0478,4.0173,4.0006,3.9941,3.9926,3.9912,3.9923,4.0136,4.0551,4.094,4.1467,4.2195,4.2678,4.2873,4.2986,4.2986,4.2986,4.2986,4.2986,4.2986,4.2986,4.2986,4.3305,4.3305,4.3305,4.3305,4.3305,4.3305,4.3305,4.3305,4.3305,4.3305,4.3305,4.3305,4.3305,4.3305,4.3305,4.3305,4.3305,4.3305,4.3305,4.3305,4.3305,4.3305,4.3305,4.3305,4.3305,4.3305,4.3305,4.3305,4.3305,4.3305,4.3305,4.3305,4.3305,4.3305,4.3305,4.3305,4.3305,4.3305,4.3305,4.3305,4.3305,4.3305,4.3305,4.3305,4.3305,4.3305,4.3305,4.3305,4.3305,4.3305,4.3305,4.3305,4.3305,4.3305,4.3305,4.3305,4.3305,4.3305,4.3305,4.3305,4.3305,4.3305,4.3305,4.3305,4.3305,4.3305,4.3305,4.3305,4.3305,4.3305,4.3305,4.3305,4.3305,4.3305,4.3305,4.3305,4.3305,4.3305,4.325,4.317,4.301,4.2714,4.2307,4.1773,4.141,4.1369,4.0776,4.0337,4.0445,4.0377,4.0134,4.0044,4.0083,4.0032,3.9981,3.9967,3.9991,4.0039,4.0099,4.0212,4.0375,4.104,4.1555,4.207,4.2723,4.2773,4.2986,4.2986,4.2986,4.2986,4.2986,4.2986,4.2986,4.2986,4.2986,4.3305,4.3305,4.3305,4.3305,4.3305,4.3305,4.3305,4.3305,4.3305,4.3305,4.3305,4.3305,4.3305,4.3305,4.3305,4.3305,4.3305,4.3305,4.3305,4.3305,4.3305,4.3305,4.3305,4.3305,4.3305,4.3305,4.3305,4.3305,4.3305,4.3305,4.3305,4.3305,4.3305,4.3305,4.3305,4.3305,4.3305,4.3305,4.3305,4.3305,4.3305,4.3305,4.3305,4.3305,4.3305,4.3305,4.3305,4.3305,4.3305,4.3305,4.3305,4.3305,4.3305,4.3305,4.3305,4.3305,4.3305,4.3305,4.3305,4.3305,4.3305,4.3305,4.3305,4.3305,4.3305,4.3305,4.3305,4.3305,4.3305,4.3305,4.3305,4.3305,4.3305,4.3305,4.3305,4.3305,4.3305,4.3305,4.321,4.3036,4.2795,4.2404,4.1771,4.1114,4.0752,4.0537,4.0037,3.9852,4.0056,4.0032,3.98,3.9749,3.9839,3.9839,3.9839,3.9839,3.9913,4.0251,4.0438,4.0727,4.0927,4.1593,4.2137,4.261,4.2911,4.2961,4.2986,4.2986,4.2986,4.2986,4.2986,4.2986,4.2986,4.2986,4.2986,4.3305,4.3305,4.3305,4.3305,4.3305,4.3305,4.3305,4.3305,4.3305,4.3305,4.3305,4.3305,4.3305,4.3305,4.3305,4.3305,4.3305,4.3305,4.3305,4.3305,4.3305,4.3305,4.3305,4.3305,4.3305,4.3305,4.3305,4.3305,4.3305,4.3305,4.3305,4.3305,4.3305,4.3305,4.3305,4.3305,4.3305,4.3305,4.3305,4.3305,4.3305,4.3305,4.3305,4.3305,4.3305,4.3305,4.3305,4.3305,4.3305,4.3305,4.3305,4.3305,4.3305,4.3305,4.3305,4.3305,4.3305,4.3305,4.3305,4.3305,4.3305,4.3305,4.3305,4.3305,4.3305,4.3305,4.3305,4.3305,4.3305,4.3305,4.3305,4.3305,4.3305,4.3305,4.3305,4.3305,4.3305,4.317,4.3061,4.2941,4.2511,4.1895,4.1269,4.0614,4.0182,4.0021,3.9664,3.9442,3.9829,3.989,3.9697,3.9697,3.9749,3.9749,3.9697,3.9697,3.991,4.0413,4.0865,4.1392,4.1731,4.2271,4.2665,4.3004,4.2949,4.2974,4.2986,4.2986,4.2986,4.2986,4.2986,4.2986,4.2986,4.2986,4.2986,4.3305,4.3305,4.3305,4.3305,4.3305,4.3305,4.3305,4.3305,4.3305,4.3305,4.3305,4.3305,4.3305,4.3305,4.3305,4.3305,4.3305,4.3305,4.3305,4.3305,4.3305,4.3305,4.3305,4.3305,4.3305,4.3305,4.3305,4.3305,4.3305,4.3305,4.3305,4.3305,4.3305,4.3305,4.3305,4.3305,4.3305,4.3305,4.3305,4.3305,4.3305,4.3305,4.3305,4.3305,4.3305,4.3305,4.3305,4.3305,4.3305,4.3305,4.3305,4.3305,4.3305,4.3305,4.3305,4.3305,4.3305,4.3305,4.3305,4.3305,4.3305,4.3305,4.3305,4.3305,4.3305,4.3305,4.3305,4.3305,4.3305,4.3305,4.3305,4.3305,4.3305,4.329,4.321,4.321,4.3305,4.305,4.285,4.2592,4.1978,4.1241,4.0631,3.9999,3.9656,3.9501,3.9398,3.9507,3.9778,3.9699,3.9697,3.9697,3.9697,3.9697,3.9835,3.9898,4.0325,4.0802,4.1492,4.2007,4.2283,4.2791,4.2904,4.2974,4.2974,4.2986,4.2986,4.2986,4.2986,4.2986,4.2986,4.2986,4.2986,4.2986,4.2986,4.3305,4.3305,4.3305,4.3305,4.3305,4.3305,4.3305,4.3305,4.3305,4.3305,4.3305,4.3305,4.3305,4.3305,4.3305,4.3305,4.3305,4.3305,4.3305,4.3305,4.3305,4.3305,4.3305,4.3305,4.3305,4.3305,4.3305,4.3305,4.3305,4.3305,4.3305,4.3305,4.3305,4.3305,4.3305,4.3305,4.3305,4.3305,4.3305,4.3305,4.3305,4.3305,4.3305,4.3305,4.3305,4.3305,4.3305,4.3305,4.3305,4.3305,4.3305,4.3305,4.3305,4.3305,4.3305,4.3305,4.3305,4.3305,4.3305,4.3305,4.3305,4.3305,4.3305,4.3305,4.3305,4.3305,4.3305,4.3305,4.3305,4.3305,4.3305,4.3305,4.329,4.3235,4.3076,4.3076,4.3036,4.285,4.2526,4.2295,4.1325,4.0559,3.9958,3.9432,3.9034,3.9225,3.9158,3.941,3.9638,3.9698,3.9697,3.9697,3.9697,3.9697,3.991,4.0124,4.0727,4.1317,4.212,4.2635,4.2647,4.2911,4.2936,4.2986,4.2986,4.2986,4.2986,4.2986,4.2986,4.2986,4.2986,4.2986,4.2986,4.2986,4.2986,4.3305,4.3305,4.3305,4.3305,4.3305,4.3305,4.3305,4.3305,4.3305,4.3305,4.3305,4.3305,4.3305,4.3305,4.3305,4.3305,4.3305,4.3305,4.3305,4.3305,4.3305,4.3305,4.3305,4.3305,4.3305,4.3305,4.3305,4.3305,4.3305,4.3305,4.3305,4.3305,4.3305,4.3305,4.3305,4.3305,4.3305,4.3305,4.3305,4.3305,4.3305,4.3305,4.3305,4.3305,4.3305,4.3305,4.3305,4.3305,4.3305,4.3305,4.3305,4.3305,4.3305,4.3305,4.3305,4.3305,4.3305,4.3305,4.3305,4.3305,4.3305,4.3305,4.3305,4.3305,4.3305,4.3305,4.3305,4.3305,4.3305,4.3305,4.3305,4.3305,4.325,4.3115,4.2875,4.2633,4.2374,4.2184,4.2034,4.1688,4.0958,4.0142,3.954,3.9226,3.8958,3.893,3.9127,3.9335,3.9549,3.9672,3.9697,3.9697,3.9697,3.971,3.9885,4.03,4.1103,4.1718,4.2509,4.2961,4.2974,4.2986,4.2986,4.2986,4.2986,4.2986,4.2986,4.2986,4.2986,4.2986,4.2986,4.2986,4.2986,4.2986,4.2986,4.3305,4.3305,4.3305,4.3305,4.3305,4.3305,4.3305,4.3305,4.3305,4.3305,4.3305,4.3305,4.3305,4.3305,4.3305,4.3305,4.3305,4.3305,4.3305,4.3305,4.3305,4.3305,4.3305,4.3305,4.3305,4.3305,4.3305,4.3305,4.3305,4.3305,4.3305,4.3305,4.3305,4.3305,4.3305,4.3305,4.3305,4.3305,4.3305,4.3305,4.3305,4.3305,4.3305,4.3305,4.3305,4.3305,4.3305,4.3305,4.3305,4.3305,4.3305,4.3305,4.3305,4.3305,4.3305,4.3305,4.3305,4.3305,4.3305,4.3305,4.3305,4.3305,4.3305,4.3305,4.3305,4.3305,4.3305,4.3305,4.3305,4.3305,4.3305,4.3305,4.321,4.2981,4.2633,4.217,4.1728,4.1506,4.1283,4.0873,3.9954,3.9309,3.8853,3.876,3.8752,3.863,3.9335,3.9561,3.9574,3.9697,3.9697,3.9697,3.9697,3.9747,3.9898,4.0463,4.1442,4.2082,4.2723,4.2961,4.2986,4.2986,4.2986,4.2986,4.2986,4.2986,4.2986,4.2986,4.2986,4.2986,4.2986,4.2986,4.2986,4.2986,4.2986,4.3305,4.3305,4.3305,4.3305,4.3305,4.3305,4.3305,4.3305,4.3305,4.3305,4.3305,4.3305,4.3305,4.3305,4.3305,4.3305,4.3305,4.3305,4.3305,4.3305,4.3305,4.3305,4.3305,4.3305,4.3305,4.3305,4.3305,4.3305,4.3305,4.3305,4.3305,4.3305,4.3305,4.3305,4.3305,4.3305,4.3305,4.3305,4.3305,4.3305,4.3305,4.3305,4.3305,4.3305,4.3305,4.3305,4.3305,4.3305,4.3305,4.3305,4.3305,4.3305,4.3305,4.3305,4.3305,4.3305,4.3305,4.3305,4.3305,4.3305,4.3305,4.3305,4.3305,4.3305,4.3305,4.3305,4.3305,4.3305,4.3305,4.3305,4.3305,4.3305,4.317,4.2875,4.2333,4.1742,4.1099,4.0659,4.0286,3.9998,3.9193,3.8459,3.8339,3.8321,3.8332,3.855,3.9247,3.9697,3.9697,3.9697,3.9697,3.9697,3.9697,4.0162,4.0388,4.0576,4.1555,4.2333,4.2949,4.2961,4.2986,4.2986,4.2986,4.2986,4.2986,4.2986,4.2986,4.2986,4.2986,4.2986,4.2986,4.2986,4.2986,4.2986,4.2986,4.3305,4.3305,4.3305,4.3305,4.3305,4.3305,4.3305,4.3305,4.3305,4.3305,4.3305,4.3305,4.3305,4.3305,4.3305,4.3305,4.3305,4.3305,4.3305,4.3305,4.3305,4.3305,4.3305,4.3305,4.3305,4.3305,4.3305,4.3305,4.3305,4.3305,4.3305,4.3305,4.3305,4.3305,4.3305,4.3305,4.3305,4.3305,4.3305,4.3305,4.3305,4.3305,4.3305,4.3305,4.3305,4.3305,4.3305,4.3305,4.3305,4.3305,4.3305,4.3305,4.3305,4.3305,4.3305,4.3305,4.3305,4.3305,4.3305,4.3305,4.3305,4.3305,4.3305,4.3305,4.3305,4.3305,4.3305,4.3305,4.3305,4.3305,4.3305,4.3305,4.3025,4.2581,4.202,4.124,4.0215,3.9486,3.91,3.8939,3.8264,3.7769,3.7821,3.7967,3.824,3.8552,3.9158,3.9572,3.9697,3.9697,3.9697,3.9697,3.9697,4.035,4.0924,4.1075,4.1576,4.2459,4.2974,4.2974,4.2986,4.2986,4.2986,4.2986,4.2986,4.2986,4.2986,4.2986,4.2986,4.2986,4.2986,4.2986,4.2986,4.2986,4.2986,4.3305,4.3305,4.3305,4.3305,4.3305,4.3305,4.3305,4.3305,4.3305,4.3305,4.3305,4.3305,4.3305,4.3305,4.3305,4.3305,4.3305,4.3305,4.3305,4.3305,4.3305,4.3305,4.3305,4.3305,4.3305,4.3305,4.3305,4.3305,4.3305,4.3305,4.3305,4.3305,4.3305,4.3305,4.3305,4.3305,4.3305,4.3305,4.3305,4.3305,4.3305,4.3305,4.3305,4.3305,4.3305,4.3305,4.3305,4.3305,4.3305,4.3305,4.3305,4.3305,4.3305,4.3305,4.3305,4.3305,4.3305,4.3305,4.3305,4.3305,4.3305,4.3305,4.3305,4.3305,4.3305,4.3305,4.3305,4.3305,4.3305,4.3305,4.3305,4.3305,4.2985,4.2459,4.1854,4.0887,3.9678,3.8729,3.8277,3.7946,3.7487,3.7193,3.7254,3.7531,3.8034,3.8591,3.912,3.9472,3.9672,3.9697,3.9697,3.9697,3.9747,4.0337,4.0949,4.125,4.1743,4.2559,4.2986,4.2986,4.2986,4.2986,4.2986,4.2986,4.2986,4.2986,4.2986,4.2986,4.2986,4.2986,4.2986,4.2986,4.2986,4.2986,4.2986,4.3305,4.3305,4.3305,4.3305,4.3305,4.3305,4.3305,4.3305,4.3305,4.3305,4.3305,4.3305,4.3305,4.3305,4.3305,4.3305,4.3305,4.3305,4.3305,4.3305,4.3305,4.3305,4.3305,4.3305,4.3305,4.3305,4.3305,4.3305,4.3305,4.3305,4.3305,4.3305,4.3305,4.3305,4.3305,4.3305,4.3305,4.3305,4.3305,4.3305,4.3305,4.3305,4.3305,4.3305,4.3305,4.3305,4.3305,4.3305,4.3305,4.3305,4.3305,4.3305,4.3305,4.3305,4.3305,4.3305,4.3305,4.3305,4.3305,4.3305,4.3305,4.3305,4.3305,4.3305,4.3305,4.3305,4.3305,4.3305,4.3305,4.3305,4.3305,4.3235,4.2945,4.2307,4.1576,4.0646,3.9356,3.8355,3.7559,3.7176,3.6756,3.6725,3.6839,3.7475,3.8025,3.8441,3.8969,3.9522,3.9697,3.9697,3.9697,3.9697,3.986,4.0337,4.0799,4.1213,4.1869,4.2723,4.2961,4.2986,4.2986,4.2986,4.2986,4.2986,4.2986,4.2986,4.2986,4.2986,4.2986,4.2986,4.2986,4.2986,4.2986,4.2986,4.2986,4.3305,4.3305,4.3305,4.3305,4.3305,4.3305,4.3305,4.3305,4.3305,4.3305,4.3305,4.3305,4.3305,4.3305,4.3305,4.3305,4.3305,4.3305,4.3305,4.3305,4.3305,4.3305,4.3305,4.3305,4.3305,4.3305,4.3305,4.3305,4.3305,4.3305,4.3305,4.3305,4.3305,4.3305,4.3305,4.3305,4.3305,4.3305,4.3305,4.3305,4.3305,4.3305,4.3305,4.3305,4.3305,4.3305,4.3305,4.3305,4.3305,4.3305,4.3305,4.3305,4.3305,4.3305,4.3305,4.3305,4.3305,4.3305,4.3305,4.3305,4.3305,4.3305,4.3305,4.3305,4.3305,4.3305,4.3305,4.3305,4.3305,4.329,4.325,4.3115,4.2714,4.2032,4.1268,4.013,3.8868,3.8141,3.7341,3.6828,3.6546,3.6499,3.6562,3.731,3.804,3.8417,3.8843,3.9371,3.9697,3.9697,3.9697,3.9697,3.981,4.0262,4.0811,4.12,4.1919,4.2798,4.2949,4.2986,4.2986,4.2986,4.2986,4.2986,4.2986,4.2986,4.2986,4.2986,4.2986,4.2986,4.2986,4.2986,4.2986,4.2986,4.2986,4.3305,4.3305,4.3305,4.3305,4.3305,4.3305,4.3305,4.3305,4.3305,4.3305,4.3305,4.3305,4.3305,4.3305,4.3305,4.3305,4.3305,4.3305,4.3305,4.3305,4.3305,4.3305,4.3305,4.3305,4.3305,4.3305,4.3305,4.3305,4.3305,4.3305,4.3305,4.3305,4.3305,4.3305,4.3305,4.3305,4.3305,4.3305,4.3305,4.3305,4.3305,4.3305,4.3305,4.3305,4.3305,4.3305,4.3305,4.3305,4.3305,4.3305,4.3305,4.3305,4.3305,4.3305,4.3305,4.3305,4.3305,4.3305,4.3305,4.3305,4.3305,4.3305,4.3305,4.3305,4.3305,4.3305,4.3305,4.3305,4.3305,4.325,4.3115,4.297,4.2389,4.1715,4.0845,3.9752,3.8657,3.7972,3.732,3.6794,3.6417,3.6417,3.6581,3.7337,3.7977,3.8266,3.8818,3.9484,3.9697,3.9697,3.9697,3.9697,3.986,4.0111,4.0789,4.13,4.1932,4.2647,4.2961,4.2986,4.2986,4.2986,4.2986,4.2986,4.2986,4.2986,4.2986,4.2986,4.2986,4.2986,4.2986,4.2986,4.2986,4.2986,4.2986,4.3305,4.3305,4.3305,4.3305,4.3305,4.3305,4.3305,4.3305,4.3305,4.3305,4.3305,4.3305,4.3305,4.3305,4.3305,4.3305,4.3305,4.3305,4.3305,4.3305,4.3305,4.3305,4.3305,4.3305,4.3305,4.3305,4.3305,4.3305,4.3305,4.3305,4.3305,4.3305,4.3305,4.3305,4.3305,4.3305,4.3305,4.3305,4.3305,4.3305,4.3305,4.3305,4.3305,4.3305,4.3305,4.3305,4.3305,4.3305,4.3305,4.3305,4.3305,4.3305,4.3305,4.3305,4.3305,4.3305,4.3305,4.3305,4.3305,4.3305,4.3305,4.3305,4.3305,4.3305,4.3305,4.3305,4.3305,4.3305,4.321,4.313,4.2915,4.2648,4.2034,4.1269,4.0388,3.9339,3.8336,3.7664,3.7121,3.67,3.6417,3.6417,3.6744,3.745,3.7927,3.814,3.8743,3.9546,3.9697,3.9697,3.9697,3.9697,3.9772,4.0111,4.0877,4.1451,4.2082,4.2534,4.2848,4.2986,4.2986,4.2986,4.2986,4.2986,4.2986,4.2986,4.2986,4.2986,4.2986,4.2986,4.2986,4.2986,4.2986,4.2986,4.2986,4.3305,4.3305,4.3305,4.3305,4.3305,4.3305,4.3305,4.3305,4.3305,4.3305,4.3305,4.3305,4.3305,4.3305,4.3305,4.3305,4.3305,4.3305,4.3305,4.3305,4.3305,4.3305,4.3305,4.3305,4.3305,4.3305,4.3305,4.3305,4.3305,4.3305,4.3305,4.3305,4.3305,4.3305,4.3305,4.3305,4.3305,4.3305,4.3305,4.3305,4.3305,4.3305,4.3305,4.3305,4.3305,4.3305,4.3305,4.3305,4.3305,4.3305,4.3305,4.3305,4.3305,4.3305,4.3305,4.3305,4.3305,4.3305,4.3305,4.3305,4.3305,4.3305,4.3305,4.3305,4.3305,4.3305,4.3305,4.3265,4.313,4.2875,4.2592,4.2143,4.1493,4.0617,3.9749,3.8819,3.7913,3.7315,3.6781,3.6499,3.648,3.6593,3.6958,3.7676,3.7927,3.8128,3.8906,3.9697,3.9697,3.9697,3.9697,3.9697,3.9697,4.0149,4.1,4.1551,4.1944,4.2472,4.2911,4.2986,4.2986,4.2986,4.2986,4.2986,4.2986,4.2986,4.2986,4.2986,4.2986,4.2986,4.2986,4.2986,4.2986,4.2986,4.2986,4.3305,4.3305,4.3305,4.3305,4.3305,4.3305,4.3305,4.3305,4.3305,4.3305,4.3305,4.3305,4.3305,4.3305,4.3305,4.3305,4.3305,4.3305,4.3305,4.3305,4.3305,4.3305,4.3305,4.3305,4.3305,4.3305,4.3305,4.3305,4.3305,4.3305,4.3305,4.3305,4.3305,4.3305,4.3305,4.3305,4.3305,4.3305,4.3305,4.3305,4.3305,4.3305,4.3305,4.3305,4.3305,4.3305,4.3305,4.3305,4.3305,4.3305,4.3305,4.3305,4.3305,4.3305,4.3305,4.3305,4.3305,4.3305,4.3305,4.3305,4.3305,4.3305,4.3305,4.3305,4.3305,4.3305,4.321,4.313,4.293,4.2633,4.2061,4.1479,4.0773,3.9895,3.9056,3.82,3.7637,3.707,3.6855,3.6779,3.6857,3.6923,3.7374,3.7902,3.8015,3.8165,3.9032,3.9697,3.9697,3.9697,3.9697,3.9697,3.9697,4.0212,4.105,4.1413,4.1743,4.2371,4.2986,4.2986,4.2986,4.2986,4.2986,4.2986,4.2986,4.2986,4.2986,4.2986,4.2986,4.2986,4.2986,4.2986,4.2986,4.2986,4.2986,4.3305,4.3305,4.3305,4.3305,4.3305,4.3305,4.3305,4.3305,4.3305,4.3305,4.3305,4.3305,4.3305,4.3305,4.3305,4.3305,4.3305,4.3305,4.3305,4.3305,4.3305,4.3305,4.3305,4.3305,4.3305,4.3305,4.3305,4.3305,4.3305,4.3305,4.3305,4.3305,4.3305,4.3305,4.3305,4.3305,4.3305,4.3305,4.3305,4.3305,4.3305,4.3305,4.3305,4.3305,4.3305,4.3305,4.3305,4.3305,4.3305,4.3305,4.3305,4.3305,4.3305,4.3305,4.3305,4.3305,4.3305,4.3305,4.3305,4.3305,4.3305,4.3305,4.3305,4.3305,4.3305,4.3305,4.321,4.2996,4.2714,4.2225,4.1521,4.0759,3.9938,3.9056,3.8336,3.7598,3.7484,3.714,3.7102,3.7084,3.7211,3.7437,3.7726,3.8216,3.858,3.8693,3.9195,3.9697,3.9697,3.9697,3.9697,3.9697,3.9697,4.0375,4.1062,4.1313,4.1639,4.2509,4.2986,4.2986,4.2986,4.2986,4.2986,4.2986,4.2986,4.2986,4.2986,4.2986,4.2986,4.2986,4.2986,4.2986,4.2986,4.2986,4.2986,4.3305,4.3305,4.3305,4.3305,4.3305,4.3305,4.3305,4.3305,4.3305,4.3305,4.3305,4.3305,4.3305,4.3305,4.3305,4.3305,4.3305,4.3305,4.3305,4.3305,4.3305,4.3305,4.3305,4.3305,4.3305,4.3305,4.3305,4.3305,4.3305,4.3305,4.3305,4.3305,4.3305,4.3305,4.3305,4.3305,4.3305,4.3305,4.3305,4.3305,4.3305,4.3305,4.3305,4.3305,4.3305,4.3305,4.3305,4.3305,4.3305,4.3305,4.3305,4.3305,4.3305,4.3305,4.3305,4.3305,4.3305,4.3305,4.3305,4.3305,4.3305,4.3305,4.3305,4.3305,4.3305,4.329,4.313,4.289,4.2333,4.1715,4.0916,4.0025,3.9145,3.8468,3.7727,3.7488,3.7438,3.7415,3.7421,3.7536,3.7764,3.8027,3.8216,3.853,3.9057,3.9358,3.9584,3.9697,3.9697,3.9697,3.9697,3.9697,3.9722,4.0212,4.0786,4.1125,4.1614,4.2509,4.2986,4.2986,4.2986,4.2986,4.2986,4.2986,4.2986,4.2986,4.2986,4.2986,4.2986,4.2986,4.2986,4.2986,4.2986,4.2986,4.2986,4.3305,4.3305,4.3305,4.3305,4.3305,4.3305,4.3305,4.3305,4.3305,4.3305,4.3305,4.3305,4.3305,4.3305,4.3305,4.3305,4.3305,4.3305,4.3305,4.3305,4.3305,4.3305,4.3305,4.3305,4.3305,4.3305,4.3305,4.3305,4.3305,4.3305,4.3305,4.3305,4.3305,4.3305,4.3305,4.3305,4.3305,4.3305,4.3305,4.3305,4.3305,4.3305,4.3305,4.3305,4.3305,4.3305,4.3305,4.3305,4.3305,4.3305,4.3305,4.3305,4.3305,4.3305,4.3305,4.3305,4.3305,4.3305,4.3305,4.3305,4.3305,4.3305,4.3305,4.3305,4.3305,4.317,4.297,4.2526,4.1825,4.1071,4.0085,3.9176,3.8396,3.8137,3.7753,3.7708,3.7707,3.7761,3.7814,3.7965,3.8203,3.8693,3.8994,3.8956,3.9346,3.9521,3.9672,3.9697,3.9697,3.9697,3.9697,3.9697,3.9772,4.0136,4.0551,4.1028,4.153,4.2271,4.276,4.2986,4.2986,4.2986,4.2986,4.2986,4.2986,4.2986,4.2986,4.2986,4.2986,4.2986,4.2986,4.2986,4.2986,4.2986,4.2986,4.3305,4.3305,4.3305,4.3305,4.3305,4.3305,4.3305,4.3305,4.3305,4.3305,4.3305,4.3305,4.3305,4.3305,4.3305,4.3305,4.3305,4.3305,4.3305,4.3305,4.3305,4.3305,4.3305,4.3305,4.3305,4.3305,4.3305,4.3305,4.3305,4.3305,4.3305,4.3305,4.3305,4.3305,4.3305,4.3305,4.3305,4.3305,4.3305,4.3305,4.3305,4.3305,4.3305,4.3305,4.3305,4.3305,4.3305,4.3305,4.3305,4.3305,4.3305,4.3305,4.3305,4.3305,4.3305,4.3305,4.3305,4.325,4.321,4.3155,4.313,4.293,4.309,4.321,4.313,4.293,4.2566,4.2034,4.1269,4.0416,3.9513,3.857,3.8225,3.7957,3.7889,3.7886,3.8227,3.8278,3.8442,3.858,3.8768,3.927,3.9572,3.9584,3.9622,3.9672,3.9697,3.9697,3.9697,3.9697,3.9697,3.9697,3.976,4.0049,4.0488,4.1015,4.153,4.2125,4.2577,4.2961,4.2986,4.2986,4.2986,4.2986,4.2986,4.2986,4.2986,4.2986,4.2986,4.2986,4.2986,4.2986,4.2986,4.2986,4.2986,4.3305,4.3305,4.3305,4.3305,4.3305,4.3305,4.3305,4.3305,4.3305,4.3305,4.3305,4.3305,4.3305,4.3305,4.3305,4.3305,4.3305,4.3305,4.3305,4.3305,4.3305,4.3305,4.3305,4.3305,4.3305,4.3305,4.3305,4.3305,4.3305,4.3305,4.3305,4.3305,4.3305,4.3305,4.3305,4.3305,4.3305,4.3305,4.3305,4.3305,4.3305,4.3305,4.3305,4.3305,4.3305,4.3305,4.3305,4.3305,4.3305,4.3305,4.3305,4.3305,4.3305,4.3305,4.3305,4.3305,4.3265,4.3155,4.2955,4.2915,4.2754,4.2566,4.2673,4.2875,4.2795,4.2526,4.2117,4.1578,4.09,3.9977,3.9074,3.8635,3.8234,3.8123,3.8061,3.8303,3.8781,3.8981,3.9145,3.9295,3.9421,3.9659,3.9659,3.9697,3.9697,3.9697,3.9697,3.9697,3.9697,3.9697,3.9697,3.9697,3.9785,3.9936,4.0375,4.089,4.1354,4.1831,4.2547,4.2986,4.2986,4.2986,4.2986,4.2986,4.2986,4.2986,4.2986,4.2986,4.2986,4.2986,4.2986,4.2986,4.2986,4.2986,4.2986,4.3305,4.3305,4.3305,4.3305,4.3305,4.3305,4.3305,4.3305,4.3305,4.3305,4.3305,4.3305,4.3305,4.3305,4.3305,4.3305,4.3305,4.3305,4.3305,4.3305,4.3305,4.3305,4.3305,4.3305,4.3305,4.3305,4.3305,4.3305,4.3305,4.3305,4.3305,4.3305,4.3305,4.3305,4.3305,4.3305,4.3305,4.3305,4.3305,4.3305,4.3305,4.3305,4.3305,4.3305,4.3305,4.3305,4.3305,4.3305,4.3305,4.3305,4.3305,4.3305,4.3305,4.329,4.325,4.3076,4.3036,4.2955,4.2648,4.2581,4.2404,4.202,4.1978,4.202,4.2061,4.1854,4.1465,4.1085,4.0503,3.9667,3.9176,3.8791,3.8546,3.8499,3.8479,3.8831,3.9195,3.9358,3.9521,3.9546,3.9697,3.9697,3.9697,3.9697,3.9697,3.9697,3.9697,3.9697,3.9697,3.9697,3.9697,3.9697,3.9722,3.9848,4.0199,4.0676,4.1128,4.163,4.2384,4.2949,4.2986,4.2986,4.2986,4.2986,4.2986,4.2986,4.2986,4.2986,4.2986,4.2986,4.2986,4.2986,4.2986,4.2986,4.2986,4.3305,4.3305,4.3305,4.3305,4.3305,4.3305,4.3305,4.3305,4.3305,4.3305,4.3305,4.3305,4.3305,4.3305,4.3305,4.3305,4.3305,4.3305,4.3305,4.3305,4.3305,4.3305,4.3305,4.3305,4.3305,4.3305,4.3305,4.3305,4.3305,4.3305,4.3305,4.3305,4.3305,4.3305,4.3305,4.3305,4.3305,4.3305,4.3305,4.3305,4.3305,4.3305,4.3305,4.3305,4.3305,4.3305,4.3305,4.3305,4.3305,4.3305,4.3305,4.3305,4.3305,4.325,4.3155,4.2996,4.293,4.2648,4.2377,4.2254,4.1895,4.1464,4.1156,4.0972,4.0873,4.0759,4.0784,4.0632,4.0033,3.9508,3.9236,3.9017,3.8938,3.8894,3.9108,3.9359,3.9496,3.9647,3.9685,3.9685,3.9697,3.9697,3.9697,3.9697,3.9697,3.9697,3.9697,3.9697,3.9697,3.9697,3.9697,3.9697,3.9697,3.9747,4.0149,4.0588,4.1103,4.1681,4.2384,4.2836,4.2924,4.2986,4.2986,4.2986,4.2986,4.2986,4.2986,4.2986,4.2986,4.2986,4.2986,4.2986,4.2986,4.2986,4.2986,4.3305,4.3305,4.3305,4.3305,4.3305,4.3305,4.3305,4.3305,4.3305,4.3305,4.3305,4.3305,4.3305,4.3305,4.3305,4.3305,4.3305,4.3305,4.3305,4.3305,4.3305,4.3305,4.3305,4.3305,4.3305,4.3305,4.3305,4.3305,4.3305,4.3305,4.3305,4.3305,4.3305,4.3305,4.3305,4.3305,4.3305,4.3305,4.3305,4.3305,4.3305,4.3305,4.3305,4.3305,4.3305,4.3305,4.3305,4.3305,4.3305,4.3305,4.3305,4.3305,4.321,4.3115,4.3021,4.278,4.2648,4.224,4.191,4.1744,4.117,4.0702,4.0257,4.0191,4.0187,4.0156,4.0288,4.0295,3.9786,3.963,3.9414,3.9413,3.9385,3.9284,3.9397,3.9509,3.9609,3.9697,3.9697,3.9697,3.9697,3.9697,3.9697,3.9697,3.9697,3.9697,3.9697,3.9697,3.9697,3.9697,3.9722,3.9722,3.971,3.9798,4.0187,4.0651,4.1178,4.1781,4.2459,4.2798,4.2949,4.2986,4.2986,4.2986,4.2986,4.2986,4.2986,4.2986,4.2986,4.2986,4.2986,4.2986,4.2986,4.2986,4.2986,4.3305,4.3305,4.3305,4.3305,4.3305,4.3305,4.3305,4.3305,4.3305,4.3305,4.3305,4.3305,4.3305,4.3305,4.3305,4.3305,4.3305,4.3305,4.3305,4.3305,4.3305,4.3305,4.3305,4.3305,4.3305,4.3305,4.3305,4.3305,4.3305,4.3305,4.3305,4.3305,4.3305,4.3305,4.3305,4.3305,4.3305,4.3305,4.3305,4.3305,4.3305,4.3305,4.3305,4.3305,4.3305,4.3305,4.3305,4.3305,4.3305,4.3305,4.3305,4.321,4.3061,4.3021,4.2699,4.2348,4.224,4.1868,4.1409,4.1114,4.0659,4.0263,3.996,3.9906,3.9893,3.9848,3.9873,3.9814,3.9738,3.965,3.9677,3.9714,3.974,3.9663,3.9584,3.9634,3.9697,3.9697,3.9697,3.9697,3.9697,3.9697,3.9697,3.9697,3.9697,3.9697,3.9697,3.9697,3.9697,3.971,3.9785,3.9785,3.9747,3.9885,4.0275,4.084,4.143,4.1919,4.2534,4.2798,4.2974,4.2986,4.2986,4.2986,4.2986,4.2986,4.2986,4.2986,4.2986,4.2986,4.2986,4.2986,4.2986,4.2986,4.2986,4.3559,4.3319,4.3305,4.3305,4.3305,4.3305,4.3305,4.3305,4.3305,4.3305,4.3305,4.3305,4.3305,4.3305,4.3305,4.3305,4.3305,4.3305,4.3305,4.3305,4.3305,4.3305,4.3305,4.3305,4.3305,4.3305,4.3305,4.3305,4.3305,4.3305,4.3305,4.3305,4.3305,4.3305,4.3305,4.3305,4.3305,4.3305,4.3305,4.3305,4.3305,4.3305,4.3305,4.3305,4.3305,4.3305,4.3305,4.3305,4.325,4.317,4.309,4.297,4.2835,4.2769,4.2526,4.2295,4.2049,4.166,4.1071,4.0644,4.0295,3.9909,3.9527,3.9447,3.9404,3.9423,3.9915,3.9904,3.9534,3.9405,3.9751,3.9867,3.9777,3.9686,3.9647,3.9672,3.9697,3.9697,3.9697,3.9697,3.9697,3.9697,3.9697,3.9697,3.9697,3.9697,3.9697,3.9697,3.9697,3.9823,3.9873,4.0011,4.0074,4.0111,4.0413,4.1053,4.1781,4.2258,4.266,4.2823,4.2986,4.2986,4.2986,4.2986,4.2986,4.2986,4.2986,4.2986,4.2986,4.2986,4.2986,4.2986,4.2986,4.2986,4.2986,4.3873,4.3334,4.3305,4.3305,4.3305,4.3305,4.3305,4.3305,4.3305,4.3305,4.3305,4.3305,4.3305,4.3305,4.3305,4.3305,4.3305,4.3305,4.3305,4.3305,4.3305,4.3305,4.3305,4.3305,4.3305,4.3305,4.3305,4.3305,4.3305,4.3305,4.3305,4.3305,4.3305,4.3305,4.3305,4.3305,4.3305,4.3305,4.3305,4.3305,4.3305,4.3305,4.3305,4.3305,4.3305,4.3305,4.3305,4.325,4.3155,4.3036,4.289,4.2769,4.2648,4.2541,4.2377,4.2187,4.1953,4.1507,4.1001,4.0626,4.0056,3.9588,3.9236,3.9094,3.9123,3.9372,3.9853,3.9883,3.9548,3.95,3.9778,3.9865,3.9788,3.9697,3.9697,3.9697,3.9697,3.9697,3.9697,3.9697,3.9697,3.9697,3.9697,3.9697,3.9697,3.9697,3.9697,3.9697,3.976,3.9986,4.0124,4.045,4.0714,4.0752,4.0852,4.1304,4.215,4.2421,4.2773,4.2898,4.2986,4.2986,4.2986,4.2986,4.2986,4.2986,4.2986,4.2986,4.2986,4.2986,4.2986,4.2986,4.2986,4.2986,4.2986,4.3928,4.3305,4.3305,4.3305,4.3305,4.3305,4.3305,4.3305,4.3305,4.3305,4.3305,4.3305,4.3305,4.3305,4.3305,4.3305,4.3305,4.3305,4.3305,4.3305,4.3305,4.3305,4.3305,4.3305,4.3305,4.3305,4.3305,4.3305,4.3305,4.3305,4.3305,4.3305,4.3305,4.3305,4.3305,4.3305,4.3305,4.3305,4.3305,4.3305,4.3305,4.3305,4.3305,4.3305,4.3305,4.3305,4.3265,4.313,4.3076,4.2955,4.2769,4.2581,4.2418,4.2295,4.209,4.1827,4.1647,4.1199,4.0742,4.0396,3.9811,3.9462,3.9285,3.9488,3.9544,3.9651,3.9955,4.0032,3.9778,3.9677,3.9878,3.9788,3.9697,3.9697,3.9697,3.9697,3.9697,3.9697,3.9697,3.9697,3.9697,3.9697,3.9697,3.9697,3.9697,3.9697,3.9697,3.9722,3.9873,4.0111,4.0388,4.0852,4.1291,4.1656,4.1923,4.1806,4.2389,4.2635,4.2861,4.2936,4.2986,4.2986,4.2986,4.2986,4.2986,4.2986,4.2986,4.2986,4.2986,4.2986,4.2986,4.2986,4.2986,4.2986,4.2986]}]]